Wetterdaten: Donnerstag, 29.12.2016
Datum Zeit Temp. A. Feuchte A. Luftdruck Regen Wind Richtung Richtung Sonnenschein ET UV Solar Taupunkt Windchill Windben Empfang
29.12.2016 00:00 1,1 C 95 % 1040,7 hPa 0,0 l/m 2,3 km/h (1 Bft) SO 126 0 min 0,000 mm 0,0 UV-I 0 W/m 0,4 C 1,1 C 6,4 km/h (2 Bft) 100,00 %
29.12.2016 00:02 1,1 C 95 % 1040,7 hPa 0,2 l/m 2,9 km/h (1 Bft) SO 124 0 min 0,000 mm 0,0 UV-I 0 W/m 0,4 C 1,1 C 4,8 km/h (1 Bft) 100,00 %
29.12.2016 00:04 1,1 C 95 % 1040,6 hPa 0,0 l/m 1,1 km/h (1 Bft) SO 134 0 min 0,000 mm 0,0 UV-I 0 W/m 0,4 C 1,1 C 3,2 km/h (1 Bft) 100,00 %
29.12.2016 00:06 1,1 C 95 % 1040,6 hPa 0,0 l/m 0,5 km/h (0 Bft) SO 134 0 min 0,000 mm 0,0 UV-I 0 W/m 0,4 C 1,1 C 3,2 km/h (1 Bft) 97,87 %
29.12.2016 00:08 1,1 C 95 % 1040,6 hPa 0,0 l/m 2,9 km/h (1 Bft) SO 134 0 min 0,000 mm 0,0 UV-I 0 W/m 0,4 C 1,1 C 4,8 km/h (1 Bft) 97,87 %
29.12.2016 00:10 1,1 C 95 % 1040,6 hPa 0,0 l/m 0,8 km/h (0 Bft) SO 134 0 min 0,000 mm 0,0 UV-I 0 W/m 0,4 C 1,1 C 3,2 km/h (1 Bft) 100,00 %
29.12.2016 00:12 1,1 C 95 % 1040,5 hPa 0,0 l/m 0,1 km/h (0 Bft) SO 134 0 min 0,000 mm 0,0 UV-I 0 W/m 0,4 C 1,1 C 1,6 km/h (1 Bft) 100,00 %
29.12.2016 00:14 1,1 C 95 % 1040,5 hPa 0,0 l/m 0,2 km/h (0 Bft) SO 134 0 min 0,000 mm 0,0 UV-I 0 W/m 0,4 C 1,1 C 1,6 km/h (1 Bft) 100,00 %
29.12.2016 00:16 1,1 C 95 % 1040,5 hPa 0,0 l/m 1,2 km/h (1 Bft) SO 134 0 min 0,000 mm 0,0 UV-I 0 W/m 0,4 C 1,1 C 3,2 km/h (1 Bft) 97,87 %
29.12.2016 00:18 1,1 C 95 % 1040,6 hPa 0,0 l/m 1,4 km/h (1 Bft) SO 134 0 min 0,000 mm 0,0 UV-I 0 W/m 0,4 C 1,1 C 4,8 km/h (1 Bft) 100,00 %
29.12.2016 00:20 1,1 C 95 % 1040,6 hPa 0,0 l/m 2,2 km/h (1 Bft) SO 135 0 min 0,000 mm 0,0 UV-I 0 W/m 0,4 C 1,1 C 4,8 km/h (1 Bft) 100,00 %
29.12.2016 00:22 1,1 C 95 % 1040,5 hPa 0,0 l/m 0,6 km/h (0 Bft) SO 134 0 min 0,000 mm 0,0 UV-I 0 W/m 0,4 C 1,1 C 3,2 km/h (1 Bft) 100,00 %
29.12.2016 00:24 1,1 C 95 % 1040,5 hPa 0,0 l/m 0,6 km/h (0 Bft) SO 134 0 min 0,000 mm 0,0 UV-I 0 W/m 0,4 C 1,1 C 3,2 km/h (1 Bft) 100,00 %
29.12.2016 00:26 1,1 C 95 % 1040,5 hPa 0,0 l/m 2,0 km/h (1 Bft) SO 134 0 min 0,000 mm 0,0 UV-I 0 W/m 0,4 C 1,1 C 4,8 km/h (1 Bft) 100,00 %
29.12.2016 00:28 1,1 C 95 % 1040,5 hPa 0,0 l/m 0,8 km/h (0 Bft) SO 134 0 min 0,000 mm 0,0 UV-I 0 W/m 0,4 C 1,1 C 3,2 km/h (1 Bft) 98,00 %
29.12.2016 00:30 1,1 C 95 % 1040,5 hPa 0,0 l/m 0,1 km/h (0 Bft) SO 135 0 min 0,000 mm 0,0 UV-I 0 W/m 0,4 C 1,1 C 1,6 km/h (1 Bft) 97,87 %
29.12.2016 00:32 1,1 C 95 % 1040,5 hPa 0,0 l/m 0,0 km/h (0 Bft) SO 134 0 min 0,000 mm 0,0 UV-I 0 W/m 0,4 C 1,1 C 0,0 km/h (0 Bft) 97,87 %
29.12.2016 00:34 1,1 C 95 % 1040,5 hPa 0,0 l/m 1,0 km/h (0 Bft) SO 134 0 min 0,000 mm 0,0 UV-I 0 W/m 0,4 C 1,1 C 3,2 km/h (1 Bft) 97,87 %
29.12.2016 00:36 1,1 C 95 % 1040,4 hPa 0,0 l/m 0,5 km/h (0 Bft) SO 134 0 min 0,000 mm 0,0 UV-I 0 W/m 0,4 C 1,1 C 1,6 km/h (1 Bft) 93,62 %
29.12.2016 00:38 1,1 C 95 % 1040,4 hPa 0,0 l/m 1,0 km/h (0 Bft) SO 134 0 min 0,000 mm 0,0 UV-I 0 W/m 0,4 C 1,1 C 4,8 km/h (1 Bft) 95,74 %
29.12.2016 00:40 1,1 C 95 % 1040,4 hPa 0,0 l/m 1,6 km/h (1 Bft) SO 136 0 min 0,000 mm 0,0 UV-I 0 W/m 0,4 C 1,1 C 3,2 km/h (1 Bft) 91,43 %
29.12.2016 00:42 1,1 C 95 % 1040,5 hPa 0,0 l/m 1,9 km/h (1 Bft) SO 136 0 min 0,000 mm 0,0 UV-I 0 W/m 0,4 C 1,1 C 3,2 km/h (1 Bft) 98,00 %
29.12.2016 00:44 1,1 C 95 % 1040,5 hPa 0,0 l/m 1,7 km/h (1 Bft) SO 127 0 min 0,000 mm 0,0 UV-I 0 W/m 0,4 C 1,1 C 4,8 km/h (1 Bft) 98,00 %
29.12.2016 00:46 1,1 C 95 % 1040,4 hPa 0,0 l/m 2,2 km/h (1 Bft) SO 131 0 min 0,000 mm 0,0 UV-I 0 W/m 0,4 C 1,1 C 4,8 km/h (1 Bft) 97,87 %
29.12.2016 00:48 1,1 C 95 % 1040,4 hPa 0,0 l/m 1,9 km/h (1 Bft) SO 131 0 min 0,000 mm 0,0 UV-I 0 W/m 0,4 C 1,1 C 3,2 km/h (1 Bft) 93,62 %
29.12.2016 00:50 1,1 C 95 % 1040,3 hPa 0,0 l/m 2,1 km/h (1 Bft) SO 139 0 min 0,000 mm 0,0 UV-I 0 W/m 0,4 C 1,1 C 3,2 km/h (1 Bft) 97,87 %
29.12.2016 00:52 1,1 C 95 % 1040,3 hPa 0,0 l/m 1,5 km/h (1 Bft) SO 139 0 min 0,000 mm 0,0 UV-I 0 W/m 0,4 C 1,1 C 3,2 km/h (1 Bft) 97,87 %
29.12.2016 00:54 1,1 C 95 % 1040,4 hPa 0,2 l/m 0,7 km/h (0 Bft) SO 139 0 min 0,000 mm 0,0 UV-I 0 W/m 0,4 C 1,1 C 1,6 km/h (1 Bft) 93,62 %
29.12.2016 00:56 1,1 C 95 % 1040,3 hPa 0,0 l/m 2,3 km/h (1 Bft) SO 140 0 min 0,000 mm 0,0 UV-I 0 W/m 0,4 C 1,1 C 4,8 km/h (1 Bft) 95,74 %
29.12.2016 00:58 1,1 C 95 % 1040,3 hPa 0,0 l/m 2,7 km/h (1 Bft) SO 142 0 min 0,000 mm 0,0 UV-I 0 W/m 0,4 C 1,1 C 4,8 km/h (1 Bft) 98,00 %
29.12.2016 01:00 1,1 C 95 % 1040,4 hPa 0,0 l/m 3,3 km/h (1 Bft) S-SO 150 0 min 0,000 mm 0,0 UV-I 0 W/m 0,4 C 1,1 C 4,8 km/h (1 Bft) 97,87 %
29.12.2016 01:02 1,1 C 95 % 1040,3 hPa 0,0 l/m 2,2 km/h (1 Bft) S-SO 150 0 min 0,000 mm 0,0 UV-I 0 W/m 0,4 C 1,1 C 4,8 km/h (1 Bft) 98,00 %
29.12.2016 01:04 1,1 C 95 % 1040,3 hPa 0,0 l/m 2,6 km/h (1 Bft) SO 145 0 min 0,000 mm 0,0 UV-I 0 W/m 0,4 C 1,1 C 6,4 km/h (2 Bft) 100,00 %
29.12.2016 01:06 1,1 C 96 % 1040,3 hPa 0,0 l/m 2,1 km/h (1 Bft) S-SO 151 0 min 0,000 mm 0,0 UV-I 0 W/m 0,5 C 1,1 C 4,8 km/h (1 Bft) 97,92 %
29.12.2016 01:08 1,1 C 96 % 1040,3 hPa 0,0 l/m 2,7 km/h (1 Bft) S-SO 161 0 min 0,000 mm 0,0 UV-I 0 W/m 0,5 C 1,1 C 6,4 km/h (2 Bft) 97,87 %
29.12.2016 01:10 1,1 C 96 % 1040,3 hPa 0,0 l/m 2,0 km/h (1 Bft) S-SO 161 0 min 0,000 mm 0,0 UV-I 0 W/m 0,5 C 1,1 C 3,2 km/h (1 Bft) 100,00 %
29.12.2016 01:12 1,1 C 96 % 1040,2 hPa 0,0 l/m 2,0 km/h (1 Bft) S-SO 161 0 min 0,000 mm 0,0 UV-I 0 W/m 0,5 C 1,1 C 6,4 km/h (2 Bft) 100,00 %
29.12.2016 01:14 1,1 C 96 % 1040,2 hPa 0,0 l/m 1,6 km/h (1 Bft) S-SO 161 0 min 0,000 mm 0,0 UV-I 0 W/m 0,5 C 1,1 C 3,2 km/h (1 Bft) 100,00 %
29.12.2016 01:16 1,1 C 96 % 1040,2 hPa 0,0 l/m 1,2 km/h (1 Bft) S-SO 161 0 min 0,000 mm 0,0 UV-I 0 W/m 0,5 C 1,1 C 3,2 km/h (1 Bft) 100,00 %
29.12.2016 01:18 1,2 C 96 % 1040,1 hPa 0,0 l/m 2,2 km/h (1 Bft) S-SO 160 0 min 0,000 mm 0,0 UV-I 0 W/m 0,6 C 1,2 C 3,2 km/h (1 Bft) 100,00 %
29.12.2016 01:20 1,2 C 96 % 1040,2 hPa 0,0 l/m 2,2 km/h (1 Bft) S-SO 162 0 min 0,000 mm 0,0 UV-I 0 W/m 0,6 C 1,2 C 6,4 km/h (2 Bft) 97,87 %
29.12.2016 01:22 1,2 C 96 % 1040,2 hPa 0,0 l/m 1,2 km/h (1 Bft) S-SO 162 0 min 0,000 mm 0,0 UV-I 0 W/m 0,6 C 1,2 C 3,2 km/h (1 Bft) 100,00 %
29.12.2016 01:24 1,2 C 96 % 1040,2 hPa 0,0 l/m 1,3 km/h (1 Bft) S-SO 162 0 min 0,000 mm 0,0 UV-I 0 W/m 0,6 C 1,2 C 3,2 km/h (1 Bft) 95,83 %
29.12.2016 01:26 1,2 C 96 % 1040,1 hPa 0,0 l/m 1,4 km/h (1 Bft) S-SO 162 0 min 0,000 mm 0,0 UV-I 0 W/m 0,6 C 1,2 C 3,2 km/h (1 Bft) 100,00 %
29.12.2016 01:28 1,2 C 96 % 1040,2 hPa 0,0 l/m 1,4 km/h (1 Bft) S-SO 162 0 min 0,000 mm 0,0 UV-I 0 W/m 0,6 C 1,2 C 3,2 km/h (1 Bft) 94,74 %
29.12.2016 01:30 1,2 C 96 % 1040,2 hPa 0,0 l/m 2,5 km/h (1 Bft) S-SO 162 0 min 0,000 mm 0,0 UV-I 0 W/m 0,6 C 1,2 C 6,4 km/h (2 Bft) 100,00 %
29.12.2016 01:32 1,2 C 96 % 1040,2 hPa 0,0 l/m 4,7 km/h (1 Bft) S-SO 162 0 min 0,000 mm 0,0 UV-I 0 W/m 0,6 C 1,2 C 6,4 km/h (2 Bft) 100,00 %
29.12.2016 01:34 1,2 C 96 % 1040,3 hPa 0,0 l/m 3,4 km/h (1 Bft) S-SO 163 0 min 0,000 mm 0,0 UV-I 0 W/m 0,6 C 1,2 C 6,4 km/h (2 Bft) 100,00 %
29.12.2016 01:36 1,2 C 96 % 1040,3 hPa 0,0 l/m 4,1 km/h (1 Bft) S-SO 163 0 min 0,000 mm 0,0 UV-I 0 W/m 0,6 C 1,2 C 6,4 km/h (2 Bft) 100,00 %
29.12.2016 01:38 1,2 C 96 % 1040,4 hPa 0,0 l/m 1,5 km/h (1 Bft) S-SO 163 0 min 0,000 mm 0,0 UV-I 0 W/m 0,6 C 1,2 C 6,4 km/h (2 Bft) 95,74 %
29.12.2016 01:40 1,2 C 96 % 1040,4 hPa 0,0 l/m 2,4 km/h (1 Bft) S-SO 163 0 min 0,000 mm 0,0 UV-I 0 W/m 0,6 C 1,2 C 6,4 km/h (2 Bft) 95,74 %
29.12.2016 01:42 1,2 C 96 % 1040,4 hPa 0,0 l/m 1,5 km/h (1 Bft) S-SO 163 0 min 0,000 mm 0,0 UV-I 0 W/m 0,6 C 1,2 C 3,2 km/h (1 Bft) 95,74 %
29.12.2016 01:44 1,2 C 96 % 1040,3 hPa 0,0 l/m 1,0 km/h (0 Bft) S-SO 163 0 min 0,000 mm 0,0 UV-I 0 W/m 0,6 C 1,2 C 3,2 km/h (1 Bft) 97,92 %
29.12.2016 01:46 1,2 C 96 % 1040,3 hPa 0,0 l/m 1,4 km/h (1 Bft) S-SO 163 0 min 0,000 mm 0,0 UV-I 0 W/m 0,6 C 1,2 C 3,2 km/h (1 Bft) 100,00 %
29.12.2016 01:48 1,3 C 96 % 1040,3 hPa 0,0 l/m 0,7 km/h (0 Bft) S-SO 163 0 min 0,000 mm 0,0 UV-I 0 W/m 0,7 C 1,3 C 1,6 km/h (1 Bft) 97,87 %
29.12.2016 01:50 1,3 C 96 % 1040,3 hPa 0,0 l/m 1,7 km/h (1 Bft) S-SO 163 0 min 0,000 mm 0,0 UV-I 0 W/m 0,7 C 1,3 C 3,2 km/h (1 Bft) 100,00 %
29.12.2016 01:52 1,3 C 96 % 1040,3 hPa 0,0 l/m 2,5 km/h (1 Bft) S-SO 163 0 min 0,000 mm 0,0 UV-I 0 W/m 0,7 C 1,3 C 3,2 km/h (1 Bft) 100,00 %
29.12.2016 01:54 1,3 C 96 % 1040,3 hPa 0,0 l/m 3,1 km/h (1 Bft) S-SO 164 0 min 0,000 mm 0,0 UV-I 0 W/m 0,7 C 1,3 C 6,4 km/h (2 Bft) 97,37 %
29.12.2016 01:56 1,3 C 96 % 1040,3 hPa 0,0 l/m 1,2 km/h (1 Bft) S-SO 164 0 min 0,000 mm 0,0 UV-I 0 W/m 0,7 C 1,3 C 3,2 km/h (1 Bft) 100,00 %
29.12.2016 01:58 1,3 C 96 % 1040,4 hPa 0,0 l/m 2,5 km/h (1 Bft) S-SO 164 0 min 0,000 mm 0,0 UV-I 0 W/m 0,7 C 1,3 C 6,4 km/h (2 Bft) 97,87 %
29.12.2016 02:00 1,3 C 96 % 1040,4 hPa 0,0 l/m 3,0 km/h (1 Bft) S-SO 164 0 min 0,000 mm 0,0 UV-I 0 W/m 0,7 C 1,3 C 6,4 km/h (2 Bft) 100,00 %
29.12.2016 02:02 1,3 C 96 % 1040,4 hPa 0,0 l/m 2,7 km/h (1 Bft) S-SO 164 0 min 0,000 mm 0,0 UV-I 0 W/m 0,7 C 1,3 C 3,2 km/h (1 Bft) 97,87 %
29.12.2016 02:04 1,3 C 96 % 1040,4 hPa 0,0 l/m 2,0 km/h (1 Bft) S-SO 164 0 min 0,000 mm 0,0 UV-I 0 W/m 0,7 C 1,3 C 3,2 km/h (1 Bft) 100,00 %
29.12.2016 02:06 1,3 C 96 % 1040,4 hPa 0,0 l/m 1,9 km/h (1 Bft) S-SO 164 0 min 0,000 mm 0,0 UV-I 0 W/m 0,7 C 1,3 C 3,2 km/h (1 Bft) 100,00 %
29.12.2016 02:08 1,3 C 96 % 1040,4 hPa 0,0 l/m 2,4 km/h (1 Bft) S-SO 164 0 min 0,000 mm 0,0 UV-I 0 W/m 0,7 C 1,3 C 3,2 km/h (1 Bft) 100,00 %
29.12.2016 02:10 1,3 C 96 % 1040,4 hPa 0,0 l/m 2,5 km/h (1 Bft) S-SO 164 0 min 0,000 mm 0,0 UV-I 0 W/m 0,7 C 1,3 C 3,2 km/h (1 Bft) 98,00 %
29.12.2016 02:12 1,4 C 96 % 1040,4 hPa 0,0 l/m 1,5 km/h (1 Bft) S-SO 164 0 min 0,000 mm 0,0 UV-I 0 W/m 0,8 C 1,4 C 3,2 km/h (1 Bft) 100,00 %
29.12.2016 02:14 1,4 C 96 % 1040,4 hPa 0,0 l/m 2,5 km/h (1 Bft) S-SO 164 0 min 0,000 mm 0,0 UV-I 0 W/m 0,8 C 1,4 C 3,2 km/h (1 Bft) 95,74 %
29.12.2016 02:16 1,4 C 96 % 1040,4 hPa 0,0 l/m 2,7 km/h (1 Bft) S-SO 164 0 min 0,000 mm 0,0 UV-I 0 W/m 0,8 C 1,4 C 3,2 km/h (1 Bft) 100,00 %
29.12.2016 02:18 1,4 C 96 % 1040,4 hPa 0,0 l/m 2,9 km/h (1 Bft) S-SO 164 0 min 0,000 mm 0,0 UV-I 0 W/m 0,8 C 1,4 C 6,4 km/h (2 Bft) 97,37 %
29.12.2016 02:20 1,4 C 96 % 1040,4 hPa 0,0 l/m 2,6 km/h (1 Bft) S-SO 164 0 min 0,000 mm 0,0 UV-I 0 W/m 0,8 C 1,4 C 6,4 km/h (2 Bft) 100,00 %
29.12.2016 02:22 1,4 C 96 % 1040,4 hPa 0,0 l/m 1,5 km/h (1 Bft) S-SO 164 0 min 0,000 mm 0,0 UV-I 0 W/m 0,8 C 1,4 C 3,2 km/h (1 Bft) 97,92 %
29.12.2016 02:24 1,4 C 96 % 1040,3 hPa 0,0 l/m 2,0 km/h (1 Bft) S-SO 164 0 min 0,000 mm 0,0 UV-I 0 W/m 0,8 C 1,4 C 3,2 km/h (1 Bft) 98,00 %
29.12.2016 02:26 1,4 C 96 % 1040,3 hPa 0,0 l/m 1,4 km/h (1 Bft) S-SO 164 0 min 0,000 mm 0,0 UV-I 0 W/m 0,8 C 1,4 C 3,2 km/h (1 Bft) 100,00 %
29.12.2016 02:28 1,4 C 96 % 1040,3 hPa 0,0 l/m 3,0 km/h (1 Bft) S-SO 164 0 min 0,000 mm 0,0 UV-I 0 W/m 0,8 C 1,4 C 6,4 km/h (2 Bft) 100,00 %
29.12.2016 02:30 1,4 C 96 % 1040,4 hPa 0,0 l/m 3,1 km/h (1 Bft) S-SO 164 0 min 0,000 mm 0,0 UV-I 0 W/m 0,8 C 1,4 C 6,4 km/h (2 Bft) 95,74 %
29.12.2016 02:32 1,4 C 96 % 1040,4 hPa 0,0 l/m 3,7 km/h (1 Bft) S-SO 164 0 min 0,000 mm 0,0 UV-I 0 W/m 0,8 C 1,4 C 6,4 km/h (2 Bft) 95,74 %
29.12.2016 02:34 1,4 C 96 % 1040,4 hPa 0,0 l/m 1,5 km/h (1 Bft) S-SO 164 0 min 0,000 mm 0,0 UV-I 0 W/m 0,8 C 1,4 C 3,2 km/h (1 Bft) 95,74 %
29.12.2016 02:36 1,5 C 96 % 1040,4 hPa 0,0 l/m 1,2 km/h (1 Bft) S-SO 164 0 min 0,000 mm 0,0 UV-I 0 W/m 0,9 C 1,5 C 3,2 km/h (1 Bft) 95,74 %
29.12.2016 02:38 1,4 C 96 % 1040,4 hPa 0,0 l/m 1,1 km/h (1 Bft) S-SO 164 0 min 0,000 mm 0,0 UV-I 0 W/m 0,8 C 1,4 C 3,2 km/h (1 Bft) 93,62 %
29.12.2016 02:40 1,5 C 96 % 1040,4 hPa 0,0 l/m 1,5 km/h (1 Bft) S-SO 164 0 min 0,000 mm 0,0 UV-I 0 W/m 0,9 C 1,5 C 3,2 km/h (1 Bft) 97,87 %
29.12.2016 02:42 1,5 C 96 % 1040,4 hPa 0,0 l/m 3,0 km/h (1 Bft) S-SO 164 0 min 0,000 mm 0,0 UV-I 0 W/m 0,9 C 1,5 C 6,4 km/h (2 Bft) 97,87 %
29.12.2016 02:44 1,5 C 96 % 1040,4 hPa 0,0 l/m 2,4 km/h (1 Bft) S-SO 164 0 min 0,000 mm 0,0 UV-I 0 W/m 0,9 C 1,5 C 6,4 km/h (2 Bft) 95,74 %
29.12.2016 02:46 1,5 C 96 % 1040,4 hPa 0,0 l/m 2,1 km/h (1 Bft) S-SO 164 0 min 0,000 mm 0,0 UV-I 0 W/m 0,9 C 1,5 C 3,2 km/h (1 Bft) 97,87 %
29.12.2016 02:48 1,5 C 96 % 1040,3 hPa 0,0 l/m 1,6 km/h (1 Bft) S-SO 164 0 min 0,000 mm 0,0 UV-I 0 W/m 0,9 C 1,5 C 3,2 km/h (1 Bft) 97,87 %
29.12.2016 02:50 1,5 C 96 % 1040,3 hPa 0,0 l/m 2,9 km/h (1 Bft) S-SO 164 0 min 0,000 mm 0,0 UV-I 0 W/m 0,9 C 1,5 C 6,4 km/h (2 Bft) 93,62 %
29.12.2016 02:52 1,5 C 96 % 1040,3 hPa 0,0 l/m 3,1 km/h (1 Bft) S-SO 164 0 min 0,000 mm 0,0 UV-I 0 W/m 0,9 C 1,5 C 6,4 km/h (2 Bft) 97,87 %
29.12.2016 02:54 1,5 C 96 % 1040,2 hPa 0,0 l/m 5,0 km/h (1 Bft) S 175 0 min 0,000 mm 0,0 UV-I 0 W/m 0,9 C 1,5 C 6,4 km/h (2 Bft) 93,62 %
29.12.2016 02:56 1,5 C 96 % 1040,2 hPa 0,0 l/m 4,4 km/h (1 Bft) S-SW 192 0 min 0,000 mm 0,0 UV-I 0 W/m 0,9 C 1,5 C 4,8 km/h (1 Bft) 97,56 %
29.12.2016 02:58 1,6 C 96 % 1040,2 hPa 0,0 l/m 3,9 km/h (1 Bft) S-SW 192 0 min 0,000 mm 0,0 UV-I 0 W/m 1,0 C 1,6 C 4,8 km/h (1 Bft) 97,87 %
29.12.2016 03:00 1,5 C 96 % 1040,2 hPa 0,0 l/m 4,4 km/h (1 Bft) S-SW 192 0 min 0,000 mm 0,0 UV-I 0 W/m 0,9 C 1,5 C 6,4 km/h (2 Bft) 97,87 %
29.12.2016 03:02 1,5 C 96 % 1040,2 hPa 0,0 l/m 4,9 km/h (1 Bft) S-SW 205 0 min 0,000 mm 0,0 UV-I 0 W/m 0,9 C 1,5 C 8,0 km/h (2 Bft) 97,92 %
29.12.2016 03:04 1,5 C 96 % 1040,1 hPa 0,0 l/m 5,4 km/h (1 Bft) SW 214 0 min 0,000 mm 0,0 UV-I 0 W/m 0,9 C 1,5 C 8,0 km/h (2 Bft) 95,74 %
29.12.2016 03:06 1,5 C 96 % 1040,1 hPa 0,0 l/m 5,9 km/h (2 Bft) S-SW 212 0 min 0,000 mm 0,0 UV-I 0 W/m 0,9 C 1,5 C 8,0 km/h (2 Bft) 95,74 %
29.12.2016 03:08 1,5 C 96 % 1040,1 hPa 0,0 l/m 4,2 km/h (1 Bft) S-SW 199 0 min 0,000 mm 0,0 UV-I 0 W/m 0,9 C 1,5 C 6,4 km/h (2 Bft) 100,00 %
29.12.2016 03:10 1,5 C 96 % 1040,1 hPa 0,0 l/m 6,0 km/h (2 Bft) S-SW 200 0 min 0,000 mm 0,0 UV-I 0 W/m 0,9 C 1,5 C 8,0 km/h (2 Bft) 100,00 %
29.12.2016 03:12 1,5 C 96 % 1040,1 hPa 0,0 l/m 4,6 km/h (1 Bft) S-SW 204 0 min 0,000 mm 0,0 UV-I 0 W/m 0,9 C 1,5 C 8,0 km/h (2 Bft) 97,87 %
29.12.2016 03:14 1,5 C 96 % 1040,1 hPa 0,0 l/m 3,8 km/h (1 Bft) S-SW 204 0 min 0,000 mm 0,0 UV-I 0 W/m 0,9 C 1,5 C 6,4 km/h (2 Bft) 100,00 %
29.12.2016 03:16 1,5 C 96 % 1040,2 hPa 0,0 l/m 2,8 km/h (1 Bft) S-SW 204 0 min 0,000 mm 0,0 UV-I 0 W/m 0,9 C 1,5 C 4,8 km/h (1 Bft) 97,87 %
29.12.2016 03:18 1,5 C 96 % 1040,3 hPa 0,0 l/m 1,9 km/h (1 Bft) S-SW 204 0 min 0,000 mm 0,0 UV-I 0 W/m 0,9 C 1,5 C 3,2 km/h (1 Bft) 97,87 %
29.12.2016 03:20 1,5 C 96 % 1040,3 hPa 0,0 l/m 1,6 km/h (1 Bft) S-SW 204 0 min 0,000 mm 0,0 UV-I 0 W/m 0,9 C 1,5 C 3,2 km/h (1 Bft) 100,00 %
29.12.2016 03:22 1,5 C 96 % 1040,3 hPa 0,0 l/m 0,8 km/h (0 Bft) S-SW 204 0 min 0,000 mm 0,0 UV-I 0 W/m 0,9 C 1,5 C 1,6 km/h (1 Bft) 100,00 %
29.12.2016 03:24 1,5 C 96 % 1040,3 hPa 0,0 l/m 0,3 km/h (0 Bft) S-SW 204 0 min 0,000 mm 0,0 UV-I 0 W/m 0,9 C 1,5 C 1,6 km/h (1 Bft) 95,74 %
29.12.2016 03:26 1,5 C 96 % 1040,2 hPa 0,0 l/m 1,3 km/h (1 Bft) S-SW 204 0 min 0,000 mm 0,0 UV-I 0 W/m 0,9 C 1,5 C 3,2 km/h (1 Bft) 100,00 %
29.12.2016 03:28 1,5 C 96 % 1040,2 hPa 0,0 l/m 2,1 km/h (1 Bft) S-SW 204 0 min 0,000 mm 0,0 UV-I 0 W/m 0,9 C 1,5 C 3,2 km/h (1 Bft) 100,00 %
29.12.2016 03:30 1,5 C 96 % 1040,2 hPa 0,0 l/m 1,0 km/h (0 Bft) S-SW 204 0 min 0,000 mm 0,0 UV-I 0 W/m 0,9 C 1,5 C 3,2 km/h (1 Bft) 97,87 %
29.12.2016 03:32 1,5 C 96 % 1040,2 hPa 0,0 l/m 1,4 km/h (1 Bft) S-SW 204 0 min 0,000 mm 0,0 UV-I 0 W/m 0,9 C 1,5 C 3,2 km/h (1 Bft) 100,00 %
29.12.2016 03:34 1,4 C 96 % 1040,3 hPa 0,0 l/m 1,6 km/h (1 Bft) S-SW 204 0 min 0,000 mm 0,0 UV-I 0 W/m 0,8 C 1,4 C 3,2 km/h (1 Bft) 100,00 %
29.12.2016 03:36 1,4 C 96 % 1040,3 hPa 0,0 l/m 2,1 km/h (1 Bft) S-SW 204 0 min 0,000 mm 0,0 UV-I 0 W/m 0,8 C 1,4 C 4,8 km/h (1 Bft) 100,00 %
29.12.2016 03:38 1,4 C 96 % 1040,3 hPa 0,0 l/m 3,2 km/h (1 Bft) S-SW 204 0 min 0,000 mm 0,0 UV-I 0 W/m 0,8 C 1,4 C 4,8 km/h (1 Bft) 100,00 %
29.12.2016 03:40 1,4 C 96 % 1040,3 hPa 0,0 l/m 2,5 km/h (1 Bft) S-SW 204 0 min 0,000 mm 0,0 UV-I 0 W/m 0,8 C 1,4 C 3,2 km/h (1 Bft) 100,00 %
29.12.2016 03:42 1,4 C 96 % 1040,3 hPa 0,0 l/m 2,0 km/h (1 Bft) S-SW 204 0 min 0,000 mm 0,0 UV-I 0 W/m 0,8 C 1,4 C 4,8 km/h (1 Bft) 97,87 %
29.12.2016 03:44 1,4 C 96 % 1040,3 hPa 0,0 l/m 1,5 km/h (1 Bft) S-SW 204 0 min 0,000 mm 0,0 UV-I 0 W/m 0,8 C 1,4 C 4,8 km/h (1 Bft) 95,74 %
29.12.2016 03:46 1,4 C 96 % 1040,3 hPa 0,0 l/m 0,9 km/h (0 Bft) S-SW 204 0 min 0,000 mm 0,0 UV-I 0 W/m 0,8 C 1,4 C 3,2 km/h (1 Bft) 100,00 %
29.12.2016 03:48 1,4 C 96 % 1040,3 hPa 0,0 l/m 2,5 km/h (1 Bft) S-SW 204 0 min 0,000 mm 0,0 UV-I 0 W/m 0,8 C 1,4 C 4,8 km/h (1 Bft) 97,87 %
29.12.2016 03:50 1,4 C 96 % 1040,3 hPa 0,0 l/m 2,6 km/h (1 Bft) S-SW 204 0 min 0,000 mm 0,0 UV-I 0 W/m 0,8 C 1,4 C 4,8 km/h (1 Bft) 97,87 %
29.12.2016 03:52 1,4 C 96 % 1040,2 hPa 0,0 l/m 2,3 km/h (1 Bft) S-SW 204 0 min 0,000 mm 0,0 UV-I 0 W/m 0,8 C 1,4 C 4,8 km/h (1 Bft) 100,00 %
29.12.2016 03:54 1,4 C 96 % 1040,2 hPa 0,0 l/m 2,1 km/h (1 Bft) S-SW 204 0 min 0,000 mm 0,0 UV-I 0 W/m 0,8 C 1,4 C 4,8 km/h (1 Bft) 100,00 %
29.12.2016 03:56 1,3 C 96 % 1040,2 hPa 0,0 l/m 2,5 km/h (1 Bft) S-SW 204 0 min 0,000 mm 0,0 UV-I 0 W/m 0,7 C 1,3 C 4,8 km/h (1 Bft) 97,87 %
29.12.2016 03:58 1,3 C 96 % 1040,2 hPa 0,0 l/m 3,3 km/h (1 Bft) S-SW 204 0 min 0,000 mm 0,0 UV-I 0 W/m 0,7 C 1,3 C 4,8 km/h (1 Bft) 98,00 %
29.12.2016 04:00 1,3 C 96 % 1040,2 hPa 0,0 l/m 3,3 km/h (1 Bft) S-SW 201 0 min 0,000 mm 0,0 UV-I 0 W/m 0,7 C 1,3 C 6,4 km/h (2 Bft) 100,00 %
29.12.2016 04:02 1,3 C 96 % 1040,2 hPa 0,0 l/m 3,0 km/h (1 Bft) S-SW 201 0 min 0,000 mm 0,0 UV-I 0 W/m 0,7 C 1,3 C 6,4 km/h (2 Bft) 100,00 %
29.12.2016 04:04 1,3 C 96 % 1040,1 hPa 0,0 l/m 3,4 km/h (1 Bft) S-SW 201 0 min 0,000 mm 0,0 UV-I 0 W/m 0,7 C 1,3 C 4,8 km/h (1 Bft) 100,00 %
29.12.2016 04:06 1,3 C 96 % 1040,1 hPa 0,0 l/m 4,0 km/h (1 Bft) S-SW 201 0 min 0,000 mm 0,0 UV-I 0 W/m 0,7 C 1,3 C 4,8 km/h (1 Bft) 97,87 %
29.12.2016 04:08 1,2 C 96 % 1040,2 hPa 0,0 l/m 4,3 km/h (1 Bft) S-SW 201 0 min 0,000 mm 0,0 UV-I 0 W/m 0,6 C 1,2 C 6,4 km/h (2 Bft) 97,87 %
29.12.2016 04:10 1,2 C 96 % 1040,2 hPa 0,0 l/m 5,5 km/h (1 Bft) S-SW 202 0 min 0,000 mm 0,0 UV-I 0 W/m 0,6 C 1,2 C 8,0 km/h (2 Bft) 97,87 %
29.12.2016 04:12 1,2 C 96 % 1040,1 hPa 0,0 l/m 4,7 km/h (1 Bft) S-SW 202 0 min 0,000 mm 0,0 UV-I 0 W/m 0,6 C 1,2 C 6,4 km/h (2 Bft) 100,00 %
29.12.2016 04:14 1,2 C 96 % 1040,2 hPa 0,0 l/m 5,9 km/h (2 Bft) S-SW 204 0 min 0,000 mm 0,0 UV-I 0 W/m 0,6 C 1,2 C 8,0 km/h (2 Bft) 100,00 %
29.12.2016 04:16 1,2 C 96 % 1040,2 hPa 0,0 l/m 4,9 km/h (1 Bft) S-SW 205 0 min 0,000 mm 0,0 UV-I 0 W/m 0,6 C 1,2 C 8,0 km/h (2 Bft) 100,00 %
29.12.2016 04:18 1,1 C 96 % 1040,2 hPa 0,0 l/m 4,9 km/h (1 Bft) S-SW 209 0 min 0,000 mm 0,0 UV-I 0 W/m 0,5 C 1,1 C 6,4 km/h (2 Bft) 100,00 %
29.12.2016 04:20 1,1 C 96 % 1040,2 hPa 0,0 l/m 4,7 km/h (1 Bft) S-SW 212 0 min 0,000 mm 0,0 UV-I 0 W/m 0,5 C 1,1 C 8,0 km/h (2 Bft) 100,00 %
29.12.2016 04:22 1,1 C 96 % 1040,2 hPa 0,0 l/m 4,2 km/h (1 Bft) S-SW 212 0 min 0,000 mm 0,0 UV-I 0 W/m 0,5 C 1,1 C 6,4 km/h (2 Bft) 100,00 %
29.12.2016 04:24 1,1 C 96 % 1040,1 hPa 0,0 l/m 3,9 km/h (1 Bft) S-SW 212 0 min 0,000 mm 0,0 UV-I 0 W/m 0,5 C 1,1 C 6,4 km/h (2 Bft) 100,00 %
29.12.2016 04:26 1,1 C 96 % 1040,1 hPa 0,0 l/m 4,2 km/h (1 Bft) S-SW 212 0 min 0,000 mm 0,0 UV-I 0 W/m 0,5 C 1,1 C 6,4 km/h (2 Bft) 97,87 %
29.12.2016 04:28 1,1 C 96 % 1040,2 hPa 0,0 l/m 4,4 km/h (1 Bft) S-SW 212 0 min 0,000 mm 0,0 UV-I 0 W/m 0,5 C 1,1 C 6,4 km/h (2 Bft) 100,00 %
29.12.2016 04:30 1,0 C 96 % 1040,2 hPa 0,0 l/m 3,7 km/h (1 Bft) S-SW 212 0 min 0,000 mm 0,0 UV-I 0 W/m 0,4 C 1,0 C 4,8 km/h (1 Bft) 97,87 %
29.12.2016 04:32 1,0 C 96 % 1040,1 hPa 0,0 l/m 4,2 km/h (1 Bft) S-SW 212 0 min 0,000 mm 0,0 UV-I 0 W/m 0,4 C 1,0 C 4,8 km/h (1 Bft) 96,00 %
29.12.2016 04:34 1,0 C 96 % 1040,1 hPa 0,0 l/m 4,6 km/h (1 Bft) S-SW 212 0 min 0,000 mm 0,0 UV-I 0 W/m 0,4 C 1,0 C 6,4 km/h (2 Bft) 100,00 %
29.12.2016 04:36 0,9 C 96 % 1040,1 hPa 0,0 l/m 4,9 km/h (1 Bft) S-SW 212 0 min 0,000 mm 0,0 UV-I 0 W/m 0,3 C 0,9 C 6,4 km/h (2 Bft) 100,00 %
29.12.2016 04:38 0,9 C 96 % 1040,1 hPa 0,0 l/m 5,6 km/h (1 Bft) S-SW 211 0 min 0,000 mm 0,0 UV-I 0 W/m 0,3 C 0,9 C 8,0 km/h (2 Bft) 96,23 %
29.12.2016 04:40 0,9 C 96 % 1040,1 hPa 0,0 l/m 4,6 km/h (1 Bft) S-SW 211 0 min 0,000 mm 0,0 UV-I 0 W/m 0,3 C 0,9 C 6,4 km/h (2 Bft) 96,00 %
29.12.2016 04:42 0,9 C 96 % 1040,1 hPa 0,0 l/m 4,9 km/h (1 Bft) S-SW 211 0 min 0,000 mm 0,0 UV-I 0 W/m 0,3 C 0,9 C 6,4 km/h (2 Bft) 97,87 %
29.12.2016 04:44 0,9 C 96 % 1040,1 hPa 0,0 l/m 4,8 km/h (1 Bft) S-SW 211 0 min 0,000 mm 0,0 UV-I 0 W/m 0,3 C 0,9 C 6,4 km/h (2 Bft) 95,83 %
29.12.2016 04:46 0,9 C 96 % 1040,2 hPa 0,0 l/m 3,6 km/h (1 Bft) S-SW 211 0 min 0,000 mm 0,0 UV-I 0 W/m 0,3 C 0,9 C 6,4 km/h (2 Bft) 97,87 %
29.12.2016 04:48 0,8 C 96 % 1040,1 hPa 0,0 l/m 4,2 km/h (1 Bft) S-SW 211 0 min 0,000 mm 0,0 UV-I 0 W/m 0,2 C 0,8 C 6,4 km/h (2 Bft) 94,29 %
29.12.2016 04:50 0,8 C 96 % 1040,2 hPa 0,0 l/m 4,4 km/h (1 Bft) S-SW 211 0 min 0,000 mm 0,0 UV-I 0 W/m 0,2 C 0,8 C 6,4 km/h (2 Bft) 98,00 %
29.12.2016 04:52 0,8 C 96 % 1040,2 hPa 0,0 l/m 3,9 km/h (1 Bft) S-SW 211 0 min 0,000 mm 0,0 UV-I 0 W/m 0,2 C 0,8 C 6,4 km/h (2 Bft) 95,74 %
29.12.2016 04:54 0,8 C 96 % 1040,2 hPa 0,0 l/m 2,9 km/h (1 Bft) S-SW 211 0 min 0,000 mm 0,0 UV-I 0 W/m 0,2 C 0,8 C 4,8 km/h (1 Bft) 98,00 %
29.12.2016 04:56 0,8 C 96 % 1040,2 hPa 0,0 l/m 1,5 km/h (1 Bft) S-SW 211 0 min 0,000 mm 0,0 UV-I 0 W/m 0,2 C 0,8 C 3,2 km/h (1 Bft) 95,74 %
29.12.2016 04:58 0,8 C 96 % 1040,2 hPa 0,0 l/m 2,1 km/h (1 Bft) S-SW 211 0 min 0,000 mm 0,0 UV-I 0 W/m 0,2 C 0,8 C 3,2 km/h (1 Bft) 97,87 %
29.12.2016 05:00 0,7 C 96 % 1040,2 hPa 0,0 l/m 4,4 km/h (1 Bft) S-SW 211 0 min 0,000 mm 0,0 UV-I 0 W/m 0,1 C 0,7 C 6,4 km/h (2 Bft) 97,87 %
29.12.2016 05:02 0,7 C 96 % 1040,2 hPa 0,0 l/m 3,2 km/h (1 Bft) S-SW 211 0 min 0,000 mm 0,0 UV-I 0 W/m 0,1 C 0,7 C 4,8 km/h (1 Bft) 98,00 %
29.12.2016 05:04 0,7 C 96 % 1040,2 hPa 0,0 l/m 3,1 km/h (1 Bft) S-SW 211 0 min 0,000 mm 0,0 UV-I 0 W/m 0,1 C 0,7 C 4,8 km/h (1 Bft) 93,75 %
29.12.2016 05:06 0,7 C 96 % 1040,2 hPa 0,0 l/m 4,5 km/h (1 Bft) S-SW 211 0 min 0,000 mm 0,0 UV-I 0 W/m 0,1 C 0,7 C 6,4 km/h (2 Bft) 95,74 %
29.12.2016 05:08 0,7 C 96 % 1040,2 hPa 0,0 l/m 5,5 km/h (1 Bft) S-SW 211 0 min 0,000 mm 0,0 UV-I 0 W/m 0,1 C 0,7 C 8,0 km/h (2 Bft) 97,30 %
29.12.2016 05:10 0,7 C 96 % 1040,2 hPa 0,0 l/m 4,4 km/h (1 Bft) S-SW 211 0 min 0,000 mm 0,0 UV-I 0 W/m 0,1 C 0,7 C 6,4 km/h (2 Bft) 98,00 %
29.12.2016 05:12 0,6 C 96 % 1040,2 hPa 0,0 l/m 4,0 km/h (1 Bft) S-SW 211 0 min 0,000 mm 0,0 UV-I 0 W/m 0,0 C 0,6 C 6,4 km/h (2 Bft) 97,87 %
29.12.2016 05:14 0,7 C 96 % 1040,2 hPa 0,0 l/m 4,2 km/h (1 Bft) S-SW 211 0 min 0,000 mm 0,0 UV-I 0 W/m 0,1 C 0,7 C 6,4 km/h (2 Bft) 95,74 %
29.12.2016 05:16 0,6 C 96 % 1040,3 hPa 0,0 l/m 4,3 km/h (1 Bft) S-SW 211 0 min 0,000 mm 0,0 UV-I 0 W/m 0,0 C 0,6 C 6,4 km/h (2 Bft) 100,00 %
29.12.2016 05:18 0,6 C 96 % 1040,3 hPa 0,0 l/m 3,8 km/h (1 Bft) S-SW 211 0 min 0,000 mm 0,0 UV-I 0 W/m 0,0 C 0,6 C 6,4 km/h (2 Bft) 100,00 %
29.12.2016 05:20 0,6 C 96 % 1040,3 hPa 0,0 l/m 3,3 km/h (1 Bft) S-SW 211 0 min 0,000 mm 0,0 UV-I 0 W/m 0,0 C 0,6 C 6,4 km/h (2 Bft) 100,00 %
29.12.2016 05:22 0,6 C 96 % 1040,4 hPa 0,0 l/m 3,0 km/h (1 Bft) S-SW 211 0 min 0,000 mm 0,0 UV-I 0 W/m 0,0 C 0,6 C 4,8 km/h (1 Bft) 100,00 %
29.12.2016 05:24 0,6 C 96 % 1040,4 hPa 0,0 l/m 1,8 km/h (1 Bft) S-SW 211 0 min 0,000 mm 0,0 UV-I 0 W/m 0,0 C 0,6 C 3,2 km/h (1 Bft) 97,87 %
29.12.2016 05:26 0,6 C 96 % 1040,4 hPa 0,0 l/m 2,3 km/h (1 Bft) S-SW 211 0 min 0,000 mm 0,0 UV-I 0 W/m 0,0 C 0,6 C 4,8 km/h (1 Bft) 100,00 %
29.12.2016 05:28 0,6 C 96 % 1040,4 hPa 0,0 l/m 3,9 km/h (1 Bft) S-SW 211 0 min 0,000 mm 0,0 UV-I 0 W/m 0,0 C 0,6 C 6,4 km/h (2 Bft) 97,96 %
29.12.2016 05:30 0,6 C 96 % 1040,3 hPa 0,0 l/m 3,5 km/h (1 Bft) S-SW 211 0 min 0,000 mm 0,0 UV-I 0 W/m 0,0 C 0,6 C 4,8 km/h (1 Bft) 100,00 %
29.12.2016 05:32 0,6 C 96 % 1040,3 hPa 0,0 l/m 3,4 km/h (1 Bft) S-SW 211 0 min 0,000 mm 0,0 UV-I 0 W/m 0,0 C 0,6 C 4,8 km/h (1 Bft) 95,74 %
29.12.2016 05:34 0,6 C 96 % 1040,3 hPa 0,0 l/m 1,8 km/h (1 Bft) S-SW 211 0 min 0,000 mm 0,0 UV-I 0 W/m 0,0 C 0,6 C 3,2 km/h (1 Bft) 100,00 %
29.12.2016 05:36 0,6 C 96 % 1040,4 hPa 0,0 l/m 2,7 km/h (1 Bft) S-SW 211 0 min 0,000 mm 0,0 UV-I 0 W/m 0,0 C 0,6 C 4,8 km/h (1 Bft) 95,74 %
29.12.2016 05:38 0,6 C 96 % 1040,3 hPa 0,0 l/m 2,7 km/h (1 Bft) S-SW 211 0 min 0,000 mm 0,0 UV-I 0 W/m 0,0 C 0,6 C 4,8 km/h (1 Bft) 100,00 %
29.12.2016 05:40 0,5 C 96 % 1040,4 hPa 0,0 l/m 2,4 km/h (1 Bft) S-SW 211 0 min 0,000 mm 0,0 UV-I 0 W/m -0,1 C 0,5 C 4,8 km/h (1 Bft) 97,87 %
29.12.2016 05:42 0,5 C 96 % 1040,4 hPa 0,0 l/m 1,8 km/h (1 Bft) S-SW 211 0 min 0,000 mm 0,0 UV-I 0 W/m -0,1 C 0,5 C 3,2 km/h (1 Bft) 100,00 %
29.12.2016 05:44 0,5 C 96 % 1040,4 hPa 0,0 l/m 2,2 km/h (1 Bft) S-SW 211 0 min 0,000 mm 0,0 UV-I 0 W/m -0,1 C 0,5 C 4,8 km/h (1 Bft) 97,92 %
29.12.2016 05:46 0,5 C 96 % 1040,4 hPa 0,0 l/m 1,5 km/h (1 Bft) S-SW 211 0 min 0,000 mm 0,0 UV-I 0 W/m -0,1 C 0,5 C 3,2 km/h (1 Bft) 100,00 %
29.12.2016 05:48 0,5 C 96 % 1040,4 hPa 0,0 l/m 1,0 km/h (0 Bft) S-SW 211 0 min 0,000 mm 0,0 UV-I 0 W/m -0,1 C 0,5 C 3,2 km/h (1 Bft) 100,00 %
29.12.2016 05:50 0,5 C 96 % 1040,6 hPa 0,0 l/m 1,1 km/h (1 Bft) S-SW 211 0 min 0,000 mm 0,0 UV-I 0 W/m -0,1 C 0,5 C 3,2 km/h (1 Bft) 100,00 %
29.12.2016 05:52 0,4 C 96 % 1040,5 hPa 0,0 l/m 3,1 km/h (1 Bft) S-SW 211 0 min 0,000 mm 0,0 UV-I 0 W/m -0,2 C 0,4 C 4,8 km/h (1 Bft) 100,00 %
29.12.2016 05:54 0,4 C 96 % 1040,6 hPa 0,0 l/m 3,2 km/h (1 Bft) S-SW 211 0 min 0,000 mm 0,0 UV-I 0 W/m -0,2 C 0,4 C 4,8 km/h (1 Bft) 97,87 %
29.12.2016 05:56 0,4 C 96 % 1040,6 hPa 0,0 l/m 4,4 km/h (1 Bft) S-SW 211 0 min 0,000 mm 0,0 UV-I 0 W/m -0,2 C 0,4 C 6,4 km/h (2 Bft) 97,87 %
29.12.2016 05:58 0,4 C 96 % 1040,5 hPa 0,0 l/m 4,3 km/h (1 Bft) S-SW 211 0 min 0,000 mm 0,0 UV-I 0 W/m -0,2 C 0,4 C 6,4 km/h (2 Bft) 100,00 %
29.12.2016 06:00 0,4 C 96 % 1040,5 hPa 0,0 l/m 3,8 km/h (1 Bft) S-SW 211 0 min 0,000 mm 0,0 UV-I 0 W/m -0,2 C 0,4 C 6,4 km/h (2 Bft) 100,00 %
29.12.2016 06:02 0,4 C 96 % 1040,6 hPa 0,0 l/m 3,9 km/h (1 Bft) S-SW 211 0 min 0,000 mm 0,0 UV-I 0 W/m -0,2 C 0,4 C 4,8 km/h (1 Bft) 100,00 %
29.12.2016 06:04 0,3 C 96 % 1040,6 hPa 0,0 l/m 3,5 km/h (1 Bft) S-SW 211 0 min 0,000 mm 0,0 UV-I 0 W/m -0,3 C 0,3 C 4,8 km/h (1 Bft) 98,00 %
29.12.2016 06:06 0,3 C 96 % 1040,6 hPa 0,0 l/m 3,2 km/h (1 Bft) S-SW 211 0 min 0,000 mm 0,0 UV-I 0 W/m -0,3 C 0,3 C 4,8 km/h (1 Bft) 97,87 %
29.12.2016 06:08 0,3 C 96 % 1040,6 hPa 0,0 l/m 2,6 km/h (1 Bft) S-SW 211 0 min 0,000 mm 0,0 UV-I 0 W/m -0,3 C 0,3 C 4,8 km/h (1 Bft) 100,00 %
29.12.2016 06:10 0,3 C 96 % 1040,6 hPa 0,0 l/m 1,5 km/h (1 Bft) S-SW 211 0 min 0,000 mm 0,0 UV-I 0 W/m -0,3 C 0,3 C 3,2 km/h (1 Bft) 100,00 %
29.12.2016 06:12 0,3 C 96 % 1040,6 hPa 0,0 l/m 0,7 km/h (0 Bft) S-SW 211 0 min 0,000 mm 0,0 UV-I 0 W/m -0,3 C 0,3 C 3,2 km/h (1 Bft) 100,00 %
29.12.2016 06:14 0,3 C 96 % 1040,6 hPa 0,0 l/m 2,4 km/h (1 Bft) S-SW 211 0 min 0,000 mm 0,0 UV-I 0 W/m -0,3 C 0,3 C 3,2 km/h (1 Bft) 97,87 %
29.12.2016 06:16 0,3 C 96 % 1040,6 hPa 0,0 l/m 2,2 km/h (1 Bft) S-SW 211 0 min 0,000 mm 0,0 UV-I 0 W/m -0,3 C 0,3 C 3,2 km/h (1 Bft) 100,00 %
29.12.2016 06:18 0,2 C 96 % 1040,5 hPa 0,0 l/m 2,4 km/h (1 Bft) S-SW 211 0 min 0,000 mm 0,0 UV-I 0 W/m -0,4 C 0,2 C 4,8 km/h (1 Bft) 100,00 %
29.12.2016 06:20 0,2 C 96 % 1040,6 hPa 0,0 l/m 3,8 km/h (1 Bft) S-SW 211 0 min 0,000 mm 0,0 UV-I 0 W/m -0,4 C 0,2 C 4,8 km/h (1 Bft) 100,00 %
29.12.2016 06:22 0,2 C 96 % 1040,6 hPa 0,0 l/m 3,8 km/h (1 Bft) S-SW 211 0 min 0,000 mm 0,0 UV-I 0 W/m -0,4 C 0,2 C 4,8 km/h (1 Bft) 100,00 %
29.12.2016 06:24 0,2 C 96 % 1040,6 hPa 0,0 l/m 1,7 km/h (1 Bft) S-SW 211 0 min 0,000 mm 0,0 UV-I 0 W/m -0,4 C 0,2 C 4,8 km/h (1 Bft) 100,00 %
29.12.2016 06:26 0,2 C 96 % 1040,7 hPa 0,0 l/m 1,5 km/h (1 Bft) S-SW 211 0 min 0,000 mm 0,0 UV-I 0 W/m -0,4 C 0,2 C 3,2 km/h (1 Bft) 100,00 %
29.12.2016 06:28 0,2 C 96 % 1040,7 hPa 0,0 l/m 1,4 km/h (1 Bft) S-SW 211 0 min 0,000 mm 0,0 UV-I 0 W/m -0,4 C 0,2 C 3,2 km/h (1 Bft) 97,22 %
29.12.2016 06:30 0,1 C 96 % 1040,7 hPa 0,0 l/m 0,6 km/h (0 Bft) S-SW 211 0 min 0,000 mm 0,0 UV-I 0 W/m -0,5 C 0,1 C 1,6 km/h (1 Bft) 100,00 %
29.12.2016 06:32 0,1 C 96 % 1040,7 hPa 0,0 l/m 0,5 km/h (0 Bft) S-SW 211 0 min 0,000 mm 0,0 UV-I 0 W/m -0,5 C 0,1 C 1,6 km/h (1 Bft) 97,87 %
29.12.2016 06:34 0,1 C 96 % 1040,7 hPa 0,0 l/m 0,5 km/h (0 Bft) S-SW 211 0 min 0,000 mm 0,0 UV-I 0 W/m -0,5 C 0,1 C 3,2 km/h (1 Bft) 100,00 %
29.12.2016 06:36 0,1 C 96 % 1040,7 hPa 0,0 l/m 0,6 km/h (0 Bft) S-SW 211 0 min 0,000 mm 0,0 UV-I 0 W/m -0,5 C 0,1 C 1,6 km/h (1 Bft) 96,00 %
29.12.2016 06:38 0,1 C 96 % 1040,7 hPa 0,0 l/m 0,6 km/h (0 Bft) S-SW 211 0 min 0,000 mm 0,0 UV-I 0 W/m -0,5 C 0,1 C 1,6 km/h (1 Bft) 97,87 %
29.12.2016 06:40 0,1 C 96 % 1040,8 hPa 0,0 l/m 1,4 km/h (1 Bft) S-SW 209 0 min 0,000 mm 0,0 UV-I 0 W/m -0,5 C 0,1 C 3,2 km/h (1 Bft) 100,00 %
29.12.2016 06:42 0,1 C 96 % 1040,8 hPa 0,0 l/m 2,0 km/h (1 Bft) S-SW 209 0 min 0,000 mm 0,0 UV-I 0 W/m -0,5 C 0,1 C 3,2 km/h (1 Bft) 100,00 %
29.12.2016 06:44 0,1 C 96 % 1040,8 hPa 0,0 l/m 1,2 km/h (1 Bft) S-SW 209 0 min 0,000 mm 0,0 UV-I 0 W/m -0,5 C 0,1 C 3,2 km/h (1 Bft) 97,87 %
29.12.2016 06:46 0,0 C 96 % 1040,8 hPa 0,0 l/m 2,6 km/h (1 Bft) S-SW 209 0 min 0,000 mm 0,0 UV-I 0 W/m -0,6 C 0,0 C 3,2 km/h (1 Bft) 98,00 %
29.12.2016 06:48 0,0 C 96 % 1040,8 hPa 0,0 l/m 2,6 km/h (1 Bft) S-SW 209 0 min 0,000 mm 0,0 UV-I 0 W/m -0,6 C 0,0 C 3,2 km/h (1 Bft) 97,87 %
29.12.2016 06:50 0,0 C 96 % 1040,8 hPa 0,0 l/m 2,6 km/h (1 Bft) S-SW 209 0 min 0,000 mm 0,0 UV-I 0 W/m -0,6 C 0,0 C 3,2 km/h (1 Bft) 95,74 %
29.12.2016 06:52 0,0 C 96 % 1040,9 hPa 0,0 l/m 2,4 km/h (1 Bft) S-SW 209 0 min 0,000 mm 0,0 UV-I 0 W/m -0,6 C 0,0 C 3,2 km/h (1 Bft) 95,74 %
29.12.2016 06:54 0,0 C 96 % 1040,9 hPa 0,0 l/m 2,3 km/h (1 Bft) S-SW 209 0 min 0,000 mm 0,0 UV-I 0 W/m -0,6 C 0,0 C 3,2 km/h (1 Bft) 95,74 %
29.12.2016 06:56 0,0 C 96 % 1040,9 hPa 0,0 l/m 2,6 km/h (1 Bft) S-SW 209 0 min 0,000 mm 0,0 UV-I 0 W/m -0,6 C 0,0 C 4,8 km/h (1 Bft) 97,14 %
29.12.2016 06:58 -0,1 C 96 % 1040,9 hPa 0,0 l/m 2,4 km/h (1 Bft) S-SW 209 0 min 0,000 mm 0,0 UV-I 0 W/m -0,7 C -0,1 C 4,8 km/h (1 Bft) 97,92 %
29.12.2016 07:00 -0,1 C 96 % 1040,9 hPa 0,0 l/m 0,5 km/h (0 Bft) S-SW 209 0 min 0,000 mm 0,0 UV-I 0 W/m -0,7 C -0,1 C 1,6 km/h (1 Bft) 96,00 %
29.12.2016 07:02 -0,1 C 96 % 1040,9 hPa 0,0 l/m 2,1 km/h (1 Bft) S-SW 209 0 min 0,000 mm 0,0 UV-I 0 W/m -0,7 C -0,1 C 4,8 km/h (1 Bft) 95,74 %
29.12.2016 07:04 -0,1 C 96 % 1040,9 hPa 0,0 l/m 1,4 km/h (1 Bft) S-SW 209 0 min 0,000 mm 0,0 UV-I 0 W/m -0,7 C -0,1 C 3,2 km/h (1 Bft) 96,00 %
29.12.2016 07:06 -0,1 C 96 % 1040,9 hPa 0,0 l/m 0,3 km/h (0 Bft) S-SW 209 0 min 0,000 mm 0,0 UV-I 0 W/m -0,7 C -0,1 C 1,6 km/h (1 Bft) 98,00 %
29.12.2016 07:08 -0,1 C 96 % 1040,9 hPa 0,0 l/m 0,0 km/h (0 Bft) S-SW 209 0 min 0,000 mm 0,0 UV-I 0 W/m -0,7 C -0,1 C 0,0 km/h (0 Bft) 97,87 %
29.12.2016 07:10 -0,2 C 96 % 1040,9 hPa 0,0 l/m 0,0 km/h (0 Bft) S-SW 209 0 min 0,000 mm 0,0 UV-I 0 W/m -0,8 C -0,2 C 0,0 km/h (0 Bft) 97,87 %
29.12.2016 07:12 -0,2 C 96 % 1040,9 hPa 0,0 l/m 0,0 km/h (0 Bft) S-SW 209 0 min 0,000 mm 0,0 UV-I 0 W/m -0,8 C -0,2 C 0,0 km/h (0 Bft) 93,62 %
29.12.2016 07:14 -0,2 C 96 % 1041,0 hPa 0,0 l/m 0,0 km/h (0 Bft) S-SW 209 0 min 0,000 mm 0,0 UV-I 0 W/m -0,8 C -0,2 C 0,0 km/h (0 Bft) 94,74 %
29.12.2016 07:16 -0,2 C 96 % 1041,0 hPa 0,0 l/m 0,3 km/h (0 Bft) S-SW 209 0 min 0,000 mm 0,0 UV-I 0 W/m -0,8 C -0,2 C 1,6 km/h (1 Bft) 97,87 %
29.12.2016 07:18 -0,2 C 96 % 1040,8 hPa 0,0 l/m 2,3 km/h (1 Bft) S-SW 209 0 min 0,000 mm 0,0 UV-I 0 W/m -0,8 C -0,2 C 3,2 km/h (1 Bft) 95,74 %
29.12.2016 07:20 -0,2 C 96 % 1040,9 hPa 0,0 l/m 2,3 km/h (1 Bft) S-SW 209 0 min 0,000 mm 0,0 UV-I 0 W/m -0,8 C -0,2 C 3,2 km/h (1 Bft) 95,74 %
29.12.2016 07:22 -0,2 C 96 % 1040,9 hPa 0,0 l/m 1,6 km/h (1 Bft) S-SW 209 0 min 0,000 mm 0,0 UV-I 0 W/m -0,8 C -0,2 C 3,2 km/h (1 Bft) 97,87 %
29.12.2016 07:24 -0,2 C 96 % 1040,9 hPa 0,0 l/m 1,7 km/h (1 Bft) S-SW 209 0 min 0,000 mm 0,0 UV-I 0 W/m -0,8 C -0,2 C 3,2 km/h (1 Bft) 96,00 %
29.12.2016 07:26 -0,2 C 96 % 1041,0 hPa 0,0 l/m 0,4 km/h (0 Bft) S-SW 209 0 min 0,000 mm 0,0 UV-I 0 W/m -0,8 C -0,2 C 1,6 km/h (1 Bft) 100,00 %
29.12.2016 07:28 -0,3 C 96 % 1041,0 hPa 0,0 l/m 0,2 km/h (0 Bft) S-SW 209 0 min 0,000 mm 0,0 UV-I 0 W/m -0,9 C -0,3 C 1,6 km/h (1 Bft) 100,00 %
29.12.2016 07:30 -0,3 C 96 % 1041,0 hPa 0,0 l/m 0,3 km/h (0 Bft) S-SW 209 0 min 0,000 mm 0,0 UV-I 0 W/m -0,9 C -0,3 C 1,6 km/h (1 Bft) 100,00 %
29.12.2016 07:32 -0,3 C 96 % 1041,0 hPa 0,0 l/m 0,2 km/h (0 Bft) S-SW 209 0 min 0,000 mm 0,0 UV-I 0 W/m -0,9 C -0,3 C 1,6 km/h (1 Bft) 100,00 %
29.12.2016 07:34 -0,4 C 96 % 1041,0 hPa 0,0 l/m 0,1 km/h (0 Bft) S-SW 209 0 min 0,000 mm 0,0 UV-I 0 W/m -1,0 C -0,4 C 1,6 km/h (1 Bft) 100,00 %
29.12.2016 07:36 -0,4 C 96 % 1041,0 hPa 0,0 l/m 0,0 km/h (0 Bft) S-SW 209 0 min 0,000 mm 0,0 UV-I 0 W/m -1,0 C -0,4 C 0,0 km/h (0 Bft) 100,00 %
29.12.2016 07:38 -0,3 C 96 % 1041,1 hPa 0,0 l/m 0,0 km/h (0 Bft) S-SW 209 0 min 0,000 mm 0,0 UV-I 4 W/m -0,9 C -0,3 C 0,0 km/h (0 Bft) 95,74 %
29.12.2016 07:40 -0,3 C 96 % 1041,1 hPa 0,0 l/m 0,0 km/h (0 Bft) S-SW 209 0 min 0,000 mm 0,0 UV-I 5 W/m -0,9 C -0,3 C 0,0 km/h (0 Bft) 95,74 %
29.12.2016 07:42 -0,3 C 96 % 1041,1 hPa 0,0 l/m 0,1 km/h (0 Bft) S-SW 209 0 min 0,000 mm 0,0 UV-I 5 W/m -0,9 C -0,3 C 1,6 km/h (1 Bft) 100,00 %
29.12.2016 07:44 -0,3 C 96 % 1041,1 hPa 0,0 l/m 0,7 km/h (0 Bft) S-SW 209 0 min 0,000 mm 0,0 UV-I 5 W/m -0,9 C -0,3 C 1,6 km/h (1 Bft) 100,00 %
29.12.2016 07:46 -0,4 C 96 % 1041,1 hPa 0,0 l/m 1,3 km/h (1 Bft) S-SW 209 0 min 0,000 mm 0,0 UV-I 5 W/m -1,0 C -0,4 C 3,2 km/h (1 Bft) 98,00 %
29.12.2016 07:48 -0,4 C 96 % 1041,2 hPa 0,0 l/m 0,1 km/h (0 Bft) S-SW 209 0 min 0,000 mm 0,0 UV-I 7 W/m -1,0 C -0,4 C 1,6 km/h (1 Bft) 100,00 %
29.12.2016 07:50 -0,4 C 96 % 1041,2 hPa 0,0 l/m 0,3 km/h (0 Bft) S-SW 209 0 min 0,000 mm 0,0 UV-I 7 W/m -1,0 C -0,4 C 1,6 km/h (1 Bft) 100,00 %
29.12.2016 07:52 -0,4 C 96 % 1041,2 hPa 0,0 l/m 0,0 km/h (0 Bft) S-SW 209 0 min 0,000 mm 0,0 UV-I 7 W/m -1,0 C -0,4 C 0,0 km/h (0 Bft) 100,00 %
29.12.2016 07:54 -0,4 C 96 % 1041,2 hPa 0,0 l/m 0,0 km/h (0 Bft) S-SW 209 0 min 0,000 mm 0,0 UV-I 7 W/m -1,0 C -0,4 C 0,0 km/h (0 Bft) 100,00 %
29.12.2016 07:56 -0,4 C 96 % 1041,2 hPa 0,0 l/m 0,0 km/h (0 Bft) S-SW 209 0 min 0,000 mm 0,0 UV-I 9 W/m -1,0 C -0,4 C 0,0 km/h (0 Bft) 97,87 %
29.12.2016 07:58 -0,4 C 96 % 1041,2 hPa 0,0 l/m 1,5 km/h (1 Bft) S-SW 209 0 min 0,000 mm 0,0 UV-I 9 W/m -1,0 C -0,4 C 3,2 km/h (1 Bft) 100,00 %
29.12.2016 08:00 -0,4 C 96 % 1041,2 hPa 0,0 l/m 0,6 km/h (0 Bft) S-SW 209 0 min 0,000 mm 0,0 UV-I 10 W/m -1,0 C -0,4 C 1,6 km/h (1 Bft) 100,00 %
29.12.2016 08:02 -0,4 C 96 % 1041,2 hPa 0,0 l/m 1,2 km/h (1 Bft) S-SW 209 0 min 0,000 mm 0,0 UV-I 11 W/m -1,0 C -0,4 C 3,2 km/h (1 Bft) 100,00 %
29.12.2016 08:04 -0,4 C 96 % 1041,3 hPa 0,0 l/m 0,0 km/h (0 Bft) S-SW 209 0 min 0,000 mm 0,0 UV-I 15 W/m -1,0 C -0,4 C 1,6 km/h (1 Bft) 97,87 %
29.12.2016 08:06 -0,4 C 96 % 1041,3 hPa 0,0 l/m 0,0 km/h (0 Bft) S-SW 209 0 min 0,000 mm 0,0 UV-I 19 W/m -1,0 C -0,4 C 0,0 km/h (0 Bft) 100,00 %
29.12.2016 08:08 -0,4 C 96 % 1041,3 hPa 0,0 l/m 0,0 km/h (0 Bft) S-SW 209 2 min 0,000 mm 0,0 UV-I 20 W/m -1,0 C -0,4 C 0,0 km/h (0 Bft) 100,00 %
29.12.2016 08:10 -0,4 C 96 % 1041,4 hPa 0,0 l/m 0,0 km/h (0 Bft) S-SW 209 2 min 0,000 mm 0,0 UV-I 21 W/m -1,0 C -0,4 C 0,0 km/h (0 Bft) 97,87 %
29.12.2016 08:12 -0,4 C 96 % 1041,4 hPa 0,0 l/m 0,0 km/h (0 Bft) S-SW 209 2 min 0,000 mm 0,0 UV-I 24 W/m -1,0 C -0,4 C 0,0 km/h (0 Bft) 100,00 %
29.12.2016 08:14 -0,4 C 96 % 1041,4 hPa 0,0 l/m 0,0 km/h (0 Bft) S-SW 209 2 min 0,000 mm 0,0 UV-I 25 W/m -1,0 C -0,4 C 0,0 km/h (0 Bft) 95,74 %
29.12.2016 08:16 -0,4 C 96 % 1041,5 hPa 0,0 l/m 0,0 km/h (0 Bft) S-SW 209 2 min 0,000 mm 0,0 UV-I 29 W/m -1,0 C -0,4 C 0,0 km/h (0 Bft) 97,87 %
29.12.2016 08:18 -0,4 C 96 % 1041,5 hPa 0,0 l/m 0,0 km/h (0 Bft) S-SW 209 2 min 0,000 mm 0,0 UV-I 36 W/m -1,0 C -0,4 C 0,0 km/h (0 Bft) 100,00 %
29.12.2016 08:20 -0,4 C 96 % 1041,5 hPa 0,0 l/m 0,0 km/h (0 Bft) S-SW 209 2 min 0,000 mm 0,0 UV-I 37 W/m -1,0 C -0,4 C 0,0 km/h (0 Bft) 97,87 %
29.12.2016 08:22 -0,4 C 97 % 1041,5 hPa 0,0 l/m 0,0 km/h (0 Bft) S-SW 209 2 min 0,000 mm 0,0 UV-I 34 W/m -0,8 C -0,4 C 0,0 km/h (0 Bft) 98,00 %
29.12.2016 08:24 -0,4 C 97 % 1041,4 hPa 0,0 l/m 0,0 km/h (0 Bft) S-SW 209 2 min 0,000 mm 0,0 UV-I 36 W/m -0,8 C -0,4 C 0,0 km/h (0 Bft) 100,00 %
29.12.2016 08:26 -0,4 C 97 % 1041,4 hPa 0,0 l/m 0,0 km/h (0 Bft) S-SW 209 2 min 0,000 mm 0,0 UV-I 39 W/m -0,8 C -0,4 C 0,0 km/h (0 Bft) 100,00 %
29.12.2016 08:28 -0,4 C 97 % 1041,4 hPa 0,0 l/m 0,0 km/h (0 Bft) S-SW 209 0 min 0,000 mm 0,0 UV-I 31 W/m -0,8 C -0,4 C 0,0 km/h (0 Bft) 100,00 %
29.12.2016 08:30 -0,3 C 97 % 1041,5 hPa 0,0 l/m 0,0 km/h (0 Bft) S-SW 209 0 min 0,000 mm 0,0 UV-I 26 W/m -0,7 C -0,3 C 0,0 km/h (0 Bft) 97,37 %
29.12.2016 08:32 -0,3 C 97 % 1041,5 hPa 0,0 l/m 2,6 km/h (1 Bft) O-NO 69 0 min 0,000 mm 0,0 UV-I 25 W/m -0,7 C -0,3 C 6,4 km/h (2 Bft) 100,00 %
29.12.2016 08:34 -0,3 C 97 % 1041,5 hPa 0,0 l/m 6,2 km/h (2 Bft) NO 49 0 min 0,000 mm 0,0 UV-I 25 W/m -0,7 C -0,3 C 8,0 km/h (2 Bft) 100,00 %
29.12.2016 08:36 -0,3 C 97 % 1041,5 hPa 0,0 l/m 5,7 km/h (1 Bft) NO 44 0 min 0,000 mm 0,0 UV-I 27 W/m -0,7 C -0,3 C 8,0 km/h (2 Bft) 100,00 %
29.12.2016 08:38 -0,3 C 97 % 1041,4 hPa 0,0 l/m 4,3 km/h (1 Bft) NO 42 0 min 0,000 mm 0,0 UV-I 35 W/m -0,7 C -0,3 C 6,4 km/h (2 Bft) 97,87 %
29.12.2016 08:40 -0,4 C 97 % 1041,5 hPa 0,0 l/m 4,1 km/h (1 Bft) NO 52 0 min 0,000 mm 0,0 UV-I 41 W/m -0,8 C -0,4 C 4,8 km/h (1 Bft) 100,00 %
29.12.2016 08:42 -0,4 C 96 % 1041,6 hPa 0,0 l/m 5,4 km/h (1 Bft) O-NO 63 0 min 0,000 mm 0,0 UV-I 45 W/m -1,0 C -0,4 C 8,0 km/h (2 Bft) 100,00 %
29.12.2016 08:44 -0,4 C 97 % 1041,5 hPa 0,0 l/m 5,4 km/h (1 Bft) O-NO 69 0 min 0,000 mm 0,0 UV-I 43 W/m -0,8 C -0,4 C 8,0 km/h (2 Bft) 100,00 %
29.12.2016 08:46 -0,4 C 97 % 1041,5 hPa 0,0 l/m 3,8 km/h (1 Bft) O-NO 69 0 min 0,000 mm 0,0 UV-I 51 W/m -0,8 C -0,4 C 6,4 km/h (2 Bft) 100,00 %
29.12.2016 08:48 -0,3 C 97 % 1041,5 hPa 0,0 l/m 2,9 km/h (1 Bft) O-NO 69 0 min 0,000 mm 0,0 UV-I 54 W/m -0,7 C -0,3 C 4,8 km/h (1 Bft) 100,00 %
29.12.2016 08:50 -0,2 C 97 % 1041,6 hPa 0,0 l/m 1,8 km/h (1 Bft) O-NO 69 0 min 0,000 mm 0,0 UV-I 57 W/m -0,6 C -0,2 C 3,2 km/h (1 Bft) 100,00 %
29.12.2016 08:52 -0,2 C 97 % 1041,6 hPa 0,0 l/m 3,5 km/h (1 Bft) O-NO 69 0 min 0,000 mm 0,0 UV-I 59 W/m -0,6 C -0,2 C 6,4 km/h (2 Bft) 100,00 %
29.12.2016 08:54 -0,1 C 97 % 1041,6 hPa 0,0 l/m 3,8 km/h (1 Bft) O-NO 69 0 min 0,000 mm 0,0 UV-I 66 W/m -0,5 C -0,1 C 6,4 km/h (2 Bft) 100,00 %
29.12.2016 08:56 -0,2 C 97 % 1041,6 hPa 0,0 l/m 5,2 km/h (1 Bft) O-NO 67 0 min 0,000 mm 0,0 UV-I 68 W/m -0,6 C -0,2 C 6,4 km/h (2 Bft) 97,87 %
29.12.2016 08:58 -0,2 C 97 % 1041,6 hPa 0,0 l/m 5,6 km/h (1 Bft) O-NO 60 0 min 0,000 mm 0,0 UV-I 64 W/m -0,6 C -0,2 C 6,4 km/h (2 Bft) 100,00 %
29.12.2016 09:00 -0,2 C 97 % 1041,6 hPa 0,0 l/m 5,1 km/h (1 Bft) O-NO 60 0 min 0,025 mm 0,0 UV-I 66 W/m -0,6 C -0,2 C 6,4 km/h (2 Bft) 100,00 %
29.12.2016 09:02 -0,2 C 97 % 1041,6 hPa 0,0 l/m 5,4 km/h (1 Bft) O-NO 70 2 min 0,000 mm 0,0 UV-I 80 W/m -0,6 C -0,2 C 6,4 km/h (2 Bft) 97,87 %
29.12.2016 09:04 -0,1 C 97 % 1041,6 hPa 0,0 l/m 4,8 km/h (1 Bft) NO 55 2 min 0,000 mm 0,0 UV-I 88 W/m -0,5 C -0,1 C 6,4 km/h (2 Bft) 95,83 %
29.12.2016 09:06 -0,1 C 97 % 1041,6 hPa 0,0 l/m 3,4 km/h (1 Bft) NO 55 0 min 0,000 mm 0,0 UV-I 77 W/m -0,5 C -0,1 C 6,4 km/h (2 Bft) 97,37 %
29.12.2016 09:08 -0,1 C 97 % 1041,6 hPa 0,0 l/m 0,4 km/h (0 Bft) NO 55 0 min 0,000 mm 0,0 UV-I 71 W/m -0,5 C -0,1 C 1,6 km/h (1 Bft) 95,74 %
29.12.2016 09:10 0,0 C 97 % 1041,6 hPa 0,0 l/m 0,4 km/h (0 Bft) NO 55 0 min 0,000 mm 0,0 UV-I 80 W/m -0,4 C 0,0 C 1,6 km/h (1 Bft) 98,00 %
29.12.2016 09:12 0,0 C 97 % 1041,6 hPa 0,0 l/m 0,6 km/h (0 Bft) NO 55 2 min 0,000 mm 0,0 UV-I 88 W/m -0,4 C 0,0 C 1,6 km/h (1 Bft) 95,74 %
29.12.2016 09:14 0,1 C 97 % 1041,6 hPa 0,0 l/m 1,2 km/h (1 Bft) NO 55 0 min 0,000 mm 0,0 UV-I 88 W/m -0,3 C 0,1 C 3,2 km/h (1 Bft) 97,87 %
29.12.2016 09:16 0,0 C 97 % 1041,6 hPa 0,0 l/m 0,1 km/h (0 Bft) NO 55 0 min 0,000 mm 0,0 UV-I 86 W/m -0,4 C 0,0 C 1,6 km/h (1 Bft) 97,87 %
29.12.2016 09:18 0,0 C 97 % 1041,6 hPa 0,0 l/m 1,8 km/h (1 Bft) NO 55 2 min 0,000 mm 0,0 UV-I 96 W/m -0,4 C 0,0 C 3,2 km/h (1 Bft) 95,74 %
29.12.2016 09:20 0,1 C 97 % 1041,6 hPa 0,0 l/m 1,8 km/h (1 Bft) NO 55 2 min 0,000 mm 0,0 UV-I 104 W/m -0,3 C 0,1 C 3,2 km/h (1 Bft) 96,00 %
29.12.2016 09:22 0,1 C 97 % 1041,7 hPa 0,0 l/m 0,2 km/h (0 Bft) NO 55 2 min 0,000 mm 0,0 UV-I 103 W/m -0,3 C 0,1 C 1,6 km/h (1 Bft) 97,92 %
29.12.2016 09:24 0,1 C 97 % 1041,7 hPa 0,0 l/m 0,1 km/h (0 Bft) NO 55 0 min 0,000 mm 0,0 UV-I 85 W/m -0,3 C 0,1 C 1,6 km/h (1 Bft) 95,74 %
29.12.2016 09:26 0,0 C 97 % 1041,7 hPa 0,0 l/m 0,9 km/h (0 Bft) NO 55 0 min 0,000 mm 0,0 UV-I 78 W/m -0,4 C 0,0 C 3,2 km/h (1 Bft) 93,62 %
29.12.2016 09:28 0,0 C 97 % 1041,8 hPa 0,0 l/m 2,8 km/h (1 Bft) NO 55 0 min 0,000 mm 0,0 UV-I 69 W/m -0,4 C 0,0 C 4,8 km/h (1 Bft) 97,87 %
29.12.2016 09:30 0,0 C 97 % 1041,7 hPa 0,0 l/m 0,8 km/h (0 Bft) NO 55 0 min 0,000 mm 0,0 UV-I 74 W/m -0,4 C 0,0 C 3,2 km/h (1 Bft) 97,87 %
29.12.2016 09:32 0,1 C 97 % 1041,8 hPa 0,0 l/m 0,0 km/h (0 Bft) NO 55 0 min 0,000 mm 0,0 UV-I 95 W/m -0,3 C 0,1 C 1,6 km/h (1 Bft) 94,29 %
29.12.2016 09:34 0,1 C 97 % 1041,8 hPa 0,0 l/m 0,9 km/h (0 Bft) NO 55 0 min 0,000 mm 0,0 UV-I 78 W/m -0,3 C 0,1 C 3,2 km/h (1 Bft) 98,00 %
29.12.2016 09:36 0,1 C 97 % 1041,9 hPa 0,0 l/m 3,0 km/h (1 Bft) NO 55 0 min 0,000 mm 0,0 UV-I 51 W/m -0,3 C 0,1 C 4,8 km/h (1 Bft) 95,74 %
29.12.2016 09:38 0,1 C 97 % 1041,9 hPa 0,0 l/m 3,5 km/h (1 Bft) NO 55 0 min 0,000 mm 0,0 UV-I 44 W/m -0,3 C 0,1 C 4,8 km/h (1 Bft) 100,00 %
29.12.2016 09:40 0,1 C 98 % 1041,9 hPa 0,0 l/m 2,7 km/h (1 Bft) NO 55 0 min 0,000 mm 0,0 UV-I 41 W/m -0,2 C 0,1 C 4,8 km/h (1 Bft) 100,00 %
29.12.2016 09:42 0,0 C 97 % 1041,8 hPa 0,0 l/m 2,6 km/h (1 Bft) NO 55 0 min 0,000 mm 0,0 UV-I 46 W/m -0,4 C 0,0 C 4,8 km/h (1 Bft) 100,00 %
29.12.2016 09:44 0,0 C 97 % 1041,9 hPa 0,0 l/m 1,9 km/h (1 Bft) NO 54 0 min 0,000 mm 0,0 UV-I 48 W/m -0,4 C 0,0 C 4,8 km/h (1 Bft) 100,00 %
29.12.2016 09:46 -0,1 C 97 % 1041,9 hPa 0,0 l/m 3,0 km/h (1 Bft) NO 54 0 min 0,000 mm 0,0 UV-I 57 W/m -0,5 C -0,1 C 4,8 km/h (1 Bft) 100,00 %
29.12.2016 09:48 -0,1 C 98 % 1041,9 hPa 0,0 l/m 0,2 km/h (0 Bft) NO 54 0 min 0,000 mm 0,0 UV-I 78 W/m -0,4 C -0,1 C 1,6 km/h (1 Bft) 100,00 %
29.12.2016 09:50 0,0 C 98 % 1042,0 hPa 0,0 l/m 0,0 km/h (0 Bft) NO 54 0 min 0,000 mm 0,0 UV-I 93 W/m -0,3 C 0,0 C 0,0 km/h (0 Bft) 100,00 %
29.12.2016 09:52 0,1 C 98 % 1041,9 hPa 0,0 l/m 0,1 km/h (0 Bft) NO 54 0 min 0,000 mm 0,0 UV-I 104 W/m -0,2 C 0,1 C 1,6 km/h (1 Bft) 100,00 %
29.12.2016 09:54 0,1 C 98 % 1041,9 hPa 0,0 l/m 0,0 km/h (0 Bft) NO 54 0 min 0,000 mm 0,0 UV-I 102 W/m -0,2 C 0,1 C 1,6 km/h (1 Bft) 97,87 %
29.12.2016 09:56 0,1 C 98 % 1042,0 hPa 0,0 l/m 0,3 km/h (0 Bft) NO 54 0 min 0,000 mm 0,0 UV-I 101 W/m -0,2 C 0,1 C 1,6 km/h (1 Bft) 100,00 %
29.12.2016 09:58 0,1 C 98 % 1042,0 hPa 0,0 l/m 2,5 km/h (1 Bft) NO 53 0 min 0,000 mm 0,0 UV-I 110 W/m -0,2 C 0,1 C 4,8 km/h (1 Bft) 100,00 %
29.12.2016 10:00 0,1 C 98 % 1042,0 hPa 0,0 l/m 2,0 km/h (1 Bft) NO 44 0 min 0,026 mm 0,0 UV-I 119 W/m -0,2 C 0,1 C 4,8 km/h (1 Bft) 100,00 %
29.12.2016 10:02 0,1 C 98 % 1042,1 hPa 0,0 l/m 3,5 km/h (1 Bft) NO 44 0 min 0,000 mm 0,0 UV-I 113 W/m -0,2 C 0,1 C 4,8 km/h (1 Bft) 97,87 %
29.12.2016 10:04 0,1 C 98 % 1042,0 hPa 0,0 l/m 3,7 km/h (1 Bft) NO 44 0 min 0,000 mm 0,0 UV-I 107 W/m -0,2 C 0,1 C 4,8 km/h (1 Bft) 100,00 %
29.12.2016 10:06 0,2 C 98 % 1042,0 hPa 0,0 l/m 3,1 km/h (1 Bft) NO 44 0 min 0,000 mm 0,0 UV-I 102 W/m -0,1 C 0,2 C 4,8 km/h (1 Bft) 98,00 %
29.12.2016 10:08 0,2 C 98 % 1042,0 hPa 0,0 l/m 4,6 km/h (1 Bft) N-NO 28 0 min 0,000 mm 0,0 UV-I 99 W/m -0,1 C 0,2 C 8,0 km/h (2 Bft) 100,00 %
29.12.2016 10:10 0,2 C 98 % 1042,0 hPa 0,0 l/m 4,4 km/h (1 Bft) N-NO 24 0 min 0,000 mm 0,0 UV-I 93 W/m -0,1 C 0,2 C 6,4 km/h (2 Bft) 100,00 %
29.12.2016 10:12 0,1 C 98 % 1042,0 hPa 0,0 l/m 3,8 km/h (1 Bft) N-NO 24 0 min 0,000 mm 0,0 UV-I 93 W/m -0,2 C 0,1 C 6,4 km/h (2 Bft) 95,74 %
29.12.2016 10:14 0,1 C 98 % 1042,0 hPa 0,0 l/m 3,3 km/h (1 Bft) N-NO 24 0 min 0,000 mm 0,0 UV-I 97 W/m -0,2 C 0,1 C 6,4 km/h (2 Bft) 100,00 %
29.12.2016 10:16 0,1 C 98 % 1042,0 hPa 0,0 l/m 3,7 km/h (1 Bft) N-NO 33 0 min 0,000 mm 0,0 UV-I 101 W/m -0,2 C 0,1 C 6,4 km/h (2 Bft) 100,00 %
29.12.2016 10:18 0,1 C 98 % 1042,1 hPa 0,0 l/m 3,3 km/h (1 Bft) N-NO 33 0 min 0,000 mm 0,0 UV-I 105 W/m -0,2 C 0,1 C 4,8 km/h (1 Bft) 97,87 %
29.12.2016 10:20 0,2 C 98 % 1042,0 hPa 0,0 l/m 4,0 km/h (1 Bft) N-NO 33 0 min 0,000 mm 0,0 UV-I 115 W/m -0,1 C 0,2 C 4,8 km/h (1 Bft) 97,44 %
29.12.2016 10:22 0,1 C 98 % 1042,0 hPa 0,0 l/m 2,6 km/h (1 Bft) N-NO 32 0 min 0,000 mm 0,0 UV-I 113 W/m -0,2 C 0,1 C 4,8 km/h (1 Bft) 93,62 %
29.12.2016 10:24 0,1 C 98 % 1042,0 hPa 0,0 l/m 2,3 km/h (1 Bft) N-NO 32 0 min 0,000 mm 0,0 UV-I 108 W/m -0,2 C 0,1 C 4,8 km/h (1 Bft) 100,00 %
29.12.2016 10:26 0,0 C 98 % 1042,0 hPa 0,0 l/m 0,2 km/h (0 Bft) N-NO 24 0 min 0,000 mm 0,0 UV-I 117 W/m -0,3 C 0,0 C 1,6 km/h (1 Bft) 97,87 %
29.12.2016 10:28 -0,1 C 98 % 1041,9 hPa 0,0 l/m 0,6 km/h (0 Bft) N-NO 23 0 min 0,000 mm 0,0 UV-I 102 W/m -0,4 C -0,1 C 1,6 km/h (1 Bft) 96,00 %
29.12.2016 10:30 -0,1 C 98 % 1042,0 hPa 0,0 l/m 0,6 km/h (0 Bft) N-NO 23 0 min 0,000 mm 0,0 UV-I 99 W/m -0,4 C -0,1 C 3,2 km/h (1 Bft) 97,87 %
29.12.2016 10:32 0,0 C 98 % 1042,0 hPa 0,0 l/m 0,9 km/h (0 Bft) N-NO 23 0 min 0,000 mm 0,0 UV-I 109 W/m -0,3 C 0,0 C 3,2 km/h (1 Bft) 100,00 %
29.12.2016 10:34 0,1 C 98 % 1042,0 hPa 0,0 l/m 3,6 km/h (1 Bft) NO 46 0 min 0,000 mm 0,0 UV-I 106 W/m -0,2 C 0,1 C 6,4 km/h (2 Bft) 98,00 %
29.12.2016 10:36 0,1 C 98 % 1042,0 hPa 0,0 l/m 3,9 km/h (1 Bft) NO 46 0 min 0,000 mm 0,0 UV-I 106 W/m -0,2 C 0,1 C 6,4 km/h (2 Bft) 100,00 %
29.12.2016 10:38 0,0 C 98 % 1042,0 hPa 0,0 l/m 3,5 km/h (1 Bft) O-NO 58 0 min 0,000 mm 0,0 UV-I 106 W/m -0,3 C 0,0 C 4,8 km/h (1 Bft) 100,00 %
29.12.2016 10:40 -0,1 C 98 % 1042,0 hPa 0,0 l/m 3,3 km/h (1 Bft) O-NO 62 0 min 0,000 mm 0,0 UV-I 99 W/m -0,4 C -0,1 C 4,8 km/h (1 Bft) 97,87 %
29.12.2016 10:42 -0,1 C 98 % 1042,0 hPa 0,0 l/m 3,7 km/h (1 Bft) O-NO 59 0 min 0,000 mm 0,0 UV-I 105 W/m -0,4 C -0,1 C 6,4 km/h (2 Bft) 97,37 %
29.12.2016 10:44 -0,2 C 98 % 1041,9 hPa 0,0 l/m 3,3 km/h (1 Bft) O-NO 59 0 min 0,000 mm 0,0 UV-I 111 W/m -0,5 C -0,2 C 6,4 km/h (2 Bft) 97,87 %
29.12.2016 10:46 -0,2 C 98 % 1041,9 hPa 0,0 l/m 2,4 km/h (1 Bft) O-NO 59 0 min 0,000 mm 0,0 UV-I 99 W/m -0,5 C -0,2 C 3,2 km/h (1 Bft) 97,87 %
29.12.2016 10:48 -0,2 C 98 % 1041,9 hPa 0,0 l/m 0,0 km/h (0 Bft) O-NO 59 0 min 0,000 mm 0,0 UV-I 115 W/m -0,5 C -0,2 C 1,6 km/h (1 Bft) 97,87 %
29.12.2016 10:50 -0,2 C 98 % 1041,9 hPa 0,0 l/m 0,0 km/h (0 Bft) O-NO 59 0 min 0,000 mm 0,0 UV-I 116 W/m -0,5 C -0,2 C 0,0 km/h (0 Bft) 100,00 %
29.12.2016 10:52 -0,2 C 98 % 1041,9 hPa 0,0 l/m 0,0 km/h (0 Bft) O-NO 58 0 min 0,000 mm 0,0 UV-I 110 W/m -0,5 C -0,2 C 0,0 km/h (0 Bft) 100,00 %
29.12.2016 10:54 -0,2 C 98 % 1041,9 hPa 0,0 l/m 0,0 km/h (0 Bft) O-NO 58 0 min 0,000 mm 0,0 UV-I 96 W/m -0,5 C -0,2 C 0,0 km/h (0 Bft) 97,87 %
29.12.2016 10:56 -0,2 C 98 % 1042,0 hPa 0,0 l/m 0,0 km/h (0 Bft) O-NO 65 0 min 0,000 mm 0,0 UV-I 90 W/m -0,5 C -0,2 C 0,0 km/h (0 Bft) 100,00 %
29.12.2016 10:58 -0,1 C 98 % 1041,8 hPa 0,0 l/m 0,0 km/h (0 Bft) O 79 0 min 0,000 mm 0,0 UV-I 95 W/m -0,4 C -0,1 C 0,0 km/h (0 Bft) 100,00 %
29.12.2016 11:00 -0,1 C 98 % 1041,9 hPa 0,0 l/m 0,0 km/h (0 Bft) O 79 0 min 0,025 mm 0,0 UV-I 107 W/m -0,4 C -0,1 C 0,0 km/h (0 Bft) 100,00 %
29.12.2016 11:02 0,0 C 98 % 1041,8 hPa 0,0 l/m 0,0 km/h (0 Bft) O 79 0 min 0,000 mm 0,0 UV-I 102 W/m -0,3 C 0,0 C 0,0 km/h (0 Bft) 100,00 %
29.12.2016 11:04 0,1 C 98 % 1041,9 hPa 0,0 l/m 0,0 km/h (0 Bft) O 79 0 min 0,000 mm 0,0 UV-I 102 W/m -0,2 C 0,1 C 0,0 km/h (0 Bft) 97,87 %
29.12.2016 11:06 0,1 C 98 % 1042,0 hPa 0,0 l/m 0,0 km/h (0 Bft) O-NO 76 0 min 0,000 mm 0,0 UV-I 100 W/m -0,2 C 0,1 C 0,0 km/h (0 Bft) 97,87 %
29.12.2016 11:08 0,0 C 98 % 1041,9 hPa 0,0 l/m 0,0 km/h (0 Bft) O-NO 76 0 min 0,000 mm 0,0 UV-I 101 W/m -0,3 C 0,0 C 0,0 km/h (0 Bft) 95,74 %
29.12.2016 11:10 0,0 C 98 % 1041,9 hPa 0,0 l/m 0,0 km/h (0 Bft) O-NO 75 0 min 0,000 mm 0,0 UV-I 105 W/m -0,3 C 0,0 C 0,0 km/h (0 Bft) 95,74 %
29.12.2016 11:12 0,1 C 98 % 1041,9 hPa 0,0 l/m 0,0 km/h (0 Bft) O-NO 75 0 min 0,000 mm 0,0 UV-I 98 W/m -0,2 C 0,1 C 0,0 km/h (0 Bft) 96,00 %
29.12.2016 11:14 0,1 C 98 % 1041,9 hPa 0,0 l/m 0,0 km/h (0 Bft) O-NO 75 0 min 0,000 mm 0,0 UV-I 103 W/m -0,2 C 0,1 C 0,0 km/h (0 Bft) 97,87 %
29.12.2016 11:16 0,1 C 98 % 1042,0 hPa 0,0 l/m 0,0 km/h (0 Bft) O-NO 75 0 min 0,000 mm 0,0 UV-I 106 W/m -0,2 C 0,1 C 0,0 km/h (0 Bft) 93,62 %
29.12.2016 11:18 0,1 C 98 % 1042,0 hPa 0,0 l/m 0,0 km/h (0 Bft) O-NO 75 0 min 0,000 mm 0,0 UV-I 101 W/m -0,2 C 0,1 C 0,0 km/h (0 Bft) 95,74 %
29.12.2016 11:20 0,2 C 98 % 1042,0 hPa 0,0 l/m 0,0 km/h (0 Bft) O-NO 75 0 min 0,000 mm 0,0 UV-I 91 W/m -0,1 C 0,2 C 0,0 km/h (0 Bft) 95,74 %
29.12.2016 11:22 0,2 C 98 % 1042,0 hPa 0,0 l/m 0,0 km/h (0 Bft) O-NO 75 0 min 0,000 mm 0,0 UV-I 93 W/m -0,1 C 0,2 C 0,0 km/h (0 Bft) 95,83 %
29.12.2016 11:24 0,2 C 98 % 1042,0 hPa 0,0 l/m 1,9 km/h (1 Bft) S-SO 149 0 min 0,000 mm 0,0 UV-I 132 W/m -0,1 C 0,2 C 6,4 km/h (2 Bft) 92,11 %
29.12.2016 11:26 0,1 C 98 % 1042,0 hPa 0,0 l/m 3,5 km/h (1 Bft) SO 135 0 min 0,000 mm 0,0 UV-I 168 W/m -0,2 C 0,1 C 6,4 km/h (2 Bft) 95,74 %
29.12.2016 11:28 0,1 C 98 % 1042,0 hPa 0,2 l/m 1,8 km/h (1 Bft) SO 136 0 min 0,000 mm 0,0 UV-I 168 W/m -0,2 C 0,1 C 4,8 km/h (1 Bft) 95,74 %
29.12.2016 11:30 0,1 C 98 % 1042,0 hPa 0,0 l/m 0,7 km/h (0 Bft) SO 136 0 min 0,000 mm 0,0 UV-I 116 W/m -0,2 C 0,1 C 3,2 km/h (1 Bft) 97,87 %
29.12.2016 11:32 0,0 C 98 % 1042,0 hPa 0,0 l/m 0,7 km/h (0 Bft) SO 136 0 min 0,000 mm 0,0 UV-I 110 W/m -0,3 C 0,0 C 3,2 km/h (1 Bft) 97,44 %
29.12.2016 11:34 0,1 C 98 % 1041,9 hPa 0,0 l/m 2,1 km/h (1 Bft) SO 133 0 min 0,000 mm 0,0 UV-I 114 W/m -0,2 C 0,1 C 4,8 km/h (1 Bft) 95,08 %
29.12.2016 11:36 0,1 C 98 % 1041,9 hPa 0,0 l/m 1,0 km/h (0 Bft) SO 133 0 min 0,000 mm 0,0 UV-I 110 W/m -0,2 C 0,1 C 3,2 km/h (1 Bft) 95,74 %
29.12.2016 11:38 0,1 C 98 % 1041,9 hPa 0,0 l/m 3,7 km/h (1 Bft) O-NO 68 0 min 0,000 mm 0,0 UV-I 113 W/m -0,2 C 0,1 C 6,4 km/h (2 Bft) 96,00 %
29.12.2016 11:40 0,0 C 98 % 1041,9 hPa 0,0 l/m 2,2 km/h (1 Bft) O 80 0 min 0,000 mm 0,0 UV-I 121 W/m -0,3 C 0,0 C 3,2 km/h (1 Bft) 97,87 %
29.12.2016 11:42 0,1 C 98 % 1041,9 hPa 0,0 l/m 0,7 km/h (0 Bft) O-SO 113 0 min 0,000 mm 0,0 UV-I 157 W/m -0,2 C 0,1 C 3,2 km/h (1 Bft) 97,87 %
29.12.2016 11:44 0,1 C 98 % 1041,9 hPa 0,0 l/m 1,5 km/h (1 Bft) SO 144 0 min 0,000 mm 0,0 UV-I 143 W/m -0,2 C 0,1 C 3,2 km/h (1 Bft) 95,74 %
29.12.2016 11:46 0,1 C 98 % 1041,9 hPa 0,0 l/m 0,1 km/h (0 Bft) SO 144 0 min 0,000 mm 0,0 UV-I 112 W/m -0,2 C 0,1 C 1,6 km/h (1 Bft) 100,00 %
29.12.2016 11:48 0,2 C 98 % 1041,9 hPa 0,0 l/m 2,1 km/h (1 Bft) O-SO 123 0 min 0,000 mm 0,0 UV-I 117 W/m -0,1 C 0,2 C 4,8 km/h (1 Bft) 100,00 %
29.12.2016 11:50 0,2 C 98 % 1041,9 hPa 0,0 l/m 3,4 km/h (1 Bft) O 82 0 min 0,000 mm 0,0 UV-I 131 W/m -0,1 C 0,2 C 4,8 km/h (1 Bft) 98,11 %
29.12.2016 11:52 0,2 C 98 % 1041,9 hPa 0,0 l/m 3,5 km/h (1 Bft) O 94 2 min 0,000 mm 0,0 UV-I 191 W/m -0,1 C 0,2 C 6,4 km/h (2 Bft) 100,00 %
29.12.2016 11:54 0,2 C 98 % 1041,9 hPa 0,0 l/m 3,1 km/h (1 Bft) O-SO 107 2 min 0,000 mm 0,0 UV-I 185 W/m -0,1 C 0,2 C 6,4 km/h (2 Bft) 100,00 %
29.12.2016 11:56 0,2 C 98 % 1041,9 hPa 0,0 l/m 0,6 km/h (0 Bft) O 100 0 min 0,000 mm 0,0 UV-I 147 W/m -0,1 C 0,2 C 4,8 km/h (1 Bft) 100,00 %
29.12.2016 11:58 0,1 C 98 % 1041,9 hPa 0,0 l/m 4,9 km/h (1 Bft) O 88 0 min 0,000 mm 0,0 UV-I 121 W/m -0,2 C 0,1 C 8,0 km/h (2 Bft) 100,00 %
29.12.2016 12:00 0,0 C 98 % 1041,9 hPa 0,0 l/m 2,3 km/h (1 Bft) O 88 0 min 0,000 mm 0,0 UV-I 101 W/m -0,3 C 0,0 C 6,4 km/h (2 Bft) 97,87 %
29.12.2016 12:02 0,0 C 98 % 1041,8 hPa 0,0 l/m 5,0 km/h (1 Bft) O-NO 76 0 min 0,051 mm 0,0 UV-I 123 W/m -0,3 C 0,0 C 8,0 km/h (2 Bft) 100,00 %
29.12.2016 12:04 0,0 C 98 % 1041,8 hPa 0,0 l/m 4,3 km/h (1 Bft) O-NO 76 0 min 0,000 mm 0,0 UV-I 153 W/m -0,3 C 0,0 C 6,4 km/h (2 Bft) 100,00 %
29.12.2016 12:06 0,1 C 98 % 1041,8 hPa 0,0 l/m 3,4 km/h (1 Bft) SO 136 0 min 0,000 mm 0,0 UV-I 173 W/m -0,2 C 0,1 C 6,4 km/h (2 Bft) 100,00 %
29.12.2016 12:08 0,1 C 98 % 1041,8 hPa 0,0 l/m 3,4 km/h (1 Bft) SO 130 2 min 0,000 mm 0,0 UV-I 221 W/m -0,2 C 0,1 C 4,8 km/h (1 Bft) 100,00 %
29.12.2016 12:10 0,3 C 98 % 1041,8 hPa 0,0 l/m 1,8 km/h (1 Bft) O-SO 121 2 min 0,000 mm 0,0 UV-I 206 W/m 0,0 C 0,3 C 4,8 km/h (1 Bft) 100,00 %
29.12.2016 12:12 0,3 C 98 % 1041,8 hPa 0,0 l/m 2,0 km/h (1 Bft) O-SO 104 2 min 0,000 mm 0,0 UV-I 188 W/m 0,0 C 0,3 C 4,8 km/h (1 Bft) 97,87 %
29.12.2016 12:14 0,3 C 98 % 1041,8 hPa 0,0 l/m 4,2 km/h (1 Bft) O 98 2 min 0,000 mm 0,2 UV-I 229 W/m 0,0 C 0,3 C 6,4 km/h (2 Bft) 100,00 %
29.12.2016 12:16 0,3 C 98 % 1041,8 hPa 0,0 l/m 2,0 km/h (1 Bft) O-SO 109 2 min 0,000 mm 0,2 UV-I 229 W/m 0,0 C 0,3 C 4,8 km/h (1 Bft) 100,00 %
29.12.2016 12:18 0,3 C 98 % 1041,8 hPa 0,0 l/m 1,4 km/h (1 Bft) SO 134 2 min 0,000 mm 0,0 UV-I 197 W/m 0,0 C 0,3 C 3,2 km/h (1 Bft) 100,00 %
29.12.2016 12:20 0,1 C 98 % 1041,8 hPa 0,0 l/m 0,6 km/h (0 Bft) SO 134 0 min 0,000 mm 0,0 UV-I 155 W/m -0,2 C 0,1 C 3,2 km/h (1 Bft) 97,87 %
29.12.2016 12:22 0,1 C 98 % 1041,8 hPa 0,0 l/m 0,0 km/h (0 Bft) SO 134 0 min 0,000 mm 0,0 UV-I 130 W/m -0,2 C 0,1 C 1,6 km/h (1 Bft) 100,00 %
29.12.2016 12:24 0,2 C 98 % 1041,8 hPa 0,0 l/m 0,1 km/h (0 Bft) O-SO 111 0 min 0,000 mm 0,0 UV-I 113 W/m -0,1 C 0,2 C 1,6 km/h (1 Bft) 100,00 %
29.12.2016 12:26 0,3 C 98 % 1041,8 hPa 0,0 l/m 3,9 km/h (1 Bft) NO 55 0 min 0,000 mm 0,0 UV-I 96 W/m 0,0 C 0,3 C 6,4 km/h (2 Bft) 100,00 %
29.12.2016 12:28 0,3 C 98 % 1041,7 hPa 0,0 l/m 4,2 km/h (1 Bft) O-NO 67 0 min 0,000 mm 0,0 UV-I 80 W/m 0,0 C 0,3 C 6,4 km/h (2 Bft) 100,00 %
29.12.2016 12:30 0,2 C 98 % 1041,7 hPa 0,0 l/m 4,9 km/h (1 Bft) O-NO 78 0 min 0,000 mm 0,0 UV-I 83 W/m -0,1 C 0,2 C 8,0 km/h (2 Bft) 100,00 %
29.12.2016 12:32 0,1 C 98 % 1041,7 hPa 0,0 l/m 5,4 km/h (1 Bft) O-NO 67 0 min 0,000 mm 0,0 UV-I 88 W/m -0,2 C 0,1 C 6,4 km/h (2 Bft) 97,87 %
29.12.2016 12:34 0,0 C 98 % 1041,7 hPa 0,0 l/m 4,7 km/h (1 Bft) O-NO 69 0 min 0,000 mm 0,0 UV-I 99 W/m -0,3 C 0,0 C 6,4 km/h (2 Bft) 100,00 %
29.12.2016 12:36 0,0 C 98 % 1041,7 hPa 0,0 l/m 3,3 km/h (1 Bft) O-NO 69 0 min 0,000 mm 0,0 UV-I 131 W/m -0,3 C 0,0 C 6,4 km/h (2 Bft) 100,00 %
29.12.2016 12:38 0,1 C 98 % 1041,7 hPa 0,0 l/m 3,4 km/h (1 Bft) O-NO 63 2 min 0,000 mm 0,0 UV-I 210 W/m -0,2 C 0,1 C 4,8 km/h (1 Bft) 97,96 %
29.12.2016 12:40 0,1 C 98 % 1041,7 hPa 0,0 l/m 2,1 km/h (1 Bft) O-SO 113 2 min 0,000 mm 0,2 UV-I 216 W/m -0,2 C 0,1 C 4,8 km/h (1 Bft) 97,87 %
29.12.2016 12:42 0,1 C 98 % 1041,7 hPa 0,0 l/m 4,2 km/h (1 Bft) O-NO 74 0 min 0,000 mm 0,0 UV-I 171 W/m -0,2 C 0,1 C 8,0 km/h (2 Bft) 97,87 %
29.12.2016 12:44 0,1 C 98 % 1041,7 hPa 0,0 l/m 6,5 km/h (2 Bft) O-NO 74 0 min 0,000 mm 0,0 UV-I 174 W/m -0,2 C 0,0 C 8,0 km/h (2 Bft) 98,00 %
29.12.2016 12:46 0,1 C 98 % 1041,7 hPa 0,0 l/m 3,6 km/h (1 Bft) O 86 2 min 0,000 mm 0,0 UV-I 205 W/m -0,2 C 0,1 C 4,8 km/h (1 Bft) 100,00 %
29.12.2016 12:48 0,2 C 98 % 1041,7 hPa 0,0 l/m 4,5 km/h (1 Bft) NO 46 0 min 0,000 mm 0,0 UV-I 166 W/m -0,1 C 0,2 C 8,0 km/h (2 Bft) 100,00 %
29.12.2016 12:50 0,2 C 98 % 1041,7 hPa 0,0 l/m 2,9 km/h (1 Bft) O-NO 58 0 min 0,000 mm 0,0 UV-I 131 W/m -0,1 C 0,2 C 4,8 km/h (1 Bft) 100,00 %
29.12.2016 12:52 0,2 C 98 % 1041,7 hPa 0,0 l/m 2,9 km/h (1 Bft) NO 56 0 min 0,000 mm 0,0 UV-I 88 W/m -0,1 C 0,2 C 4,8 km/h (1 Bft) 97,87 %
29.12.2016 12:54 0,1 C 98 % 1041,7 hPa 0,0 l/m 3,2 km/h (1 Bft) NO 56 0 min 0,000 mm 0,0 UV-I 91 W/m -0,2 C 0,1 C 4,8 km/h (1 Bft) 100,00 %
29.12.2016 12:56 0,0 C 98 % 1041,7 hPa 0,0 l/m 2,1 km/h (1 Bft) NO 56 0 min 0,000 mm 0,0 UV-I 126 W/m -0,3 C 0,0 C 4,8 km/h (1 Bft) 100,00 %
29.12.2016 12:58 0,0 C 98 % 1041,7 hPa 0,0 l/m 0,1 km/h (0 Bft) NO 56 2 min 0,000 mm 0,4 UV-I 213 W/m -0,3 C 0,0 C 1,6 km/h (1 Bft) 97,87 %
29.12.2016 13:00 0,3 C 98 % 1041,7 hPa 0,0 l/m 1,2 km/h (1 Bft) NO 52 2 min 0,051 mm 0,0 UV-I 213 W/m 0,0 C 0,3 C 4,8 km/h (1 Bft) 100,00 %
29.12.2016 13:02 0,6 C 98 % 1041,7 hPa 0,0 l/m 4,1 km/h (1 Bft) N 5 2 min 0,000 mm 0,2 UV-I 234 W/m 0,3 C 0,6 C 8,0 km/h (2 Bft) 100,00 %
29.12.2016 13:04 0,6 C 98 % 1041,7 hPa 0,0 l/m 4,4 km/h (1 Bft) N-NO 22 0 min 0,000 mm 0,1 UV-I 170 W/m 0,3 C 0,6 C 6,4 km/h (2 Bft) 100,00 %
29.12.2016 13:06 0,5 C 98 % 1041,6 hPa 0,0 l/m 5,2 km/h (1 Bft) NO 51 2 min 0,000 mm 0,5 UV-I 258 W/m 0,2 C 0,5 C 8,0 km/h (2 Bft) 100,00 %
29.12.2016 13:08 0,4 C 98 % 1041,7 hPa 0,0 l/m 3,0 km/h (1 Bft) NO 47 2 min 0,000 mm 0,3 UV-I 311 W/m 0,1 C 0,4 C 4,8 km/h (1 Bft) 95,74 %
29.12.2016 13:10 0,8 C 98 % 1041,7 hPa 0,0 l/m 7,1 km/h (2 Bft) N-NO 26 2 min 0,000 mm 0,2 UV-I 380 W/m 0,5 C 0,1 C 12,9 km/h (3 Bft) 95,74 %
29.12.2016 13:12 0,8 C 98 % 1041,7 hPa 0,0 l/m 8,6 km/h (2 Bft) NO 46 2 min 0,000 mm 0,0 UV-I 320 W/m 0,5 C -1,4 C 12,9 km/h (3 Bft) 97,87 %
29.12.2016 13:14 0,7 C 98 % 1041,7 hPa 0,0 l/m 6,3 km/h (2 Bft) NO 44 2 min 0,000 mm 0,4 UV-I 331 W/m 0,4 C 0,7 C 9,7 km/h (2 Bft) 94,74 %
29.12.2016 13:16 0,8 C 98 % 1041,6 hPa 0,0 l/m 3,0 km/h (1 Bft) N-NO 17 2 min 0,000 mm 0,0 UV-I 341 W/m 0,5 C 0,8 C 8,0 km/h (2 Bft) 98,04 %
29.12.2016 13:18 0,9 C 98 % 1041,6 hPa 0,0 l/m 4,2 km/h (1 Bft) N-NO 27 2 min 0,000 mm 0,0 UV-I 367 W/m 0,6 C 0,9 C 8,0 km/h (2 Bft) 91,49 %
29.12.2016 13:20 0,8 C 98 % 1041,6 hPa 0,0 l/m 2,2 km/h (1 Bft) N 11 2 min 0,000 mm 0,0 UV-I 269 W/m 0,5 C 0,8 C 6,4 km/h (2 Bft) 95,74 %
29.12.2016 13:22 0,7 C 98 % 1041,6 hPa 0,0 l/m 7,5 km/h (2 Bft) N-NO 30 0 min 0,000 mm 0,0 UV-I 137 W/m 0,4 C -0,4 C 11,3 km/h (2 Bft) 97,87 %
29.12.2016 13:24 0,5 C 98 % 1041,6 hPa 0,0 l/m 5,5 km/h (1 Bft) NO 36 0 min 0,000 mm 0,0 UV-I 154 W/m 0,2 C 0,5 C 9,7 km/h (2 Bft) 97,87 %
29.12.2016 13:26 0,5 C 98 % 1041,6 hPa 0,0 l/m 5,1 km/h (1 Bft) NO 42 2 min 0,000 mm 0,0 UV-I 244 W/m 0,2 C 0,5 C 8,0 km/h (2 Bft) 97,50 %
29.12.2016 13:28 0,6 C 98 % 1041,6 hPa 0,0 l/m 6,6 km/h (2 Bft) N-NO 33 2 min 0,000 mm 0,0 UV-I 283 W/m 0,3 C 0,4 C 8,0 km/h (2 Bft) 98,00 %
29.12.2016 13:30 0,6 C 98 % 1041,6 hPa 0,0 l/m 1,5 km/h (1 Bft) N-NO 28 2 min 0,000 mm 0,0 UV-I 173 W/m 0,3 C 0,6 C 6,4 km/h (2 Bft) 97,87 %
29.12.2016 13:32 0,6 C 98 % 1041,6 hPa 0,0 l/m 0,8 km/h (0 Bft) N-NO 33 0 min 0,000 mm 0,0 UV-I 124 W/m 0,3 C 0,6 C 3,2 km/h (1 Bft) 100,00 %
29.12.2016 13:34 0,5 C 98 % 1041,5 hPa 0,0 l/m 3,6 km/h (1 Bft) N-NO 30 0 min 0,000 mm 0,0 UV-I 87 W/m 0,2 C 0,5 C 8,0 km/h (2 Bft) 98,00 %
29.12.2016 13:36 0,4 C 98 % 1041,5 hPa 0,0 l/m 5,9 km/h (2 Bft) NO 46 0 min 0,000 mm 0,0 UV-I 125 W/m 0,1 C 0,4 C 11,3 km/h (2 Bft) 100,00 %
29.12.2016 13:38 0,4 C 98 % 1041,4 hPa 0,0 l/m 6,5 km/h (2 Bft) NO 45 2 min 0,000 mm 0,0 UV-I 224 W/m 0,1 C 0,3 C 8,0 km/h (2 Bft) 100,00 %
29.12.2016 13:40 0,4 C 98 % 1041,3 hPa 0,0 l/m 5,5 km/h (1 Bft) N-NO 21 2 min 0,000 mm 0,0 UV-I 188 W/m 0,1 C 0,4 C 8,0 km/h (2 Bft) 100,00 %
29.12.2016 13:42 0,4 C 98 % 1041,4 hPa 0,0 l/m 2,1 km/h (1 Bft) NO 54 0 min 0,000 mm 0,0 UV-I 145 W/m 0,1 C 0,4 C 4,8 km/h (1 Bft) 100,00 %
29.12.2016 13:44 0,3 C 98 % 1041,3 hPa 0,0 l/m 3,9 km/h (1 Bft) NO 55 0 min 0,000 mm 0,0 UV-I 126 W/m 0,0 C 0,3 C 6,4 km/h (2 Bft) 100,00 %
29.12.2016 13:46 0,3 C 98 % 1041,3 hPa 0,0 l/m 5,6 km/h (1 Bft) O-NO 59 0 min 0,000 mm 0,0 UV-I 122 W/m 0,0 C 0,3 C 8,0 km/h (2 Bft) 97,87 %
29.12.2016 13:48 0,2 C 97 % 1041,3 hPa 0,0 l/m 7,1 km/h (2 Bft) NO 41 0 min 0,000 mm 0,0 UV-I 122 W/m -0,2 C -0,5 C 9,7 km/h (2 Bft) 100,00 %
29.12.2016 13:50 0,2 C 97 % 1041,2 hPa 0,0 l/m 7,2 km/h (2 Bft) NO 45 0 min 0,000 mm 0,0 UV-I 139 W/m -0,2 C -0,6 C 9,7 km/h (2 Bft) 100,00 %
29.12.2016 13:52 0,2 C 97 % 1041,2 hPa 0,0 l/m 5,1 km/h (1 Bft) N-NO 18 0 min 0,000 mm 0,0 UV-I 143 W/m -0,2 C 0,2 C 9,7 km/h (2 Bft) 100,00 %
29.12.2016 13:54 0,2 C 97 % 1041,2 hPa 0,0 l/m 5,2 km/h (1 Bft) NO 53 2 min 0,000 mm 0,0 UV-I 153 W/m -0,2 C 0,2 C 6,4 km/h (2 Bft) 97,87 %
29.12.2016 13:56 0,1 C 97 % 1041,2 hPa 0,0 l/m 4,4 km/h (1 Bft) O-NO 63 2 min 0,000 mm 0,0 UV-I 174 W/m -0,3 C 0,1 C 6,4 km/h (2 Bft) 100,00 %
29.12.2016 13:58 0,1 C 98 % 1041,2 hPa 0,0 l/m 3,5 km/h (1 Bft) O-NO 63 2 min 0,000 mm 0,0 UV-I 160 W/m -0,2 C 0,1 C 6,4 km/h (2 Bft) 100,00 %
29.12.2016 14:00 0,0 C 98 % 1041,2 hPa 0,0 l/m 5,3 km/h (1 Bft) O-NO 69 0 min 0,076 mm 0,0 UV-I 127 W/m -0,3 C 0,0 C 8,0 km/h (2 Bft) 100,00 %
29.12.2016 14:02 0,0 C 98 % 1041,2 hPa 0,0 l/m 6,4 km/h (2 Bft) O-NO 77 0 min 0,000 mm 0,0 UV-I 111 W/m -0,3 C 0,0 C 8,0 km/h (2 Bft) 97,14 %
29.12.2016 14:04 0,0 C 98 % 1041,2 hPa 0,0 l/m 4,7 km/h (1 Bft) NO 55 0 min 0,000 mm 0,0 UV-I 99 W/m -0,3 C 0,0 C 6,4 km/h (2 Bft) 100,00 %
29.12.2016 14:06 -0,1 C 98 % 1041,1 hPa 0,0 l/m 3,0 km/h (1 Bft) NO 55 0 min 0,000 mm 0,0 UV-I 108 W/m -0,4 C -0,1 C 6,4 km/h (2 Bft) 100,00 %
29.12.2016 14:08 -0,1 C 97 % 1041,2 hPa 0,0 l/m 2,7 km/h (1 Bft) NO 39 0 min 0,000 mm 0,0 UV-I 105 W/m -0,5 C -0,1 C 4,8 km/h (1 Bft) 100,00 %
29.12.2016 14:10 0,1 C 98 % 1041,2 hPa 0,0 l/m 1,5 km/h (1 Bft) NO 34 0 min 0,000 mm 0,0 UV-I 88 W/m -0,2 C 0,1 C 4,8 km/h (1 Bft) 100,00 %
29.12.2016 14:12 0,1 C 98 % 1041,2 hPa 0,0 l/m 0,0 km/h (0 Bft) NO 34 0 min 0,000 mm 0,0 UV-I 85 W/m -0,2 C 0,1 C 0,0 km/h (0 Bft) 100,00 %
29.12.2016 14:14 0,1 C 98 % 1041,1 hPa 0,0 l/m 0,8 km/h (0 Bft) NO 34 0 min 0,000 mm 0,0 UV-I 83 W/m -0,2 C 0,1 C 3,2 km/h (1 Bft) 100,00 %
29.12.2016 14:16 0,2 C 98 % 1041,1 hPa 0,0 l/m 1,8 km/h (1 Bft) NO 38 0 min 0,000 mm 0,0 UV-I 86 W/m -0,1 C 0,2 C 4,8 km/h (1 Bft) 100,00 %
29.12.2016 14:18 0,1 C 98 % 1041,1 hPa 0,0 l/m 5,0 km/h (1 Bft) O-NO 70 0 min 0,000 mm 0,0 UV-I 91 W/m -0,2 C 0,1 C 9,7 km/h (2 Bft) 100,00 %
29.12.2016 14:20 0,0 C 98 % 1041,1 hPa 0,0 l/m 5,9 km/h (2 Bft) O-NO 71 0 min 0,000 mm 0,0 UV-I 87 W/m -0,3 C 0,0 C 9,7 km/h (2 Bft) 100,00 %
29.12.2016 14:22 -0,1 C 97 % 1041,1 hPa 0,0 l/m 6,3 km/h (2 Bft) O-NO 73 0 min 0,000 mm 0,0 UV-I 77 W/m -0,5 C -0,1 C 8,0 km/h (2 Bft) 100,00 %
29.12.2016 14:24 -0,2 C 97 % 1041,0 hPa 0,0 l/m 5,3 km/h (1 Bft) O-NO 69 0 min 0,000 mm 0,0 UV-I 85 W/m -0,6 C -0,2 C 8,0 km/h (2 Bft) 97,87 %
29.12.2016 14:26 -0,3 C 97 % 1041,0 hPa 0,0 l/m 5,6 km/h (1 Bft) O 99 0 min 0,000 mm 0,0 UV-I 111 W/m -0,7 C -0,3 C 9,7 km/h (2 Bft) 100,00 %
29.12.2016 14:28 -0,3 C 97 % 1041,0 hPa 0,0 l/m 5,3 km/h (1 Bft) O 81 0 min 0,000 mm 0,0 UV-I 106 W/m -0,7 C -0,3 C 6,4 km/h (2 Bft) 100,00 %
29.12.2016 14:30 -0,3 C 97 % 1041,0 hPa 0,0 l/m 3,5 km/h (1 Bft) O 82 0 min 0,000 mm 0,0 UV-I 111 W/m -0,7 C -0,3 C 11,3 km/h (2 Bft) 97,87 %
29.12.2016 14:32 -0,2 C 97 % 1041,0 hPa 0,0 l/m 7,9 km/h (2 Bft) O-NO 77 0 min 0,000 mm 0,0 UV-I 108 W/m -0,6 C -1,8 C 11,3 km/h (2 Bft) 100,00 %
29.12.2016 14:34 -0,2 C 97 % 1041,0 hPa 0,0 l/m 5,7 km/h (1 Bft) O-NO 77 0 min 0,000 mm 0,0 UV-I 109 W/m -0,6 C -0,2 C 8,0 km/h (2 Bft) 100,00 %
29.12.2016 14:36 -0,2 C 97 % 1041,0 hPa 0,0 l/m 10,3 km/h (2 Bft) O 89 0 min 0,000 mm 0,0 UV-I 93 W/m -0,6 C -3,9 C 12,9 km/h (3 Bft) 97,87 %
29.12.2016 14:38 -0,2 C 97 % 1040,9 hPa 0,0 l/m 7,1 km/h (2 Bft) O-NO 71 0 min 0,000 mm 0,0 UV-I 76 W/m -0,6 C -0,9 C 11,3 km/h (2 Bft) 100,00 %
29.12.2016 14:40 -0,2 C 97 % 1040,9 hPa 0,0 l/m 5,8 km/h (2 Bft) O-NO 57 0 min 0,000 mm 0,0 UV-I 72 W/m -0,6 C -0,2 C 9,7 km/h (2 Bft) 100,00 %
29.12.2016 14:42 -0,2 C 97 % 1040,9 hPa 0,0 l/m 8,3 km/h (2 Bft) O-NO 67 0 min 0,000 mm 0,0 UV-I 73 W/m -0,6 C -2,1 C 11,3 km/h (2 Bft) 100,00 %
29.12.2016 14:44 -0,3 C 97 % 1040,9 hPa 0,0 l/m 6,5 km/h (2 Bft) O-NO 65 0 min 0,000 mm 0,0 UV-I 76 W/m -0,7 C -0,4 C 9,7 km/h (2 Bft) 100,00 %
29.12.2016 14:46 -0,3 C 97 % 1040,9 hPa 0,0 l/m 5,8 km/h (2 Bft) O-NO 59 0 min 0,000 mm 0,0 UV-I 66 W/m -0,7 C -0,3 C 8,0 km/h (2 Bft) 97,87 %
29.12.2016 14:48 -0,3 C 97 % 1040,9 hPa 0,0 l/m 6,7 km/h (2 Bft) O-NO 73 0 min 0,000 mm 0,0 UV-I 58 W/m -0,7 C -0,6 C 11,3 km/h (2 Bft) 100,00 %
29.12.2016 14:50 -0,3 C 97 % 1041,0 hPa 0,0 l/m 5,7 km/h (1 Bft) O-SO 119 0 min 0,000 mm 0,0 UV-I 65 W/m -0,7 C -0,3 C 11,3 km/h (2 Bft) 97,87 %
29.12.2016 14:52 -0,4 C 97 % 1041,0 hPa 0,0 l/m 7,9 km/h (2 Bft) SO 130 0 min 0,000 mm 0,0 UV-I 60 W/m -0,8 C -2,0 C 12,9 km/h (3 Bft) 97,87 %
29.12.2016 14:54 -0,4 C 97 % 1041,0 hPa 0,0 l/m 7,8 km/h (2 Bft) SO 141 0 min 0,000 mm 0,0 UV-I 59 W/m -0,8 C -1,9 C 12,9 km/h (3 Bft) 97,87 %
29.12.2016 14:56 -0,5 C 97 % 1041,0 hPa 0,0 l/m 7,4 km/h (2 Bft) O-SO 108 0 min 0,000 mm 0,0 UV-I 60 W/m -0,9 C -1,6 C 11,3 km/h (2 Bft) 95,74 %
29.12.2016 14:58 -0,6 C 97 % 1041,0 hPa 0,0 l/m 2,3 km/h (1 Bft) O-SO 108 0 min 0,000 mm 0,0 UV-I 61 W/m -1,0 C -0,6 C 4,8 km/h (1 Bft) 97,92 %
29.12.2016 15:00 -0,6 C 97 % 1040,9 hPa 0,0 l/m 2,2 km/h (1 Bft) O-SO 108 0 min 0,025 mm 0,0 UV-I 68 W/m -1,0 C -0,6 C 4,8 km/h (1 Bft) 95,74 %
29.12.2016 15:02 -0,6 C 97 % 1040,9 hPa 0,0 l/m 4,8 km/h (1 Bft) O-SO 119 0 min 0,000 mm 0,0 UV-I 79 W/m -1,0 C -0,6 C 8,0 km/h (2 Bft) 97,87 %
29.12.2016 15:04 -0,4 C 97 % 1040,9 hPa 0,0 l/m 6,9 km/h (2 Bft) NO 55 0 min 0,000 mm 0,0 UV-I 77 W/m -0,8 C -0,9 C 9,7 km/h (2 Bft) 94,00 %
29.12.2016 15:06 -0,4 C 97 % 1040,9 hPa 0,0 l/m 4,6 km/h (1 Bft) O-NO 70 0 min 0,000 mm 0,0 UV-I 54 W/m -0,8 C -0,4 C 8,0 km/h (2 Bft) 97,87 %
29.12.2016 15:08 -0,4 C 97 % 1040,9 hPa 0,0 l/m 3,5 km/h (1 Bft) O-NO 73 0 min 0,000 mm 0,0 UV-I 39 W/m -0,8 C -0,4 C 6,4 km/h (2 Bft) 97,87 %
29.12.2016 15:10 -0,4 C 97 % 1040,9 hPa 0,0 l/m 3,5 km/h (1 Bft) O-NO 64 0 min 0,000 mm 0,0 UV-I 37 W/m -0,8 C -0,4 C 8,0 km/h (2 Bft) 95,74 %
29.12.2016 15:12 -0,4 C 97 % 1040,8 hPa 0,0 l/m 0,7 km/h (0 Bft) O 84 0 min 0,000 mm 0,0 UV-I 37 W/m -0,8 C -0,4 C 3,2 km/h (1 Bft) 97,87 %
29.12.2016 15:14 -0,5 C 97 % 1040,8 hPa 0,0 l/m 0,3 km/h (0 Bft) O 84 0 min 0,000 mm 0,0 UV-I 34 W/m -0,9 C -0,5 C 1,6 km/h (1 Bft) 94,74 %
29.12.2016 15:16 -0,4 C 97 % 1040,8 hPa 0,0 l/m 0,4 km/h (0 Bft) O 84 0 min 0,000 mm 0,0 UV-I 40 W/m -0,8 C -0,4 C 1,6 km/h (1 Bft) 95,74 %
29.12.2016 15:18 -0,4 C 97 % 1040,8 hPa 0,0 l/m 0,2 km/h (0 Bft) O 84 0 min 0,000 mm 0,0 UV-I 42 W/m -0,8 C -0,4 C 1,6 km/h (1 Bft) 97,87 %
29.12.2016 15:20 -0,4 C 97 % 1040,8 hPa 0,0 l/m 0,3 km/h (0 Bft) O 92 0 min 0,000 mm 0,0 UV-I 44 W/m -0,8 C -0,4 C 1,6 km/h (1 Bft) 97,87 %
29.12.2016 15:22 -0,6 C 98 % 1040,8 hPa 0,0 l/m 1,7 km/h (1 Bft) O-SO 115 0 min 0,000 mm 0,0 UV-I 40 W/m -0,9 C -0,6 C 4,8 km/h (1 Bft) 96,00 %
29.12.2016 15:24 -0,6 C 97 % 1040,8 hPa 0,0 l/m 2,6 km/h (1 Bft) O-SO 103 0 min 0,000 mm 0,0 UV-I 46 W/m -1,0 C -0,6 C 6,4 km/h (2 Bft) 97,87 %
29.12.2016 15:26 -0,7 C 97 % 1040,8 hPa 0,0 l/m 2,5 km/h (1 Bft) O-SO 103 0 min 0,000 mm 0,0 UV-I 50 W/m -1,1 C -0,7 C 6,4 km/h (2 Bft) 95,74 %
29.12.2016 15:28 -0,7 C 97 % 1040,8 hPa 0,0 l/m 5,0 km/h (1 Bft) O-NO 59 0 min 0,000 mm 0,0 UV-I 38 W/m -1,1 C -0,7 C 6,4 km/h (2 Bft) 100,00 %
29.12.2016 15:30 -0,8 C 97 % 1040,8 hPa 0,0 l/m 6,0 km/h (2 Bft) O-NO 68 0 min 0,000 mm 0,0 UV-I 28 W/m -1,2 C -0,8 C 9,7 km/h (2 Bft) 97,87 %
29.12.2016 15:32 -0,9 C 97 % 1040,8 hPa 0,0 l/m 6,5 km/h (2 Bft) O-NO 64 0 min 0,000 mm 0,0 UV-I 24 W/m -1,3 C -1,0 C 8,0 km/h (2 Bft) 100,00 %
29.12.2016 15:34 -1,0 C 97 % 1040,9 hPa 0,0 l/m 8,6 km/h (2 Bft) O-NO 65 0 min 0,000 mm 0,0 UV-I 22 W/m -1,4 C -3,3 C 11,3 km/h (2 Bft) 97,87 %
29.12.2016 15:36 -1,1 C 97 % 1040,8 hPa 0,0 l/m 5,3 km/h (1 Bft) O-NO 65 0 min 0,000 mm 0,0 UV-I 18 W/m -1,5 C -1,1 C 8,0 km/h (2 Bft) 100,00 %
29.12.2016 15:38 -1,2 C 97 % 1040,8 hPa 0,0 l/m 4,0 km/h (1 Bft) O-NO 57 0 min 0,000 mm 0,0 UV-I 19 W/m -1,6 C -1,2 C 6,4 km/h (2 Bft) 97,87 %
29.12.2016 15:40 -1,2 C 97 % 1040,7 hPa 0,0 l/m 5,0 km/h (1 Bft) O-NO 66 0 min 0,000 mm 0,0 UV-I 21 W/m -1,6 C -1,2 C 8,0 km/h (2 Bft) 100,00 %
29.12.2016 15:42 -1,2 C 97 % 1040,8 hPa 0,0 l/m 3,5 km/h (1 Bft) O-NO 77 0 min 0,000 mm 0,0 UV-I 20 W/m -1,6 C -1,2 C 6,4 km/h (2 Bft) 97,92 %
29.12.2016 15:44 -1,2 C 97 % 1040,8 hPa 0,0 l/m 5,2 km/h (1 Bft) O-NO 62 0 min 0,000 mm 0,0 UV-I 18 W/m -1,6 C -1,2 C 8,0 km/h (2 Bft) 100,00 %
29.12.2016 15:46 -1,2 C 98 % 1040,8 hPa 0,0 l/m 6,4 km/h (2 Bft) NO 49 0 min 0,000 mm 0,0 UV-I 14 W/m -1,5 C -1,2 C 8,0 km/h (2 Bft) 100,00 %
29.12.2016 15:48 -1,2 C 98 % 1040,9 hPa 0,0 l/m 5,1 km/h (1 Bft) O-NO 64 0 min 0,000 mm 0,0 UV-I 16 W/m -1,5 C -1,2 C 8,0 km/h (2 Bft) 97,87 %
29.12.2016 15:50 -1,3 C 98 % 1040,9 hPa 0,0 l/m 4,8 km/h (1 Bft) O-NO 68 0 min 0,000 mm 0,0 UV-I 14 W/m -1,6 C -1,3 C 8,0 km/h (2 Bft) 100,00 %
29.12.2016 15:52 -1,3 C 98 % 1041,0 hPa 0,0 l/m 7,2 km/h (2 Bft) O-NO 75 0 min 0,000 mm 0,0 UV-I 15 W/m -1,6 C -2,2 C 9,7 km/h (2 Bft) 100,00 %
29.12.2016 15:54 -1,3 C 98 % 1041,0 hPa 0,0 l/m 7,6 km/h (2 Bft) O-NO 71 0 min 0,000 mm 0,0 UV-I 16 W/m -1,6 C -2,6 C 11,3 km/h (2 Bft) 100,00 %
29.12.2016 15:56 -1,3 C 98 % 1041,0 hPa 0,0 l/m 6,4 km/h (2 Bft) O-NO 69 0 min 0,000 mm 0,0 UV-I 15 W/m -1,6 C -1,3 C 9,7 km/h (2 Bft) 100,00 %
29.12.2016 15:58 -1,2 C 97 % 1040,9 hPa 0,0 l/m 6,1 km/h (2 Bft) O-NO 76 0 min 0,000 mm 0,0 UV-I 14 W/m -1,6 C -1,2 C 11,3 km/h (2 Bft) 95,74 %
29.12.2016 16:00 -1,2 C 97 % 1040,9 hPa 0,0 l/m 5,4 km/h (1 Bft) O 88 0 min 0,000 mm 0,0 UV-I 14 W/m -1,6 C -1,2 C 6,4 km/h (2 Bft) 100,00 %
29.12.2016 16:03 -1,2 C 98 % 1040,9 hPa 0,0 l/m 3,8 km/h (1 Bft) N 355 0 min 0,000 mm 0,0 UV-I 11 W/m -1,5 C -1,2 C 8,0 km/h (2 Bft) 97,18 %
29.12.2016 16:04 -1,1 C 98 % 1040,9 hPa 0,0 l/m 1,1 km/h (1 Bft) N 11 0 min 0,000 mm 0,0 UV-I 9 W/m -1,4 C -1,1 C 3,2 km/h (1 Bft) 100,00 %
29.12.2016 16:06 -1,1 C 98 % 1040,9 hPa 0,0 l/m 2,0 km/h (1 Bft) NO 38 0 min 0,000 mm 0,0 UV-I 9 W/m -1,4 C -1,1 C 6,4 km/h (2 Bft) 100,00 %
29.12.2016 16:08 -1,1 C 98 % 1040,9 hPa 0,0 l/m 6,9 km/h (2 Bft) N 11 0 min 0,000 mm 0,0 UV-I 7 W/m -1,4 C -1,6 C 11,3 km/h (2 Bft) 97,87 %
29.12.2016 16:10 -1,1 C 98 % 1040,9 hPa 0,0 l/m 3,6 km/h (1 Bft) N-NO 17 0 min 0,000 mm 0,0 UV-I 7 W/m -1,4 C -1,1 C 6,4 km/h (2 Bft) 97,87 %
29.12.2016 16:12 -1,2 C 98 % 1041,0 hPa 0,0 l/m 6,3 km/h (2 Bft) NO 55 0 min 0,000 mm 0,0 UV-I 7 W/m -1,5 C -1,2 C 9,7 km/h (2 Bft) 96,00 %
29.12.2016 16:14 -1,2 C 98 % 1040,9 hPa 0,0 l/m 5,1 km/h (1 Bft) O-NO 65 0 min 0,000 mm 0,0 UV-I 7 W/m -1,5 C -1,2 C 6,4 km/h (2 Bft) 100,00 %
29.12.2016 16:16 -1,3 C 97 % 1040,9 hPa 0,0 l/m 4,8 km/h (1 Bft) O-NO 61 0 min 0,000 mm 0,0 UV-I 6 W/m -1,7 C -1,3 C 6,4 km/h (2 Bft) 100,00 %
29.12.2016 16:18 -1,3 C 97 % 1041,0 hPa 0,0 l/m 5,9 km/h (2 Bft) NO 36 0 min 0,000 mm 0,0 UV-I 5 W/m -1,7 C -1,3 C 9,7 km/h (2 Bft) 100,00 %
29.12.2016 16:20 -1,4 C 98 % 1041,1 hPa 0,0 l/m 7,8 km/h (2 Bft) NO 42 0 min 0,000 mm 0,0 UV-I 5 W/m -1,7 C -2,9 C 11,3 km/h (2 Bft) 100,00 %
29.12.2016 16:22 -1,4 C 98 % 1041,1 hPa 0,0 l/m 6,8 km/h (2 Bft) NO 42 0 min 0,000 mm 0,0 UV-I 5 W/m -1,7 C -1,8 C 9,7 km/h (2 Bft) 100,00 %
29.12.2016 16:24 -1,5 C 98 % 1041,0 hPa 0,0 l/m 3,1 km/h (1 Bft) NO 49 0 min 0,000 mm 0,0 UV-I 5 W/m -1,8 C -1,5 C 4,8 km/h (1 Bft) 100,00 %
29.12.2016 16:26 -1,5 C 98 % 1041,0 hPa 0,0 l/m 5,0 km/h (1 Bft) O-NO 58 0 min 0,000 mm 0,0 UV-I 5 W/m -1,8 C -1,5 C 8,0 km/h (2 Bft) 97,87 %
29.12.2016 16:28 -1,5 C 98 % 1040,9 hPa 0,0 l/m 6,3 km/h (2 Bft) O-NO 68 0 min 0,000 mm 0,0 UV-I 2 W/m -1,8 C -1,5 C 8,0 km/h (2 Bft) 100,00 %
29.12.2016 16:30 -1,5 C 98 % 1040,9 hPa 0,0 l/m 7,3 km/h (2 Bft) N-NO 16 0 min 0,000 mm 0,0 UV-I 0 W/m -1,8 C -2,5 C 11,3 km/h (2 Bft) 98,00 %
29.12.2016 16:32 -1,5 C 98 % 1040,8 hPa 0,0 l/m 2,9 km/h (1 Bft) N-NO 29 0 min 0,000 mm 0,0 UV-I 0 W/m -1,8 C -1,5 C 8,0 km/h (2 Bft) 98,11 %
29.12.2016 16:34 -1,5 C 98 % 1040,8 hPa 0,0 l/m 2,1 km/h (1 Bft) N-NO 31 0 min 0,000 mm 0,0 UV-I 0 W/m -1,8 C -1,5 C 4,8 km/h (1 Bft) 100,00 %
29.12.2016 16:36 -1,5 C 98 % 1040,9 hPa 0,0 l/m 0,0 km/h (0 Bft) N-NO 31 0 min 0,000 mm 0,0 UV-I 0 W/m -1,8 C -1,5 C 1,6 km/h (1 Bft) 100,00 %
29.12.2016 16:38 -1,4 C 98 % 1040,9 hPa 0,0 l/m 0,5 km/h (0 Bft) N-NO 31 0 min 0,000 mm 0,0 UV-I 0 W/m -1,7 C -1,4 C 3,2 km/h (1 Bft) 100,00 %
29.12.2016 16:40 -1,4 C 98 % 1040,9 hPa 0,0 l/m 3,5 km/h (1 Bft) N-NO 24 0 min 0,000 mm 0,0 UV-I 0 W/m -1,7 C -1,4 C 6,4 km/h (2 Bft) 97,14 %
29.12.2016 16:42 -1,3 C 98 % 1040,9 hPa 0,0 l/m 3,9 km/h (1 Bft) NO 38 0 min 0,000 mm 0,0 UV-I 0 W/m -1,6 C -1,3 C 6,4 km/h (2 Bft) 98,39 %
29.12.2016 16:44 -1,3 C 98 % 1040,9 hPa 0,0 l/m 4,9 km/h (1 Bft) O 80 0 min 0,000 mm 0,0 UV-I 0 W/m -1,6 C -1,3 C 8,0 km/h (2 Bft) 100,00 %
29.12.2016 16:46 -1,3 C 98 % 1040,9 hPa 0,0 l/m 6,8 km/h (2 Bft) O 83 0 min 0,000 mm 0,0 UV-I 0 W/m -1,6 C -1,7 C 9,7 km/h (2 Bft) 97,87 %
29.12.2016 16:48 -1,4 C 98 % 1040,9 hPa 0,0 l/m 4,9 km/h (1 Bft) O 88 0 min 0,000 mm 0,0 UV-I 0 W/m -1,7 C -1,4 C 8,0 km/h (2 Bft) 97,87 %
29.12.2016 16:50 -1,4 C 98 % 1040,9 hPa 0,0 l/m 8,0 km/h (2 Bft) O-NO 62 0 min 0,000 mm 0,0 UV-I 0 W/m -1,7 C -3,1 C 14,5 km/h (3 Bft) 97,87 %
29.12.2016 16:52 -1,5 C 98 % 1040,9 hPa 0,0 l/m 6,7 km/h (2 Bft) O-NO 65 0 min 0,000 mm 0,0 UV-I 0 W/m -1,8 C -1,8 C 11,3 km/h (2 Bft) 97,87 %
29.12.2016 16:54 -1,6 C 97 % 1040,9 hPa 0,0 l/m 4,1 km/h (1 Bft) O 85 0 min 0,000 mm 0,0 UV-I 0 W/m -2,0 C -1,6 C 8,0 km/h (2 Bft) 100,00 %
29.12.2016 16:56 -1,7 C 97 % 1040,9 hPa 0,0 l/m 4,2 km/h (1 Bft) O 84 0 min 0,000 mm 0,0 UV-I 0 W/m -2,1 C -1,7 C 6,4 km/h (2 Bft) 100,00 %
29.12.2016 16:58 -1,7 C 97 % 1040,8 hPa 0,0 l/m 1,6 km/h (1 Bft) O 93 0 min 0,000 mm 0,0 UV-I 0 W/m -2,1 C -1,7 C 6,4 km/h (2 Bft) 95,74 %
29.12.2016 17:00 -1,7 C 97 % 1040,8 hPa 0,0 l/m 3,1 km/h (1 Bft) O 93 0 min 0,000 mm 0,0 UV-I 0 W/m -2,1 C -1,7 C 4,8 km/h (1 Bft) 94,44 %
29.12.2016 17:02 -1,7 C 98 % 1040,8 hPa 0,0 l/m 3,7 km/h (1 Bft) O-NO 73 0 min 0,000 mm 0,0 UV-I 0 W/m -2,0 C -1,7 C 8,0 km/h (2 Bft) 98,00 %
29.12.2016 17:04 -1,7 C 98 % 1040,9 hPa 0,0 l/m 6,5 km/h (2 Bft) O 94 0 min 0,000 mm 0,0 UV-I 0 W/m -2,0 C -1,8 C 11,3 km/h (2 Bft) 97,87 %
29.12.2016 17:06 -1,7 C 98 % 1040,9 hPa 0,0 l/m 5,2 km/h (1 Bft) O-NO 71 0 min 0,000 mm 0,0 UV-I 0 W/m -2,0 C -1,7 C 8,0 km/h (2 Bft) 96,00 %
29.12.2016 17:08 -1,7 C 98 % 1040,9 hPa 0,0 l/m 5,6 km/h (1 Bft) O-NO 72 0 min 0,000 mm 0,0 UV-I 0 W/m -2,0 C -1,7 C 11,3 km/h (2 Bft) 97,87 %
29.12.2016 17:10 -1,7 C 98 % 1040,9 hPa 0,0 l/m 5,6 km/h (1 Bft) O-NO 73 0 min 0,000 mm 0,0 UV-I 0 W/m -2,0 C -1,7 C 9,7 km/h (2 Bft) 97,96 %
29.12.2016 17:12 -1,8 C 98 % 1040,9 hPa 0,0 l/m 6,5 km/h (2 Bft) O-NO 67 0 min 0,000 mm 0,0 UV-I 0 W/m -2,1 C -1,9 C 9,7 km/h (2 Bft) 97,87 %
29.12.2016 17:14 -1,8 C 98 % 1040,9 hPa 0,0 l/m 5,7 km/h (1 Bft) O-NO 69 0 min 0,000 mm 0,0 UV-I 0 W/m -2,1 C -1,8 C 8,0 km/h (2 Bft) 95,74 %
29.12.2016 17:16 -1,7 C 98 % 1040,9 hPa 0,0 l/m 4,7 km/h (1 Bft) O 99 0 min 0,000 mm 0,0 UV-I 0 W/m -2,0 C -1,7 C 8,0 km/h (2 Bft) 97,37 %
29.12.2016 17:18 -1,7 C 98 % 1040,9 hPa 0,0 l/m 6,1 km/h (2 Bft) O 93 0 min 0,000 mm 0,0 UV-I 0 W/m -2,0 C -1,7 C 11,3 km/h (2 Bft) 97,87 %
29.12.2016 17:20 -1,7 C 98 % 1040,8 hPa 0,0 l/m 5,1 km/h (1 Bft) O-SO 117 0 min 0,000 mm 0,0 UV-I 0 W/m -2,0 C -1,7 C 9,7 km/h (2 Bft) 97,87 %
29.12.2016 17:22 -1,7 C 98 % 1040,9 hPa 0,0 l/m 5,2 km/h (1 Bft) SO 125 0 min 0,000 mm 0,0 UV-I 0 W/m -2,0 C -1,7 C 9,7 km/h (2 Bft) 95,74 %
29.12.2016 17:24 -1,7 C 98 % 1040,9 hPa 0,0 l/m 9,5 km/h (2 Bft) O-SO 106 0 min 0,000 mm 0,0 UV-I 0 W/m -2,0 C -4,9 C 12,9 km/h (3 Bft) 91,49 %
29.12.2016 17:26 -1,7 C 98 % 1040,8 hPa 0,0 l/m 7,3 km/h (2 Bft) O-NO 66 0 min 0,000 mm 0,0 UV-I 0 W/m -2,0 C -2,7 C 11,3 km/h (2 Bft) 95,74 %
29.12.2016 17:28 -1,8 C 98 % 1040,8 hPa 0,0 l/m 4,8 km/h (1 Bft) NO 54 0 min 0,000 mm 0,0 UV-I 0 W/m -2,1 C -1,8 C 6,4 km/h (2 Bft) 98,00 %
29.12.2016 17:30 -1,8 C 98 % 1040,8 hPa 0,0 l/m 4,5 km/h (1 Bft) SO 130 0 min 0,000 mm 0,0 UV-I 0 W/m -2,1 C -1,8 C 6,4 km/h (2 Bft) 97,87 %
29.12.2016 17:32 -1,8 C 98 % 1040,8 hPa 0,0 l/m 3,8 km/h (1 Bft) O-NO 65 0 min 0,000 mm 0,0 UV-I 0 W/m -2,1 C -1,8 C 11,3 km/h (2 Bft) 100,00 %
29.12.2016 17:34 -1,8 C 98 % 1040,8 hPa 0,0 l/m 4,5 km/h (1 Bft) SO 138 0 min 0,000 mm 0,0 UV-I 0 W/m -2,1 C -1,8 C 11,3 km/h (2 Bft) 100,00 %
29.12.2016 17:36 -1,9 C 98 % 1040,8 hPa 0,0 l/m 1,8 km/h (1 Bft) SO 138 0 min 0,000 mm 0,0 UV-I 0 W/m -2,2 C -1,9 C 4,8 km/h (1 Bft) 100,00 %
29.12.2016 17:38 -1,9 C 98 % 1040,8 hPa 0,0 l/m 4,7 km/h (1 Bft) O 96 0 min 0,000 mm 0,0 UV-I 0 W/m -2,2 C -1,9 C 12,9 km/h (3 Bft) 100,00 %
29.12.2016 17:40 -1,9 C 98 % 1040,8 hPa 0,0 l/m 4,4 km/h (1 Bft) SO 143 0 min 0,000 mm 0,0 UV-I 0 W/m -2,2 C -1,9 C 9,7 km/h (2 Bft) 100,00 %
29.12.2016 17:42 -1,9 C 98 % 1040,8 hPa 0,0 l/m 5,2 km/h (1 Bft) O-SO 111 0 min 0,000 mm 0,0 UV-I 0 W/m -2,2 C -1,9 C 11,3 km/h (2 Bft) 100,00 %
29.12.2016 17:44 -2,0 C 98 % 1040,9 hPa 0,0 l/m 4,5 km/h (1 Bft) O 80 0 min 0,000 mm 0,0 UV-I 0 W/m -2,3 C -2,0 C 8,0 km/h (2 Bft) 100,00 %
29.12.2016 17:46 -2,1 C 98 % 1040,9 hPa 0,0 l/m 5,3 km/h (1 Bft) O 81 0 min 0,000 mm 0,0 UV-I 0 W/m -2,4 C -2,1 C 8,0 km/h (2 Bft) 100,00 %
29.12.2016 17:48 -2,1 C 98 % 1040,9 hPa 0,0 l/m 2,8 km/h (1 Bft) O 96 0 min 0,000 mm 0,0 UV-I 0 W/m -2,4 C -2,1 C 4,8 km/h (1 Bft) 93,88 %
29.12.2016 17:50 -2,1 C 98 % 1040,9 hPa 0,0 l/m 2,6 km/h (1 Bft) O 98 0 min 0,000 mm 0,0 UV-I 0 W/m -2,4 C -2,1 C 4,8 km/h (1 Bft) 95,74 %
29.12.2016 17:52 -2,1 C 98 % 1040,9 hPa 0,0 l/m 2,2 km/h (1 Bft) O-SO 104 0 min 0,000 mm 0,0 UV-I 0 W/m -2,4 C -2,1 C 4,8 km/h (1 Bft) 98,00 %
29.12.2016 17:54 -2,1 C 98 % 1040,9 hPa 0,0 l/m 2,4 km/h (1 Bft) O-SO 106 0 min 0,000 mm 0,0 UV-I 0 W/m -2,4 C -2,1 C 6,4 km/h (2 Bft) 100,00 %
29.12.2016 17:56 -2,1 C 98 % 1040,9 hPa 0,0 l/m 4,0 km/h (1 Bft) O-SO 106 0 min 0,000 mm 0,0 UV-I 0 W/m -2,4 C -2,1 C 6,4 km/h (2 Bft) 100,00 %
29.12.2016 17:58 -2,1 C 98 % 1040,9 hPa 0,0 l/m 3,1 km/h (1 Bft) O-SO 106 0 min 0,000 mm 0,0 UV-I 0 W/m -2,4 C -2,1 C 4,8 km/h (1 Bft) 100,00 %
29.12.2016 18:00 -2,1 C 98 % 1041,0 hPa 0,0 l/m 1,1 km/h (1 Bft) O-SO 106 0 min 0,000 mm 0,0 UV-I 0 W/m -2,4 C -2,1 C 3,2 km/h (1 Bft) 100,00 %
29.12.2016 18:02 -2,1 C 98 % 1041,0 hPa 0,0 l/m 2,0 km/h (1 Bft) O-SO 106 0 min 0,000 mm 0,0 UV-I 0 W/m -2,4 C -2,1 C 4,8 km/h (1 Bft) 100,00 %
29.12.2016 18:04 -2,1 C 98 % 1041,0 hPa 0,0 l/m 1,6 km/h (1 Bft) O-SO 106 0 min 0,000 mm 0,0 UV-I 0 W/m -2,4 C -2,1 C 3,2 km/h (1 Bft) 97,87 %
29.12.2016 18:06 -2,2 C 98 % 1041,0 hPa 0,0 l/m 0,8 km/h (0 Bft) O-SO 106 0 min 0,000 mm 0,0 UV-I 0 W/m -2,5 C -2,2 C 3,2 km/h (1 Bft) 100,00 %
29.12.2016 18:08 -2,2 C 98 % 1040,9 hPa 0,0 l/m 1,4 km/h (1 Bft) O-SO 106 0 min 0,000 mm 0,0 UV-I 0 W/m -2,5 C -2,2 C 3,2 km/h (1 Bft) 100,00 %
29.12.2016 18:10 -2,2 C 98 % 1040,9 hPa 0,0 l/m 0,8 km/h (0 Bft) O-SO 107 0 min 0,000 mm 0,0 UV-I 0 W/m -2,5 C -2,2 C 3,2 km/h (1 Bft) 97,87 %
29.12.2016 18:12 -2,1 C 98 % 1040,9 hPa 0,0 l/m 1,7 km/h (1 Bft) SO 133 0 min 0,000 mm 0,0 UV-I 0 W/m -2,4 C -2,1 C 4,8 km/h (1 Bft) 97,92 %
29.12.2016 18:14 -2,1 C 98 % 1040,9 hPa 0,0 l/m 1,4 km/h (1 Bft) SO 133 0 min 0,000 mm 0,0 UV-I 0 W/m -2,4 C -2,1 C 3,2 km/h (1 Bft) 93,62 %
29.12.2016 18:16 -2,2 C 98 % 1040,9 hPa 0,0 l/m 1,4 km/h (1 Bft) SO 133 0 min 0,000 mm 0,0 UV-I 0 W/m -2,5 C -2,2 C 3,2 km/h (1 Bft) 97,92 %
29.12.2016 18:18 -2,1 C 98 % 1040,9 hPa 0,0 l/m 0,4 km/h (0 Bft) SO 133 0 min 0,000 mm 0,0 UV-I 0 W/m -2,4 C -2,1 C 3,2 km/h (1 Bft) 100,00 %
29.12.2016 18:20 -2,1 C 98 % 1041,0 hPa 0,0 l/m 1,9 km/h (1 Bft) SO 133 0 min 0,000 mm 0,0 UV-I 0 W/m -2,4 C -2,1 C 4,8 km/h (1 Bft) 100,00 %
29.12.2016 18:22 -2,1 C 98 % 1041,0 hPa 0,0 l/m 3,0 km/h (1 Bft) SO 133 0 min 0,000 mm 0,0 UV-I 0 W/m -2,4 C -2,1 C 4,8 km/h (1 Bft) 100,00 %
29.12.2016 18:24 -2,0 C 98 % 1041,0 hPa 0,0 l/m 2,9 km/h (1 Bft) O-SO 121 0 min 0,000 mm 0,0 UV-I 0 W/m -2,3 C -2,0 C 6,4 km/h (2 Bft) 98,00 %
29.12.2016 18:26 -2,1 C 98 % 1041,1 hPa 0,0 l/m 2,0 km/h (1 Bft) O-SO 107 0 min 0,000 mm 0,0 UV-I 0 W/m -2,4 C -2,1 C 3,2 km/h (1 Bft) 97,87 %
29.12.2016 18:28 -2,1 C 98 % 1041,0 hPa 0,0 l/m 2,3 km/h (1 Bft) O-SO 107 0 min 0,000 mm 0,0 UV-I 0 W/m -2,4 C -2,1 C 4,8 km/h (1 Bft) 100,00 %
29.12.2016 18:30 -2,2 C 98 % 1041,0 hPa 0,0 l/m 3,7 km/h (1 Bft) O-NO 65 0 min 0,000 mm 0,0 UV-I 0 W/m -2,5 C -2,2 C 6,4 km/h (2 Bft) 95,74 %
29.12.2016 18:32 -2,2 C 98 % 1041,0 hPa 0,0 l/m 4,6 km/h (1 Bft) O-NO 64 0 min 0,000 mm 0,0 UV-I 0 W/m -2,5 C -2,2 C 6,4 km/h (2 Bft) 100,00 %
29.12.2016 18:34 -2,2 C 98 % 1041,0 hPa 0,0 l/m 4,4 km/h (1 Bft) O-NO 63 0 min 0,000 mm 0,0 UV-I 0 W/m -2,5 C -2,2 C 6,4 km/h (2 Bft) 100,00 %
29.12.2016 18:36 -2,3 C 98 % 1041,0 hPa 0,0 l/m 2,1 km/h (1 Bft) O-NO 63 0 min 0,000 mm 0,0 UV-I 0 W/m -2,6 C -2,3 C 4,8 km/h (1 Bft) 93,62 %
29.12.2016 18:38 -2,3 C 98 % 1041,1 hPa 0,0 l/m 0,7 km/h (0 Bft) O-NO 63 0 min 0,000 mm 0,0 UV-I 0 W/m -2,6 C -2,3 C 3,2 km/h (1 Bft) 100,00 %
29.12.2016 18:40 -2,2 C 98 % 1041,1 hPa 0,0 l/m 1,1 km/h (1 Bft) O-NO 63 0 min 0,000 mm 0,0 UV-I 0 W/m -2,5 C -2,2 C 3,2 km/h (1 Bft) 100,00 %
29.12.2016 18:42 -2,2 C 98 % 1041,1 hPa 0,0 l/m 2,1 km/h (1 Bft) NO 54 0 min 0,000 mm 0,0 UV-I 0 W/m -2,5 C -2,2 C 6,4 km/h (2 Bft) 95,74 %
29.12.2016 18:44 -2,2 C 98 % 1041,2 hPa 0,0 l/m 5,0 km/h (1 Bft) O-NO 60 0 min 0,000 mm 0,0 UV-I 0 W/m -2,5 C -2,2 C 6,4 km/h (2 Bft) 97,87 %
29.12.2016 18:46 -2,2 C 98 % 1041,2 hPa 0,0 l/m 5,0 km/h (1 Bft) NO 49 0 min 0,000 mm 0,0 UV-I 0 W/m -2,5 C -2,2 C 8,0 km/h (2 Bft) 97,87 %
29.12.2016 18:48 -2,2 C 98 % 1041,2 hPa 0,0 l/m 5,9 km/h (2 Bft) N-NO 30 0 min 0,000 mm 0,0 UV-I 0 W/m -2,5 C -2,2 C 8,0 km/h (2 Bft) 98,00 %
29.12.2016 18:50 -2,2 C 98 % 1041,2 hPa 0,0 l/m 7,7 km/h (2 Bft) O-NO 59 0 min 0,000 mm 0,0 UV-I 0 W/m -2,5 C -3,6 C 9,7 km/h (2 Bft) 100,00 %
29.12.2016 18:52 -2,3 C 98 % 1041,2 hPa 0,0 l/m 5,9 km/h (2 Bft) NO 53 0 min 0,000 mm 0,0 UV-I 0 W/m -2,6 C -2,3 C 9,7 km/h (2 Bft) 100,00 %
29.12.2016 18:54 -2,3 C 98 % 1041,2 hPa 0,0 l/m 2,6 km/h (1 Bft) NO 53 0 min 0,000 mm 0,0 UV-I 0 W/m -2,6 C -2,3 C 4,8 km/h (1 Bft) 100,00 %
29.12.2016 18:56 -2,4 C 98 % 1041,1 hPa 0,0 l/m 2,4 km/h (1 Bft) O-NO 60 0 min 0,000 mm 0,0 UV-I 0 W/m -2,7 C -2,4 C 4,8 km/h (1 Bft) 97,87 %
29.12.2016 18:58 -2,4 C 98 % 1041,1 hPa 0,0 l/m 2,6 km/h (1 Bft) O-NO 60 0 min 0,000 mm 0,0 UV-I 0 W/m -2,7 C -2,4 C 4,8 km/h (1 Bft) 100,00 %
29.12.2016 19:00 -2,4 C 98 % 1041,1 hPa 0,0 l/m 3,8 km/h (1 Bft) O-NO 65 0 min 0,000 mm 0,0 UV-I 0 W/m -2,7 C -2,4 C 6,4 km/h (2 Bft) 97,87 %
29.12.2016 19:02 -2,4 C 98 % 1041,1 hPa 0,0 l/m 5,1 km/h (1 Bft) NO 34 0 min 0,000 mm 0,0 UV-I 0 W/m -2,7 C -2,4 C 8,0 km/h (2 Bft) 95,74 %
29.12.2016 19:04 -2,3 C 98 % 1041,2 hPa 0,0 l/m 4,9 km/h (1 Bft) N-NO 24 0 min 0,000 mm 0,0 UV-I 0 W/m -2,6 C -2,3 C 8,0 km/h (2 Bft) 95,74 %
29.12.2016 19:06 -2,4 C 98 % 1041,2 hPa 0,0 l/m 1,4 km/h (1 Bft) N-NO 24 0 min 0,000 mm 0,0 UV-I 0 W/m -2,7 C -2,4 C 4,8 km/h (1 Bft) 95,74 %
29.12.2016 19:08 -2,4 C 98 % 1041,2 hPa 0,0 l/m 3,5 km/h (1 Bft) NO 42 0 min 0,000 mm 0,0 UV-I 0 W/m -2,7 C -2,4 C 8,0 km/h (2 Bft) 95,74 %
29.12.2016 19:10 -2,3 C 98 % 1041,2 hPa 0,0 l/m 5,6 km/h (1 Bft) NO 44 0 min 0,000 mm 0,0 UV-I 0 W/m -2,6 C -2,3 C 8,0 km/h (2 Bft) 97,87 %
29.12.2016 19:12 -2,3 C 98 % 1041,1 hPa 0,0 l/m 3,1 km/h (1 Bft) N-NO 23 0 min 0,000 mm 0,0 UV-I 0 W/m -2,6 C -2,3 C 6,4 km/h (2 Bft) 98,00 %
29.12.2016 19:14 -2,2 C 97 % 1041,1 hPa 0,0 l/m 0,9 km/h (0 Bft) N-NO 23 0 min 0,000 mm 0,0 UV-I 0 W/m -2,6 C -2,2 C 4,8 km/h (1 Bft) 97,87 %
29.12.2016 19:16 -2,2 C 97 % 1041,2 hPa 0,0 l/m 4,9 km/h (1 Bft) NO 42 0 min 0,000 mm 0,0 UV-I 0 W/m -2,6 C -2,2 C 6,4 km/h (2 Bft) 95,74 %
29.12.2016 19:18 -2,2 C 97 % 1041,2 hPa 0,0 l/m 4,7 km/h (1 Bft) NO 55 0 min 0,000 mm 0,0 UV-I 0 W/m -2,6 C -2,2 C 8,0 km/h (2 Bft) 97,87 %
29.12.2016 19:20 -2,3 C 97 % 1041,2 hPa 0,0 l/m 6,6 km/h (2 Bft) NO 41 0 min 0,000 mm 0,0 UV-I 0 W/m -2,7 C -2,5 C 9,7 km/h (2 Bft) 93,62 %
29.12.2016 19:22 -2,3 C 97 % 1041,2 hPa 0,0 l/m 6,0 km/h (2 Bft) NO 49 0 min 0,000 mm 0,0 UV-I 0 W/m -2,7 C -2,3 C 9,7 km/h (2 Bft) 93,62 %
29.12.2016 19:24 -2,3 C 97 % 1041,2 hPa 0,0 l/m 3,3 km/h (1 Bft) NO 40 0 min 0,000 mm 0,0 UV-I 0 W/m -2,7 C -2,3 C 4,8 km/h (1 Bft) 97,87 %
29.12.2016 19:26 -2,4 C 97 % 1041,2 hPa 0,0 l/m 4,3 km/h (1 Bft) NO 46 0 min 0,000 mm 0,0 UV-I 0 W/m -2,8 C -2,4 C 6,4 km/h (2 Bft) 97,87 %
29.12.2016 19:28 -2,4 C 97 % 1041,3 hPa 0,0 l/m 6,0 km/h (2 Bft) NO 43 0 min 0,000 mm 0,0 UV-I 0 W/m -2,8 C -2,4 C 8,0 km/h (2 Bft) 95,74 %
29.12.2016 19:30 -2,4 C 97 % 1041,3 hPa 0,0 l/m 3,3 km/h (1 Bft) NO 34 0 min 0,000 mm 0,0 UV-I 0 W/m -2,8 C -2,4 C 6,4 km/h (2 Bft) 97,14 %
29.12.2016 19:32 -2,5 C 97 % 1041,3 hPa 0,0 l/m 2,7 km/h (1 Bft) O-NO 68 0 min 0,000 mm 0,0 UV-I 0 W/m -2,9 C -2,5 C 4,8 km/h (1 Bft) 97,96 %
29.12.2016 19:34 -2,5 C 97 % 1041,4 hPa 0,0 l/m 1,2 km/h (1 Bft) O-NO 68 0 min 0,000 mm 0,0 UV-I 0 W/m -2,9 C -2,5 C 3,2 km/h (1 Bft) 100,00 %
29.12.2016 19:36 -2,5 C 97 % 1041,4 hPa 0,0 l/m 2,2 km/h (1 Bft) O-NO 68 0 min 0,000 mm 0,0 UV-I 0 W/m -2,9 C -2,5 C 3,2 km/h (1 Bft) 97,92 %
29.12.2016 19:38 -2,5 C 97 % 1041,3 hPa 0,0 l/m 4,4 km/h (1 Bft) NO 49 0 min 0,000 mm 0,0 UV-I 0 W/m -2,9 C -2,5 C 6,4 km/h (2 Bft) 100,00 %
29.12.2016 19:40 -2,4 C 97 % 1041,3 hPa 0,0 l/m 4,3 km/h (1 Bft) N-NO 32 0 min 0,000 mm 0,0 UV-I 0 W/m -2,8 C -2,4 C 8,0 km/h (2 Bft) 96,00 %
29.12.2016 19:42 -2,4 C 97 % 1041,3 hPa 0,0 l/m 7,1 km/h (2 Bft) NO 53 0 min 0,000 mm 0,0 UV-I 0 W/m -2,8 C -3,2 C 9,7 km/h (2 Bft) 100,00 %
29.12.2016 19:44 -2,4 C 97 % 1041,3 hPa 0,0 l/m 6,5 km/h (2 Bft) NO 49 0 min 0,000 mm 0,0 UV-I 0 W/m -2,8 C -2,5 C 8,0 km/h (2 Bft) 97,87 %
29.12.2016 19:46 -2,4 C 97 % 1041,3 hPa 0,0 l/m 5,2 km/h (1 Bft) NO 36 0 min 0,000 mm 0,0 UV-I 0 W/m -2,8 C -2,4 C 8,0 km/h (2 Bft) 97,87 %
29.12.2016 19:48 -2,4 C 97 % 1041,3 hPa 0,0 l/m 3,0 km/h (1 Bft) NO 36 0 min 0,000 mm 0,0 UV-I 0 W/m -2,8 C -2,4 C 6,4 km/h (2 Bft) 97,87 %
29.12.2016 19:50 -2,5 C 97 % 1041,2 hPa 0,0 l/m 6,1 km/h (2 Bft) NO 55 0 min 0,000 mm 0,0 UV-I 0 W/m -2,9 C -2,5 C 9,7 km/h (2 Bft) 97,87 %
29.12.2016 19:52 -2,5 C 97 % 1041,3 hPa 0,0 l/m 5,7 km/h (1 Bft) O-NO 57 0 min 0,000 mm 0,0 UV-I 0 W/m -2,9 C -2,5 C 9,7 km/h (2 Bft) 100,00 %
29.12.2016 19:54 -2,6 C 97 % 1041,2 hPa 0,0 l/m 3,3 km/h (1 Bft) O-NO 57 0 min 0,000 mm 0,0 UV-I 0 W/m -3,0 C -2,6 C 4,8 km/h (1 Bft) 100,00 %
29.12.2016 19:56 -2,6 C 97 % 1041,2 hPa 0,0 l/m 3,0 km/h (1 Bft) O-NO 57 0 min 0,000 mm 0,0 UV-I 0 W/m -3,0 C -2,6 C 4,8 km/h (1 Bft) 100,00 %
29.12.2016 19:58 -2,6 C 97 % 1041,2 hPa 0,0 l/m 3,4 km/h (1 Bft) NO 55 0 min 0,000 mm 0,0 UV-I 0 W/m -3,0 C -2,6 C 6,4 km/h (2 Bft) 100,00 %
29.12.2016 20:00 -2,6 C 97 % 1041,2 hPa 0,0 l/m 6,5 km/h (2 Bft) O-NO 69 0 min 0,000 mm 0,0 UV-I 0 W/m -3,0 C -2,7 C 11,3 km/h (2 Bft) 100,00 %
29.12.2016 20:02 -2,6 C 97 % 1041,2 hPa 0,0 l/m 5,2 km/h (1 Bft) O-NO 69 0 min 0,000 mm 0,0 UV-I 0 W/m -3,0 C -2,6 C 8,0 km/h (2 Bft) 97,87 %
29.12.2016 20:04 -2,7 C 97 % 1041,2 hPa 0,0 l/m 4,0 km/h (1 Bft) O 79 0 min 0,000 mm 0,0 UV-I 0 W/m -3,1 C -2,7 C 8,0 km/h (2 Bft) 100,00 %
29.12.2016 20:06 -2,7 C 97 % 1041,2 hPa 0,0 l/m 5,3 km/h (1 Bft) O-NO 63 0 min 0,000 mm 0,0 UV-I 0 W/m -3,1 C -2,7 C 9,7 km/h (2 Bft) 97,87 %
29.12.2016 20:08 -2,7 C 97 % 1041,2 hPa 0,0 l/m 5,7 km/h (1 Bft) O-NO 69 0 min 0,000 mm 0,0 UV-I 0 W/m -3,1 C -2,7 C 6,4 km/h (2 Bft) 100,00 %
29.12.2016 20:10 -2,7 C 97 % 1041,2 hPa 0,0 l/m 5,6 km/h (1 Bft) O-NO 60 0 min 0,000 mm 0,0 UV-I 0 W/m -3,1 C -2,7 C 8,0 km/h (2 Bft) 100,00 %
29.12.2016 20:12 -2,7 C 97 % 1041,2 hPa 0,0 l/m 3,9 km/h (1 Bft) O-NO 57 0 min 0,000 mm 0,0 UV-I 0 W/m -3,1 C -2,7 C 6,4 km/h (2 Bft) 95,74 %
29.12.2016 20:14 -2,7 C 97 % 1041,2 hPa 0,0 l/m 4,2 km/h (1 Bft) O-NO 74 0 min 0,000 mm 0,0 UV-I 0 W/m -3,1 C -2,7 C 6,4 km/h (2 Bft) 97,92 %
29.12.2016 20:16 -2,7 C 97 % 1041,1 hPa 0,0 l/m 4,4 km/h (1 Bft) O-NO 71 0 min 0,000 mm 0,0 UV-I 0 W/m -3,1 C -2,7 C 6,4 km/h (2 Bft) 97,87 %
29.12.2016 20:18 -2,7 C 97 % 1041,1 hPa 0,0 l/m 3,3 km/h (1 Bft) O-NO 78 0 min 0,000 mm 0,0 UV-I 0 W/m -3,1 C -2,7 C 4,8 km/h (1 Bft) 100,00 %
29.12.2016 20:20 -2,7 C 97 % 1041,1 hPa 0,0 l/m 3,3 km/h (1 Bft) O-SO 102 0 min 0,000 mm 0,0 UV-I 0 W/m -3,1 C -2,7 C 4,8 km/h (1 Bft) 95,74 %
29.12.2016 20:22 -2,7 C 97 % 1041,1 hPa 0,0 l/m 4,4 km/h (1 Bft) O 87 0 min 0,000 mm 0,0 UV-I 0 W/m -3,1 C -2,7 C 6,4 km/h (2 Bft) 97,92 %
29.12.2016 20:24 -2,7 C 97 % 1041,1 hPa 0,0 l/m 5,3 km/h (1 Bft) O-NO 63 0 min 0,000 mm 0,0 UV-I 0 W/m -3,1 C -2,7 C 9,7 km/h (2 Bft) 97,87 %
29.12.2016 20:26 -2,7 C 97 % 1041,1 hPa 0,0 l/m 4,0 km/h (1 Bft) O-NO 67 0 min 0,000 mm 0,0 UV-I 0 W/m -3,1 C -2,7 C 6,4 km/h (2 Bft) 97,37 %
29.12.2016 20:28 -2,7 C 97 % 1041,2 hPa 0,0 l/m 4,0 km/h (1 Bft) O-NO 65 0 min 0,000 mm 0,0 UV-I 0 W/m -3,1 C -2,7 C 6,4 km/h (2 Bft) 100,00 %
29.12.2016 20:30 -2,7 C 97 % 1041,1 hPa 0,0 l/m 3,2 km/h (1 Bft) O-NO 65 0 min 0,000 mm 0,0 UV-I 0 W/m -3,1 C -2,7 C 4,8 km/h (1 Bft) 100,00 %
29.12.2016 20:32 -2,7 C 97 % 1041,1 hPa 0,0 l/m 2,7 km/h (1 Bft) O-NO 64 0 min 0,000 mm 0,0 UV-I 0 W/m -3,1 C -2,7 C 4,8 km/h (1 Bft) 95,74 %
29.12.2016 20:34 -2,7 C 97 % 1041,1 hPa 0,0 l/m 4,3 km/h (1 Bft) O 84 0 min 0,000 mm 0,0 UV-I 0 W/m -3,1 C -2,7 C 8,0 km/h (2 Bft) 100,00 %
29.12.2016 20:36 -2,7 C 97 % 1041,1 hPa 0,0 l/m 5,7 km/h (1 Bft) O-NO 66 0 min 0,000 mm 0,0 UV-I 0 W/m -3,1 C -2,7 C 8,0 km/h (2 Bft) 97,87 %
29.12.2016 20:38 -2,7 C 97 % 1041,2 hPa 0,0 l/m 2,5 km/h (1 Bft) O-NO 67 0 min 0,000 mm 0,0 UV-I 0 W/m -3,1 C -2,7 C 4,8 km/h (1 Bft) 100,00 %
29.12.2016 20:40 -2,7 C 97 % 1041,2 hPa 0,0 l/m 3,9 km/h (1 Bft) NO 49 0 min 0,000 mm 0,0 UV-I 0 W/m -3,1 C -2,7 C 6,4 km/h (2 Bft) 98,00 %
29.12.2016 20:42 -2,7 C 97 % 1041,2 hPa 0,0 l/m 5,1 km/h (1 Bft) O-SO 116 0 min 0,000 mm 0,0 UV-I 0 W/m -3,1 C -2,7 C 8,0 km/h (2 Bft) 100,00 %
29.12.2016 20:44 -2,7 C 97 % 1041,2 hPa 0,0 l/m 4,6 km/h (1 Bft) O 86 0 min 0,000 mm 0,0 UV-I 0 W/m -3,1 C -2,7 C 8,0 km/h (2 Bft) 100,00 %
29.12.2016 20:46 -2,7 C 97 % 1041,2 hPa 0,0 l/m 1,2 km/h (1 Bft) O 86 0 min 0,000 mm 0,0 UV-I 0 W/m -3,1 C -2,7 C 4,8 km/h (1 Bft) 100,00 %
29.12.2016 20:48 -2,8 C 97 % 1041,2 hPa 0,0 l/m 0,1 km/h (0 Bft) O 86 0 min 0,000 mm 0,0 UV-I 0 W/m -3,2 C -2,8 C 1,6 km/h (1 Bft) 95,74 %
29.12.2016 20:50 -2,8 C 97 % 1041,2 hPa 0,0 l/m 2,8 km/h (1 Bft) O 84 0 min 0,000 mm 0,0 UV-I 0 W/m -3,2 C -2,8 C 4,8 km/h (1 Bft) 97,87 %
29.12.2016 20:52 -2,7 C 97 % 1041,2 hPa 0,0 l/m 2,4 km/h (1 Bft) O 84 0 min 0,000 mm 0,0 UV-I 0 W/m -3,1 C -2,7 C 4,8 km/h (1 Bft) 100,00 %
29.12.2016 20:54 -2,7 C 97 % 1041,2 hPa 0,0 l/m 1,4 km/h (1 Bft) O-SO 119 0 min 0,000 mm 0,0 UV-I 0 W/m -3,1 C -2,7 C 4,8 km/h (1 Bft) 98,00 %
29.12.2016 20:56 -2,7 C 97 % 1041,2 hPa 0,0 l/m 2,1 km/h (1 Bft) O-NO 76 0 min 0,000 mm 0,0 UV-I 0 W/m -3,1 C -2,7 C 4,8 km/h (1 Bft) 97,96 %
29.12.2016 20:58 -2,6 C 97 % 1041,2 hPa 0,0 l/m 3,2 km/h (1 Bft) O 96 0 min 0,000 mm 0,0 UV-I 0 W/m -3,0 C -2,6 C 6,4 km/h (2 Bft) 100,00 %
29.12.2016 21:00 -2,6 C 97 % 1041,2 hPa 0,0 l/m 4,5 km/h (1 Bft) SO 143 0 min 0,000 mm 0,0 UV-I 0 W/m -3,0 C -2,6 C 6,4 km/h (2 Bft) 97,92 %
29.12.2016 21:02 -2,6 C 97 % 1041,2 hPa 0,0 l/m 5,4 km/h (1 Bft) O-SO 111 0 min 0,000 mm 0,0 UV-I 0 W/m -3,0 C -2,6 C 12,9 km/h (3 Bft) 100,00 %
29.12.2016 21:04 -2,6 C 97 % 1041,2 hPa 0,0 l/m 7,7 km/h (2 Bft) O 90 0 min 0,000 mm 0,0 UV-I 0 W/m -3,0 C -4,1 C 12,9 km/h (3 Bft) 97,87 %
29.12.2016 21:06 -2,7 C 97 % 1041,2 hPa 0,0 l/m 5,2 km/h (1 Bft) O-NO 74 0 min 0,000 mm 0,0 UV-I 0 W/m -3,1 C -2,7 C 8,0 km/h (2 Bft) 93,62 %
29.12.2016 21:09 -2,7 C 97 % 1041,3 hPa 0,0 l/m 4,4 km/h (1 Bft) O-NO 71 0 min 0,000 mm 0,0 UV-I 0 W/m -3,1 C -2,7 C 6,4 km/h (2 Bft) 97,26 %
29.12.2016 21:10 -2,7 C 97 % 1041,3 hPa 0,0 l/m 3,8 km/h (1 Bft) O-NO 74 0 min 0,000 mm 0,0 UV-I 0 W/m -3,1 C -2,7 C 6,4 km/h (2 Bft) 91,67 %
29.12.2016 21:12 -2,7 C 97 % 1041,3 hPa 0,0 l/m 2,4 km/h (1 Bft) O-NO 76 0 min 0,000 mm 0,0 UV-I 0 W/m -3,1 C -2,7 C 4,8 km/h (1 Bft) 93,62 %
29.12.2016 21:14 -2,6 C 97 % 1041,3 hPa 0,0 l/m 3,0 km/h (1 Bft) O-NO 71 0 min 0,000 mm 0,0 UV-I 0 W/m -3,0 C -2,6 C 9,7 km/h (2 Bft) 97,87 %
29.12.2016 21:16 -2,6 C 97 % 1041,3 hPa 0,0 l/m 6,3 km/h (2 Bft) O-NO 73 0 min 0,000 mm 0,0 UV-I 0 W/m -3,0 C -2,6 C 11,3 km/h (2 Bft) 97,87 %
29.12.2016 21:18 -2,7 C 97 % 1041,3 hPa 0,0 l/m 3,3 km/h (1 Bft) O-NO 69 0 min 0,000 mm 0,0 UV-I 0 W/m -3,1 C -2,7 C 4,8 km/h (1 Bft) 97,87 %
29.12.2016 21:20 -2,7 C 97 % 1041,3 hPa 0,0 l/m 5,0 km/h (1 Bft) N-NO 30 0 min 0,000 mm 0,0 UV-I 0 W/m -3,1 C -2,7 C 9,7 km/h (2 Bft) 95,74 %
29.12.2016 21:22 -2,7 C 97 % 1041,3 hPa 0,0 l/m 6,7 km/h (2 Bft) NO 55 0 min 0,000 mm 0,0 UV-I 0 W/m -3,1 C -3,0 C 9,7 km/h (2 Bft) 97,87 %
29.12.2016 21:24 -2,7 C 97 % 1041,3 hPa 0,0 l/m 8,0 km/h (2 Bft) O 85 0 min 0,000 mm 0,0 UV-I 0 W/m -3,1 C -4,5 C 12,9 km/h (3 Bft) 98,00 %
29.12.2016 21:26 -2,7 C 97 % 1041,2 hPa 0,0 l/m 7,1 km/h (2 Bft) O-NO 74 0 min 0,000 mm 0,0 UV-I 0 W/m -3,1 C -3,5 C 11,3 km/h (2 Bft) 95,74 %
29.12.2016 21:28 -2,7 C 97 % 1041,2 hPa 0,0 l/m 5,1 km/h (1 Bft) O 98 0 min 0,000 mm 0,0 UV-I 0 W/m -3,1 C -2,7 C 8,0 km/h (2 Bft) 95,74 %
29.12.2016 21:30 -2,7 C 97 % 1041,2 hPa 0,0 l/m 4,1 km/h (1 Bft) O-SO 115 0 min 0,000 mm 0,0 UV-I 0 W/m -3,1 C -2,7 C 6,4 km/h (2 Bft) 97,87 %
29.12.2016 21:32 -2,7 C 97 % 1041,1 hPa 0,0 l/m 4,2 km/h (1 Bft) NO 55 0 min 0,000 mm 0,0 UV-I 0 W/m -3,1 C -2,7 C 9,7 km/h (2 Bft) 95,74 %
29.12.2016 21:34 -2,7 C 97 % 1041,1 hPa 0,0 l/m 5,8 km/h (2 Bft) O 80 0 min 0,000 mm 0,0 UV-I 0 W/m -3,1 C -2,7 C 14,5 km/h (3 Bft) 97,87 %
29.12.2016 21:36 -2,6 C 97 % 1041,0 hPa 0,0 l/m 7,7 km/h (2 Bft) O-NO 59 0 min 0,000 mm 0,0 UV-I 0 W/m -3,0 C -4,1 C 11,3 km/h (2 Bft) 97,87 %
29.12.2016 21:38 -2,6 C 97 % 1041,0 hPa 0,0 l/m 7,7 km/h (2 Bft) NO 55 0 min 0,000 mm 0,0 UV-I 0 W/m -3,0 C -4,1 C 12,9 km/h (3 Bft) 95,74 %
29.12.2016 21:40 -2,7 C 97 % 1041,0 hPa 0,0 l/m 5,4 km/h (1 Bft) NO 50 0 min 0,000 mm 0,0 UV-I 0 W/m -3,1 C -2,7 C 8,0 km/h (2 Bft) 97,92 %
29.12.2016 21:42 -2,6 C 97 % 1041,1 hPa 0,0 l/m 7,5 km/h (2 Bft) O-NO 69 0 min 0,000 mm 0,0 UV-I 0 W/m -3,0 C -3,8 C 11,3 km/h (2 Bft) 100,00 %
29.12.2016 21:44 -2,6 C 97 % 1041,2 hPa 0,0 l/m 7,4 km/h (2 Bft) O-NO 78 0 min 0,000 mm 0,0 UV-I 0 W/m -3,0 C -3,7 C 11,3 km/h (2 Bft) 95,74 %
29.12.2016 21:46 -2,7 C 97 % 1041,2 hPa 0,0 l/m 8,9 km/h (2 Bft) O-NO 68 0 min 0,000 mm 0,0 UV-I 0 W/m -3,1 C -5,4 C 12,9 km/h (3 Bft) 100,00 %
29.12.2016 21:49 -2,7 C 97 % 1041,1 hPa 0,0 l/m 5,2 km/h (1 Bft) O-NO 71 0 min 0,000 mm 0,0 UV-I 0 W/m -3,1 C -2,7 C 11,3 km/h (2 Bft) 100,00 %
29.12.2016 21:50 -2,7 C 97 % 1041,1 hPa 0,0 l/m 3,1 km/h (1 Bft) O-NO 71 0 min 0,000 mm 0,0 UV-I 0 W/m -3,1 C -2,7 C 4,8 km/h (1 Bft) 100,00 %
29.12.2016 21:52 -2,7 C 97 % 1041,1 hPa 0,0 l/m 4,1 km/h (1 Bft) N-NO 32 0 min 0,000 mm 0,0 UV-I 0 W/m -3,1 C -2,7 C 6,4 km/h (2 Bft) 97,87 %
29.12.2016 21:54 -2,7 C 97 % 1041,1 hPa 0,0 l/m 6,9 km/h (2 Bft) NO 42 0 min 0,000 mm 0,0 UV-I 0 W/m -3,1 C -3,3 C 9,7 km/h (2 Bft) 100,00 %
29.12.2016 21:56 -2,7 C 97 % 1041,0 hPa 0,0 l/m 5,7 km/h (1 Bft) N-NO 18 0 min 0,000 mm 0,0 UV-I 0 W/m -3,1 C -2,7 C 9,7 km/h (2 Bft) 100,00 %
29.12.2016 21:59 -2,7 C 97 % 1040,9 hPa 0,0 l/m 3,9 km/h (1 Bft) NO 53 0 min 0,000 mm 0,0 UV-I 0 W/m -3,1 C -2,7 C 8,0 km/h (2 Bft) 100,00 %
29.12.2016 22:00 -2,6 C 97 % 1040,9 hPa 0,0 l/m 4,6 km/h (1 Bft) NO 51 0 min 0,000 mm 0,0 UV-I 0 W/m -3,0 C -2,6 C 6,4 km/h (2 Bft) 100,00 %
29.12.2016 22:02 -2,7 C 97 % 1040,9 hPa 0,0 l/m 3,6 km/h (1 Bft) NO 47 0 min 0,000 mm 0,0 UV-I 0 W/m -3,1 C -2,7 C 6,4 km/h (2 Bft) 100,00 %
29.12.2016 22:04 -2,7 C 97 % 1040,9 hPa 0,0 l/m 4,3 km/h (1 Bft) NO 54 0 min 0,000 mm 0,0 UV-I 0 W/m -3,1 C -2,7 C 8,0 km/h (2 Bft) 100,00 %
29.12.2016 22:06 -2,7 C 97 % 1040,9 hPa 0,0 l/m 5,8 km/h (2 Bft) NO 53 0 min 0,000 mm 0,0 UV-I 0 W/m -3,1 C -2,7 C 9,7 km/h (2 Bft) 97,87 %
29.12.2016 22:09 -2,7 C 97 % 1040,9 hPa 0,0 l/m 5,7 km/h (1 Bft) NO 55 0 min 0,000 mm 0,0 UV-I 0 W/m -3,1 C -2,7 C 8,0 km/h (2 Bft) 98,59 %
29.12.2016 22:10 -2,7 C 97 % 1040,9 hPa 0,0 l/m 4,5 km/h (1 Bft) O-NO 57 0 min 0,000 mm 0,0 UV-I 0 W/m -3,1 C -2,7 C 6,4 km/h (2 Bft) 100,00 %
29.12.2016 22:12 -2,7 C 97 % 1040,9 hPa 0,0 l/m 5,6 km/h (1 Bft) O-NO 63 0 min 0,000 mm 0,0 UV-I 0 W/m -3,1 C -2,7 C 8,0 km/h (2 Bft) 97,87 %
29.12.2016 22:14 -2,8 C 97 % 1040,9 hPa 0,0 l/m 4,1 km/h (1 Bft) O-NO 59 0 min 0,000 mm 0,0 UV-I 0 W/m -3,2 C -2,8 C 8,0 km/h (2 Bft) 100,00 %
29.12.2016 22:16 -2,8 C 97 % 1040,9 hPa 0,0 l/m 4,6 km/h (1 Bft) O-NO 57 0 min 0,000 mm 0,0 UV-I 0 W/m -3,2 C -2,8 C 6,4 km/h (2 Bft) 100,00 %
29.12.2016 22:18 -2,8 C 97 % 1040,9 hPa 0,0 l/m 4,7 km/h (1 Bft) O-NO 59 0 min 0,000 mm 0,0 UV-I 0 W/m -3,2 C -2,8 C 6,4 km/h (2 Bft) 100,00 %
29.12.2016 22:20 -2,8 C 97 % 1040,9 hPa 0,0 l/m 5,2 km/h (1 Bft) NO 46 0 min 0,000 mm 0,0 UV-I 0 W/m -3,2 C -2,8 C 6,4 km/h (2 Bft) 100,00 %
29.12.2016 22:22 -2,8 C 97 % 1041,0 hPa 0,0 l/m 4,6 km/h (1 Bft) NO 36 0 min 0,000 mm 0,0 UV-I 0 W/m -3,2 C -2,8 C 6,4 km/h (2 Bft) 100,00 %
29.12.2016 22:24 -2,8 C 97 % 1041,0 hPa 0,0 l/m 3,3 km/h (1 Bft) N-NO 31 0 min 0,000 mm 0,0 UV-I 0 W/m -3,2 C -2,8 C 6,4 km/h (2 Bft) 97,87 %
29.12.2016 22:26 -2,8 C 97 % 1041,0 hPa 0,0 l/m 4,8 km/h (1 Bft) NO 44 0 min 0,000 mm 0,0 UV-I 0 W/m -3,2 C -2,8 C 9,7 km/h (2 Bft) 100,00 %
29.12.2016 22:28 -2,8 C 97 % 1041,0 hPa 0,0 l/m 7,5 km/h (2 Bft) NO 38 0 min 0,000 mm 0,0 UV-I 0 W/m -3,2 C -4,0 C 9,7 km/h (2 Bft) 97,87 %
29.12.2016 22:30 -2,8 C 97 % 1041,0 hPa 0,0 l/m 5,7 km/h (1 Bft) NO 53 0 min 0,000 mm 0,0 UV-I 0 W/m -3,2 C -2,8 C 9,7 km/h (2 Bft) 100,00 %
29.12.2016 22:32 -2,9 C 97 % 1041,0 hPa 0,0 l/m 5,9 km/h (2 Bft) O-NO 65 0 min 0,000 mm 0,0 UV-I 0 W/m -3,3 C -2,9 C 9,7 km/h (2 Bft) 100,00 %
29.12.2016 22:34 -2,9 C 97 % 1041,0 hPa 0,0 l/m 5,7 km/h (1 Bft) O-NO 57 0 min 0,000 mm 0,0 UV-I 0 W/m -3,3 C -2,9 C 8,0 km/h (2 Bft) 100,00 %
29.12.2016 22:36 -2,9 C 97 % 1040,9 hPa 0,0 l/m 6,2 km/h (2 Bft) NO 55 0 min 0,000 mm 0,0 UV-I 0 W/m -3,3 C -2,9 C 8,0 km/h (2 Bft) 100,00 %
29.12.2016 22:38 -3,0 C 97 % 1040,9 hPa 0,0 l/m 6,9 km/h (2 Bft) O-NO 58 0 min 0,000 mm 0,0 UV-I 0 W/m -3,4 C -3,6 C 11,3 km/h (2 Bft) 98,00 %
29.12.2016 22:40 -3,0 C 97 % 1040,9 hPa 0,0 l/m 8,0 km/h (2 Bft) O-NO 76 0 min 0,000 mm 0,0 UV-I 0 W/m -3,4 C -4,8 C 12,9 km/h (3 Bft) 100,00 %
29.12.2016 22:42 -3,0 C 97 % 1040,9 hPa 0,0 l/m 4,5 km/h (1 Bft) O 84 0 min 0,000 mm 0,0 UV-I 0 W/m -3,4 C -3,0 C 8,0 km/h (2 Bft) 100,00 %
29.12.2016 22:44 -3,0 C 97 % 1040,9 hPa 0,0 l/m 7,5 km/h (2 Bft) O-NO 63 0 min 0,000 mm 0,0 UV-I 0 W/m -3,4 C -4,2 C 12,9 km/h (3 Bft) 100,00 %
29.12.2016 22:46 -3,1 C 97 % 1041,0 hPa 0,0 l/m 7,4 km/h (2 Bft) O-SO 106 0 min 0,000 mm 0,0 UV-I 0 W/m -3,5 C -4,2 C 12,9 km/h (3 Bft) 97,87 %
29.12.2016 22:48 -3,1 C 97 % 1040,9 hPa 0,0 l/m 4,7 km/h (1 Bft) O-NO 76 0 min 0,000 mm 0,0 UV-I 0 W/m -3,5 C -3,1 C 6,4 km/h (2 Bft) 96,00 %
29.12.2016 22:50 -3,1 C 97 % 1040,9 hPa 0,0 l/m 4,7 km/h (1 Bft) NO 54 0 min 0,000 mm 0,0 UV-I 0 W/m -3,5 C -3,1 C 6,4 km/h (2 Bft) 96,00 %
29.12.2016 22:52 -3,1 C 97 % 1040,9 hPa 0,0 l/m 9,9 km/h (2 Bft) O 96 0 min 0,000 mm 0,0 UV-I 0 W/m -3,5 C -6,8 C 12,9 km/h (3 Bft) 100,00 %
29.12.2016 22:54 -3,1 C 97 % 1040,9 hPa 0,0 l/m 7,6 km/h (2 Bft) O 97 0 min 0,000 mm 0,0 UV-I 0 W/m -3,5 C -4,5 C 11,3 km/h (2 Bft) 100,00 %
29.12.2016 22:56 -3,1 C 97 % 1040,9 hPa 0,0 l/m 7,9 km/h (2 Bft) O 94 0 min 0,000 mm 0,0 UV-I 0 W/m -3,5 C -4,8 C 11,3 km/h (2 Bft) 100,00 %
29.12.2016 22:58 -3,1 C 97 % 1040,9 hPa 0,0 l/m 4,3 km/h (1 Bft) O-NO 67 0 min 0,000 mm 0,0 UV-I 0 W/m -3,5 C -3,1 C 6,4 km/h (2 Bft) 100,00 %
29.12.2016 23:00 -3,1 C 97 % 1040,9 hPa 0,0 l/m 4,0 km/h (1 Bft) NO 51 0 min 0,000 mm 0,0 UV-I 0 W/m -3,5 C -3,1 C 6,4 km/h (2 Bft) 97,87 %
29.12.2016 23:03 -3,0 C 97 % 1041,0 hPa 0,0 l/m 6,5 km/h (2 Bft) NO 45 0 min 0,000 mm 0,0 UV-I 0 W/m -3,4 C -3,1 C 9,7 km/h (2 Bft) 97,14 %
29.12.2016 23:04 -3,0 C 97 % 1041,0 hPa 0,0 l/m 7,9 km/h (2 Bft) N-NO 31 0 min 0,000 mm 0,0 UV-I 0 W/m -3,4 C -4,7 C 9,7 km/h (2 Bft) 100,00 %
29.12.2016 23:06 -2,9 C 97 % 1040,9 hPa 0,0 l/m 5,7 km/h (1 Bft) O-NO 59 0 min 0,000 mm 0,0 UV-I 0 W/m -3,3 C -2,9 C 12,9 km/h (3 Bft) 97,87 %
29.12.2016 23:08 -2,9 C 97 % 1041,1 hPa 0,0 l/m 7,6 km/h (2 Bft) O-NO 58 0 min 0,000 mm 0,0 UV-I 0 W/m -3,3 C -4,3 C 9,7 km/h (2 Bft) 96,00 %
29.12.2016 23:10 -3,0 C 97 % 1041,1 hPa 0,0 l/m 4,6 km/h (1 Bft) NO 41 0 min 0,000 mm 0,0 UV-I 0 W/m -3,4 C -3,0 C 8,0 km/h (2 Bft) 97,87 %
29.12.2016 23:12 -3,0 C 97 % 1041,0 hPa 0,0 l/m 7,0 km/h (2 Bft) NO 42 0 min 0,000 mm 0,0 UV-I 0 W/m -3,4 C -3,7 C 11,3 km/h (2 Bft) 97,87 %
29.12.2016 23:14 -3,1 C 97 % 1041,0 hPa 0,0 l/m 5,4 km/h (1 Bft) NO 53 0 min 0,000 mm 0,0 UV-I 0 W/m -3,5 C -3,1 C 8,0 km/h (2 Bft) 97,37 %
29.12.2016 23:16 -3,1 C 97 % 1041,0 hPa 0,0 l/m 5,6 km/h (1 Bft) NO 44 0 min 0,000 mm 0,0 UV-I 0 W/m -3,5 C -3,1 C 9,7 km/h (2 Bft) 97,87 %
29.12.2016 23:18 -3,1 C 97 % 1041,0 hPa 0,0 l/m 3,7 km/h (1 Bft) O-NO 59 0 min 0,000 mm 0,0 UV-I 0 W/m -3,5 C -3,1 C 4,8 km/h (1 Bft) 95,74 %
29.12.2016 23:20 -3,1 C 97 % 1041,0 hPa 0,0 l/m 3,3 km/h (1 Bft) O-NO 59 0 min 0,000 mm 0,0 UV-I 0 W/m -3,5 C -3,1 C 4,8 km/h (1 Bft) 95,74 %
29.12.2016 23:22 -3,1 C 97 % 1041,0 hPa 0,0 l/m 1,3 km/h (1 Bft) O-NO 59 0 min 0,000 mm 0,0 UV-I 0 W/m -3,5 C -3,1 C 3,2 km/h (1 Bft) 97,87 %
29.12.2016 23:24 -3,1 C 97 % 1041,0 hPa 0,0 l/m 0,3 km/h (0 Bft) O-NO 59 0 min 0,000 mm 0,0 UV-I 0 W/m -3,5 C -3,1 C 3,2 km/h (1 Bft) 97,87 %
29.12.2016 23:26 -3,1 C 97 % 1041,0 hPa 0,0 l/m 2,6 km/h (1 Bft) O-NO 76 0 min 0,000 mm 0,0 UV-I 0 W/m -3,5 C -3,1 C 8,0 km/h (2 Bft) 95,74 %
29.12.2016 23:28 -3,1 C 97 % 1041,0 hPa 0,0 l/m 6,6 km/h (2 Bft) O-NO 71 0 min 0,000 mm 0,0 UV-I 0 W/m -3,5 C -3,3 C 11,3 km/h (2 Bft) 95,74 %
29.12.2016 23:30 -3,1 C 97 % 1041,0 hPa 0,0 l/m 8,4 km/h (2 Bft) O-SO 109 0 min 0,000 mm 0,0 UV-I 0 W/m -3,5 C -5,3 C 12,9 km/h (3 Bft) 97,87 %
29.12.2016 23:32 -3,1 C 97 % 1041,1 hPa 0,0 l/m 3,7 km/h (1 Bft) O-SO 109 0 min 0,000 mm 0,0 UV-I 0 W/m -3,5 C -3,1 C 6,4 km/h (2 Bft) 95,74 %
29.12.2016 23:34 -3,1 C 97 % 1041,1 hPa 0,0 l/m 1,1 km/h (1 Bft) O-SO 106 0 min 0,000 mm 0,0 UV-I 0 W/m -3,5 C -3,1 C 4,8 km/h (1 Bft) 97,87 %
29.12.2016 23:36 -3,1 C 97 % 1041,1 hPa 0,0 l/m 1,6 km/h (1 Bft) O-SO 106 0 min 0,000 mm 0,0 UV-I 0 W/m -3,5 C -3,1 C 3,2 km/h (1 Bft) 97,92 %
29.12.2016 23:38 -3,1 C 97 % 1041,1 hPa 0,0 l/m 3,5 km/h (1 Bft) O 85 0 min 0,000 mm 0,0 UV-I 0 W/m -3,5 C -3,1 C 4,8 km/h (1 Bft) 97,96 %
29.12.2016 23:40 -3,1 C 97 % 1041,1 hPa 0,0 l/m 4,5 km/h (1 Bft) O 82 0 min 0,000 mm 0,0 UV-I 0 W/m -3,5 C -3,1 C 8,0 km/h (2 Bft) 93,75 %
29.12.2016 23:42 -3,1 C 97 % 1041,0 hPa 0,0 l/m 3,8 km/h (1 Bft) O-NO 71 0 min 0,000 mm 0,0 UV-I 0 W/m -3,5 C -3,1 C 6,4 km/h (2 Bft) 97,87 %
29.12.2016 23:44 -3,1 C 97 % 1041,0 hPa 0,0 l/m 4,8 km/h (1 Bft) NO 44 0 min 0,000 mm 0,0 UV-I 0 W/m -3,5 C -3,1 C 6,4 km/h (2 Bft) 100,00 %
29.12.2016 23:46 -3,0 C 97 % 1041,1 hPa 0,0 l/m 4,8 km/h (1 Bft) O 85 0 min 0,000 mm 0,0 UV-I 0 W/m -3,4 C -3,0 C 6,4 km/h (2 Bft) 97,87 %
29.12.2016 23:48 -3,0 C 97 % 1041,0 hPa 0,0 l/m 5,5 km/h (1 Bft) O-NO 77 0 min 0,000 mm 0,0 UV-I 0 W/m -3,4 C -3,0 C 8,0 km/h (2 Bft) 97,87 %
29.12.2016 23:50 -3,0 C 97 % 1041,0 hPa 0,0 l/m 7,9 km/h (2 Bft) O-NO 63 0 min 0,000 mm 0,0 UV-I 0 W/m -3,4 C -4,7 C 12,9 km/h (3 Bft) 100,00 %
29.12.2016 23:52 -3,0 C 97 % 1040,9 hPa 0,0 l/m 6,4 km/h (2 Bft) O-NO 63 0 min 0,000 mm 0,0 UV-I 0 W/m -3,4 C -3,0 C 8,0 km/h (2 Bft) 100,00 %
29.12.2016 23:54 -3,1 C 97 % 1040,9 hPa 0,0 l/m 4,1 km/h (1 Bft) O 79 0 min 0,000 mm 0,0 UV-I 0 W/m -3,5 C -3,1 C 6,4 km/h (2 Bft) 95,74 %
29.12.2016 23:56 -3,1 C 97 % 1040,9 hPa 0,0 l/m 6,1 km/h (2 Bft) O-NO 69 0 min 0,000 mm 0,0 UV-I 0 W/m -3,5 C -3,1 C 9,7 km/h (2 Bft) 97,87 %
29.12.2016 23:58 -3,1 C 97 % 1040,9 hPa 0,0 l/m 5,2 km/h (1 Bft) O-NO 73 0 min 0,000 mm 0,0 UV-I 0 W/m -3,5 C -3,1 C 8,0 km/h (2 Bft) 94,00 %
_ Min-Zeit 23:24 00:00 01:18 - 00:32 - - - - - - 22:46 22:52 00:32 00:40
Minimum _ -3,2 C 95 % 1040,1 hPa - 0,0 km/h (0 Bft) - - - - - - -3,5 C -6,8 C 0,0 km/h (0 Bft) 91,43 %
_ Max-Zeit 02:52 09:40 10:02 00:02 14:36 - - 08:08 14:00 13:06 13:10 02:58 02:58 16:50 00:00
Maximum _ 1,6 C 98 % 1042,1 hPa 0,2 l/m 10,3 km/h
O (2 Bft)
- - 2 min 0,076 mm 0,5 UV-I 380 W/m 1,0 C 1,6 C 14,5 km/h
O-NO (3 Bft)
100,00 %
Durchschnitt _ -0,5 C 97 % 1041,0 hPa #0,6 l/m 3,3 km/h (1 Bft) O-NO - #1:32 h #0,279 mm 0,3 UV-I 93 W/m -1,0 C -0,6 C 5,7 km/h (1 Bft) 98,31 %